[[{"header":{"parameterUnit":"m.s-1","parameterCategory":1,"la1":30.6,"la2":28.766,"lo1":-90.7593,"lo2":-88.6598,"dy":0.0162,"dx":0.0183,"nx":116,"ny":114,"refTime":"2023-02-26T06:00:00:Z","depth":0,"parameterNumber":2,"parameterNumberName":"U-component_of_WINDS"},"data":[0.0,0.0,0.0,0.0,0.0,0.0,0.0,0.0,0.0,0.0,0.0,0.0,0.0,0.0,0.0,0.0,0.0,0.0,0.0,0.0,0.0,0.0,0.0,0.0,0.0,0.0,0.0,0.0,0.0,0.0,0.0,0.0,0.0,0.0,0.0,0.0,0.0,0.0,0.0,0.0,0.0,0.0,0.0,0.0,0.0,0.0,0.0,0.0,0.0,0.0,0.0,0.0,0.0,0.0,0.0,0.0,0.0,0.0,0.0,0.0,0.0,0.0,0.0,0.0,0.0,0.0,0.0,0.0,0.0,0.0,0.0,0.0,0.0,0.0,0.0,0.0,0.0,0.0,0.0,0.0,0.0,0.0,0.0,0.0,0.0,0.0,0.0,0.0,0.0,0.0,0.0,0.0,0.0,0.0,0.0,0.0,0.0,0.0,0.0,0.0,0.0,0.0,0.0,0.0,0.0,0.0,0.0,0.0,0.0,0.0,0.0,0.0,0.0,0.0,0.0,0.0,0.0,0.0,0.0,0.0,0.0,0.0,0.0,0.0,0.0,0.0,0.0,0.0,0.0,0.0,0.0,0.0,0.0,0.0,0.0,0.0,0.0,0.0,0.0,0.0,0.0,0.0,0.0,0.0,0.0,0.0,0.0,0.0,0.0,0.0,0.0,0.0,0.0,0.0,0.0,0.0,0.0,0.0,0.0,0.0,0.0,0.0,0.0,0.0,0.0,0.0,0.0,0.0,0.0,0.0,0.0,0.0,0.0,0.0,0.0,0.0,0.0,0.0,0.0,0.0,0.0,0.0,0.0,0.0,0.0,0.0,0.0,0.0,0.0,0.0,0.0,0.0,0.0,0.0,0.0,0.0,0.0,0.0,0.0,0.0,0.0,0.0,0.0,0.0,0.0,0.0,0.0,0.0,0.0,0.0,0.0,0.0,0.0,0.0,0.0,0.0,0.0,0.0,0.0,0.0,0.0,0.0,0.0,0.0,0.0,0.0,0.0,0.0,0.0,0.0,0.0,0.0,0.0,0.0,0.0,0.0,0.0,0.0,0.0,0.0,0.0,0.0,0.0,0.0,0.0,0.0,0.0,0.0,0.0,0.0,0.0,0.0,0.0,0.0,0.0,0.0,0.0,0.0,0.0,0.0,0.0,0.0,0.0,0.0,0.0,0.0,0.0,0.0,0.0,0.0,0.0,0.0,0.0,0.0,0.0,0.0,0.0,0.0,0.0,0.0,0.0,0.0,0.0,0.0,0.0,0.0,0.0,0.0,0.0,0.0,0.0,0.0,0.0,0.0,0.0,0.0,0.0,0.0,0.0,0.0,0.0,0.0,0.0,0.0,0.0,0.0,0.0,0.0,0.0,0.0,0.0,0.0,0.0,0.0,0.0,0.0,0.0,0.0,0.0,0.0,0.0,0.0,0.0,0.0,0.0,0.0,0.0,0.0,0.0,0.0,0.0,0.0,0.0,0.0,0.0,0.0,0.0,0.0,0.0,0.0,0.0,0.0,0.0,0.0,0.0,0.0,0.0,0.0,0.0,0.0,0.0,0.0,0.0,0.0,0.0,0.0,0.0,0.0,0.0,0.0,0.0,0.0,0.0,0.0,0.0,0.0,0.0,0.0,0.0,0.0,0.0,0.0,0.0,0.0,0.0,0.0,0.0,0.0,0.0,0.0,0.0,0.0,0.0,0.0,0.0,0.0,0.0,0.0,0.0,0.0,0.0,0.0,0.0,0.0,0.0,0.0,0.0,0.0,0.0,0.0,0.0,0.0,0.0,0.0,0.0,0.0,0.0,0.0,0.0,0.0,0.0,0.0,0.0,0.0,0.0,0.0,0.0,0.0,0.0,0.0,0.0,0.0,0.0,0.0,0.0,0.0,0.0,0.0,0.0,0.0,0.0,0.0,0.0,0.0,0.0,0.0,0.0,0.0,0.0,0.0,0.0,0.0,0.0,0.0,0.0,0.0,0.0,0.0,0.0,0.0,0.0,0.0,0.0,0.0,0.0,0.0,0.0,0.0,0.0,0.0,0.0,0.0,0.0,0.0,0.0,0.0,0.0,0.0,0.0,0.0,0.0,0.0,0.0,0.0,0.0,0.0,0.0,0.0,0.0,0.0,0.0,0.0,0.0,0.0,0.0,0.0,0.0,0.0,0.0,0.0,0.0,0.0,0.0,0.0,0.0,0.0,0.0,0.0,0.0,0.0,0.0,0.0,0.0,0.0,0.0,0.0,0.0,0.0,0.0,0.0,0.0,0.0,0.0,0.0,0.0,0.0,0.0,0.0,0.0,0.0,0.0,0.0,0.0,0.0,0.0,0.0,0.0,0.0,0.0,0.0,0.0,0.0,0.0,0.0,0.0,0.0,0.0,0.0,0.0,0.0,0.0,0.0,0.0,0.0,0.0,0.0,0.0,0.0,0.0,0.0,0.0,0.0,0.0,0.0,0.0,0.0,0.0,0.0,0.0,0.0,0.0,0.0,0.0,0.0,0.0,0.0,0.0,0.0,0.0,0.0,0.0,0.0,0.0,0.0,0.0,0.0,0.0,0.0,0.0,0.0,0.0,0.0,0.0,0.0,0.0,0.0,0.0,0.0,0.0,0.0,0.0,0.0,0.0,0.0,0.0,0.0,0.0,0.0,0.0,0.0,0.0,0.0,0.0,0.0,0.0,0.0,0.0,0.0,0.0,0.0,0.0,0.0,0.0,0.0,0.0,0.0,0.0,0.0,0.0,0.0,0.0,0.0,0.0,0.0,0.0,0.0,0.0,0.0,0.0,0.0,0.0,0.0,0.0,0.0,0.0,0.0,0.0,0.0,0.0,0.0,0.0,0.0,0.0,0.0,0.0,0.0,0.0,0.0,0.0,0.0,0.0,0.0,0.0,0.0,0.0,0.0,0.0,0.0,0.0,0.0,0.0,0.0,0.0,0.0,0.0,0.0,0.0,0.0,0.0,0.0,0.0,0.0,0.0,0.0,0.0,0.0,0.0,0.0,0.0,0.0,0.0,0.0,0.0,0.0,0.0,0.0,0.0,0.0,0.0,0.0,0.0,0.0,0.0,0.0,0.0,0.0,0.0,0.0,0.0,0.0,0.0,0.0,0.0,0.0,0.0,0.0,0.0,0.0,0.0,0.0,0.0,0.0,0.0,0.0,0.0,0.0,0.0,0.0,0.0,0.0,0.0,0.0,0.0,0.0,0.0,0.0,0.0,0.0,0.0,0.0,0.0,0.0,0.0,0.0,0.0,0.0,0.0,0.0,0.0,0.0,0.0,0.0,0.0,0.0,0.0,0.0,0.0,0.0,0.0,0.0,0.0,0.0,0.0,0.0,0.0,0.0,0.0,0.0,0.0,0.0,0.0,0.0,0.0,0.0,0.0,0.0,0.0,0.0,0.0,0.0,0.0,0.0,0.0,0.0,0.0,0.0,0.0,0.0,0.0,0.0,0.0,0.0,0.0,0.0,0.0,0.0,0.0,0.0,0.0,0.0,0.0,0.0,0.0,0.0,0.0,0.0,0.0,0.0,0.0,0.0,0.0,0.0,0.0,0.0,0.0,0.0,0.0,0.0,0.0,0.0,0.0,0.0,0.0,0.0,0.0,0.0,0.0,0.0,0.0,0.0,0.0,0.0,0.0,0.0,0.0,0.0,0.0,0.0,0.0,0.0,0.0,0.0,0.0,0.0,0.0,0.0,0.0,0.0,0.0,0.0,0.0,0.0,0.0,0.0,0.0,0.0,0.0,0.0,0.0,0.0,0.0,0.0,0.0,0.0,0.0,0.0,0.0,0.0,0.0,0.0,0.0,0.0,0.0,0.0,0.0,0.0,0.0,0.0,0.0,0.0,0.0,0.0,0.0,0.0,0.0,0.0,0.0,0.0,0.0,0.0,0.0,0.0,0.0,0.0,0.0,0.0,0.0,0.0,0.0,0.0,0.0,0.0,0.0,0.0,0.0,0.0,0.0,0.0,0.0,0.0,0.0,0.0,0.0,0.0,0.0,0.0,0.0,0.0,0.0,0.0,0.0,0.0,0.0,0.0,0.0,0.0,0.0,0.0,0.0,0.0,0.0,0.0,0.0,0.0,0.0,0.0,0.0,0.0,0.0,0.0,0.0,0.0,0.0,0.0,0.0,0.0,0.0,0.0,0.0,0.0,0.0,0.0,0.0,0.0,0.0,0.0,0.0,0.0,0.0,0.0,0.0,0.0,0.0,0.0,0.0,0.0,0.0,0.0,0.0,0.0,0.0,0.0,0.0,0.0,0.0,0.0,0.0,0.0,0.0,0.0,0.0,0.0,0.0,0.0,0.0,0.0,0.0,0.0,0.0,0.0,0.0,0.0,0.0,0.0,0.0,0.0,0.0,0.0,0.0,0.0,0.0,0.0,0.0,0.0,0.0,0.0,0.0,0.0,0.0,0.0,0.0,0.0,0.0,0.0,0.0,0.0,0.0,0.0,0.0,0.0,0.0,0.0,0.0,0.0,0.0,0.0,0.0,0.0,0.0,0.0,0.0,0.0,0.0,0.0,0.0,0.0,0.0,0.0,0.0,0.0,0.0,0.0,0.0,0.0,0.0,0.0,0.0,0.0,0.0,0.0,0.0,0.0,0.0,0.0,0.0,0.0,0.0,0.0,0.0,0.0,0.0,0.0,0.0,0.0,0.0,0.0,0.0,0.0,0.0,0.0,0.0,0.0,0.0,0.0,0.0,0.0,0.0,0.0,0.0,0.0,0.0,0.0,0.0,0.0,0.0,0.0,0.0,0.0,0.0,0.0,0.0,0.0,0.0,0.0,0.0,0.0,0.0,0.0,0.0,0.0,0.0,0.0,0.0,0.0,0.0,0.0,0.0,0.0,0.0,0.0,0.0,0.0,0.0,0.0,0.0,0.0,0.0,0.0,0.0,0.0,0.0,0.0,0.0,0.0,0.0,0.0,0.0,0.0,0.0,0.0,0.0,0.0,0.0,0.0,0.0,0.0,0.0,0.0,0.0,0.0,0.0,0.0,0.0,0.0,0.0,0.0,0.0,0.0,0.0,0.0,0.0,0.0,0.0,0.0,0.0,0.0,0.0,0.0,0.0,0.0,0.0,0.0,0.0,0.0,0.0,0.0,0.0,0.0,0.0,0.0,0.0,0.0,0.0,0.0,0.0,0.0,0.0,0.0,0.0,0.0,0.0,0.0,0.0,0.0,0.0,0.0,0.0,0.0,0.0,0.0,0.0,0.0,0.0,0.0,0.0,0.0,0.0,0.0,0.0,0.0,0.0,0.0,0.0,0.0,0.0,0.0,0.0,0.0,0.0,0.0,0.0,0.0,0.0,0.0,0.0,0.0,0.0,0.0,0.0,0.0,0.0,0.0,0.0,0.0,0.0,0.0,0.0,0.0,0.0,0.0,0.0,0.0,0.0,0.0,0.0,0.0,0.0,0.0,0.0,0.0,0.0,0.0,0.0,0.0,0.0,0.0,0.0,0.0,0.0,0.0,0.0,0.0,0.0,0.0,0.0,0.0,0.0,0.0,0.0,0.0,0.0,0.0,0.0,0.0,0.0,0.0,0.0,0.0,0.0,0.0,0.0,0.0,0.0,0.0,0.0,0.0,0.0,0.0,0.0,0.0,0.0,0.0,0.0,0.0,0.0,0.0,0.0,0.0,0.0,0.0,0.0,0.0,0.0,0.0,0.0,0.0,0.0,0.0,0.0,0.0,0.0,0.0,0.0,0.0,0.0,0.0,0.0,0.0,0.0,0.0,0.0,0.0,0.0,0.0,0.0,0.0,0.0,0.0,0.0,0.0,0.0,0.0,0.0,0.0,0.0,0.0,0.0,0.0,0.0,0.0,0.0,0.0,0.0,0.0,0.0,0.0,0.0,0.0,0.0,0.0,0.0,0.0,0.0,0.0,0.0,0.0,0.0,0.0,0.0,0.0,0.0,0.0,0.0,0.0,0.0,0.0,0.0,0.0,0.0,0.0,0.0,0.0,0.0,0.0,0.0,0.0,0.0,0.0,0.0,0.0,0.0,0.0,0.0,0.0,0.0,0.0,0.0,0.0,0.0,0.0,0.0,0.0,0.0,0.0,0.0,0.0,0.0,0.0,0.0,0.0,-3.1539,-3.1322,0.0,0.0,0.0,0.0,0.0,0.0,0.0,0.0,0.0,0.0,0.0,0.0,0.0,0.0,0.0,0.0,0.0,0.0,0.0,0.0,0.0,0.0,0.0,0.0,0.0,0.0,0.0,0.0,0.0,0.0,0.0,0.0,0.0,0.0,0.0,0.0,0.0,0.0,0.0,0.0,0.0,0.0,0.0,0.0,0.0,0.0,0.0,0.0,0.0,0.0,0.0,0.0,0.0,0.0,0.0,0.0,0.0,0.0,0.0,0.0,0.0,0.0,0.0,0.0,0.0,0.0,0.0,0.0,0.0,0.0,0.0,0.0,0.0,0.0,0.0,0.0,0.0,0.0,0.0,0.0,0.0,0.0,0.0,0.0,0.0,0.0,0.0,0.0,0.0,0.0,0.0,0.0,0.0,0.0,0.0,0.0,0.0,0.0,0.0,0.0,0.0,0.0,0.0,0.0,0.0,0.0,0.0,0.0,0.0,0.0,0.0,0.0,0.0,0.0,-3.3008,-3.2672,0.0,0.0,0.0,0.0,0.0,0.0,0.0,0.0,0.0,0.0,0.0,0.0,0.0,0.0,0.0,0.0,0.0,0.0,0.0,0.0,0.0,0.0,0.0,0.0,0.0,0.0,0.0,0.0,0.0,0.0,0.0,0.0,0.0,0.0,0.0,0.0,0.0,0.0,0.0,0.0,0.0,0.0,0.0,0.0,0.0,0.0,0.0,0.0,0.0,0.0,0.0,0.0,0.0,0.0,0.0,0.0,0.0,0.0,0.0,0.0,0.0,0.0,0.0,0.0,0.0,0.0,0.0,0.0,0.0,0.0,0.0,0.0,0.0,0.0,0.0,0.0,0.0,0.0,0.0,0.0,0.0,0.0,0.0,0.0,0.0,0.0,0.0,0.0,0.0,0.0,0.0,0.0,0.0,0.0,0.0,0.0,0.0,0.0,0.0,0.0,0.0,0.0,0.0,0.0,0.0,0.0,0.0,0.0,-3.3082,-3.3509,-3.4036,-3.4036,-3.4257,-3.4668,-3.4794,-3.4462,-3.3893,-3.4446,0.0,0.0,0.0,0.0,0.0,0.0,0.0,0.0,0.0,0.0,0.0,0.0,0.0,0.0,0.0,0.0,0.0,0.0,0.0,0.0,0.0,0.0,0.0,0.0,0.0,0.0,0.0,0.0,0.0,0.0,0.0,0.0,0.0,0.0,0.0,0.0,0.0,0.0,0.0,0.0,0.0,0.0,0.0,0.0,0.0,0.0,0.0,0.0,0.0,0.0,0.0,0.0,0.0,0.0,0.0,0.0,0.0,0.0,0.0,0.0,0.0,0.0,0.0,0.0,0.0,0.0,0.0,0.0,0.0,0.0,0.0,0.0,0.0,0.0,0.0,0.0,0.0,0.0,0.0,0.0,0.0,0.0,0.0,0.0,0.0,0.0,-3.1249,-3.1738,0.0,0.0,0.0,0.0,0.0,0.0,0.0,0.0,0.0,0.0,0.0,0.0,0.0,-3.274,-3.2165,-3.4047,-3.4984,-3.4999,-3.6245,-3.6877,-3.6956,-3.6956,-3.6643,-3.6156,-3.6785,0.0,-3.5998,-3.6077,0.0,0.0,0.0,0.0,0.0,0.0,0.0,0.0,0.0,0.0,0.0,0.0,0.0,0.0,0.0,0.0,0.0,0.0,0.0,0.0,0.0,0.0,0.0,0.0,0.0,0.0,0.0,0.0,0.0,0.0,0.0,0.0,0.0,0.0,0.0,0.0,0.0,0.0,0.0,0.0,0.0,0.0,0.0,0.0,0.0,0.0,0.0,0.0,0.0,0.0,0.0,0.0,0.0,0.0,0.0,0.0,0.0,0.0,0.0,0.0,0.0,0.0,0.0,0.0,0.0,0.0,0.0,0.0,0.0,0.0,0.0,0.0,0.0,0.0,0.0,0.0,0.0,0.0,0.0,0.0,0.0,0.0,0.0,0.0,0.0,-3.0706,-3.1944,-3.1703,-3.187,-3.1514,0.0,0.0,0.0,0.0,0.0,0.0,0.0,0.0,0.0,-3.259,-3.3419,-3.3909,-3.4047,-3.5315,-3.5963,-3.5979,-3.6595,-3.7085,-3.751,-3.751,-3.7306,-3.7054,-3.7765,-3.7504,-3.6513,-3.6054,-3.6108,-3.6313,0.0,0.0,0.0,0.0,-3.0333,-2.983,0.0,0.0,0.0,0.0,0.0,0.0,0.0,0.0,0.0,0.0,0.0,0.0,0.0,0.0,0.0,0.0,0.0,0.0,0.0,0.0,0.0,0.0,0.0,0.0,0.0,0.0,0.0,0.0,0.0,0.0,0.0,0.0,0.0,0.0,0.0,0.0,0.0,0.0,0.0,0.0,0.0,0.0,0.0,0.0,0.0,0.0,0.0,0.0,0.0,0.0,0.0,0.0,0.0,0.0,0.0,0.0,0.0,0.0,0.0,0.0,0.0,0.0,0.0,0.0,0.0,0.0,0.0,0.0,0.0,0.0,0.0,0.0,0.0,0.0,0.0,0.0,0.0,-3.2065,-3.3045,-3.2225,-3.3055,-3.3115,0.0,0.0,0.0,0.0,0.0,0.0,-3.3233,-3.351,-3.3848,-3.4248,-3.4816,-3.5284,-3.5647,-3.6342,-3.669,-3.669,-3.669,-3.6975,-3.751,-3.751,-3.751,-3.7541,-3.8017,-3.776,-3.6909,-3.6086,-3.5859,-3.5782,-3.3095,-3.1945,-3.1618,-3.0111,-2.945,-2.9219,0.0,0.0,0.0,0.0,0.0,0.0,0.0,0.0,0.0,0.0,0.0,0.0,0.0,0.0,0.0,0.0,0.0,0.0,0.0,0.0,0.0,0.0,0.0,0.0,0.0,0.0,0.0,0.0,0.0,0.0,0.0,0.0,0.0,0.0,0.0,0.0,0.0,0.0,0.0,0.0,0.0,0.0,0.0,0.0,0.0,0.0,0.0,0.0,0.0,0.0,0.0,0.0,0.0,0.0,0.0,0.0,0.0,0.0,0.0,0.0,0.0,0.0,0.0,0.0,0.0,0.0,0.0,0.0,0.0,0.0,0.0,0.0,0.0,0.0,0.0,0.0,0.0,0.0,0.0,-3.4739,-3.5822,0.0,0.0,0.0,0.0,-3.3553,-3.3688,-3.4005,-3.4669,-3.5714,-3.6113,-3.5716,-3.6753,-3.7006,-3.6345,-3.7069,-3.7447,-3.7447,-3.7447,-3.7478,-3.751,-3.751,-3.751,-3.751,-3.7541,-3.7588,-3.7591,-3.6925,-3.5599,-3.4045,-3.3848,-3.2392,-3.0475,-3.0978,-3.0119,-2.8651,0.0,0.0,0.0,0.0,0.0,0.0,0.0,0.0,0.0,0.0,0.0,0.0,0.0,0.0,0.0,0.0,0.0,0.0,0.0,0.0,0.0,0.0,0.0,0.0,0.0,0.0,0.0,0.0,0.0,0.0,0.0,0.0,0.0,0.0,0.0,0.0,0.0,0.0,0.0,0.0,0.0,0.0,0.0,0.0,0.0,0.0,0.0,0.0,0.0,0.0,0.0,0.0,0.0,0.0,0.0,0.0,0.0,0.0,0.0,0.0,0.0,0.0,0.0,0.0,0.0,0.0,0.0,0.0,0.0,0.0,0.0,0.0,0.0,0.0,0.0,0.0,0.0,0.0,0.0,-3.5152,-3.6038,0.0,-3.5312,-3.4903,-3.4894,-3.535,-3.5992,-3.6465,-3.6657,-3.6891,-3.6929,-3.6782,-3.6775,-3.6896,-3.7101,-3.7354,-3.751,-3.751,-3.751,-3.751,-3.751,-3.751,-3.7315,-3.6952,-3.6544,-3.6014,-3.5404,-3.4786,-3.4361,-3.407,-3.3155,-3.1583,-2.9882,-3.0109,-2.9519,-2.8587,0.0,0.0,0.0,0.0,0.0,0.0,0.0,0.0,0.0,0.0,0.0,0.0,0.0,0.0,0.0,0.0,0.0,0.0,0.0,0.0,0.0,0.0,0.0,0.0,0.0,0.0,0.0,0.0,0.0,0.0,0.0,0.0,0.0,0.0,0.0,0.0,0.0,0.0,0.0,0.0,0.0,0.0,-2.1582,0.0,0.0,0.0,0.0,0.0,0.0,0.0,0.0,0.0,0.0,0.0,0.0,0.0,0.0,0.0,0.0,0.0,0.0,0.0,0.0,0.0,0.0,0.0,0.0,0.0,0.0,0.0,0.0,0.0,0.0,0.0,0.0,0.0,0.0,0.0,-3.6372,-3.5779,-3.6898,-3.7419,-3.6646,-3.6514,-3.6652,-3.7107,-3.7652,-3.7972,-3.8068,-3.7905,-3.7757,-3.7679,-3.7157,-3.7107,-3.751,-3.751,-3.751,-3.751,-3.7243,-3.7117,-3.7117,-3.6747,-3.6355,-3.5995,-3.5396,-3.4653,-3.3878,-3.3464,-3.3326,-3.3273,-3.234,-3.1011,-2.9602,-2.9602,-2.9194,-2.8587,0.0,0.0,0.0,0.0,0.0,0.0,0.0,0.0,0.0,0.0,0.0,0.0,0.0,0.0,0.0,0.0,0.0,0.0,0.0,0.0,0.0,0.0,0.0,0.0,0.0,0.0,0.0,0.0,0.0,0.0,0.0,0.0,0.0,0.0,0.0,0.0,0.0,0.0,0.0,0.0,0.0,0.0,-2.1285,0.0,0.0,0.0,0.0,0.0,0.0,0.0,0.0,0.0,0.0,0.0,0.0,0.0,0.0,0.0,0.0,0.0,0.0,0.0,0.0,0.0,0.0,0.0,0.0,0.0,0.0,0.0,0.0,0.0,0.0,0.0,0.0,0.0,-3.2358,-3.5235,-3.7183,-3.6783,-3.8592,-3.9736,-3.9338,-3.8642,-3.8395,-3.8783,-3.8467,-3.8395,-3.8783,-3.8805,-3.8683,-3.842,-3.8059,-3.7754,-3.7494,-3.7462,-3.7447,-3.7462,-3.6738,-3.6361,-3.6316,-3.519,-3.469,-3.4632,-3.4147,-3.3668,-3.3224,-3.3209,-3.2516,-3.1451,-3.148,-3.0733,-2.9602,-2.9602,-2.9194,-2.8587,0.0,0.0,0.0,0.0,0.0,0.0,0.0,0.0,0.0,0.0,0.0,0.0,0.0,0.0,0.0,0.0,0.0,0.0,0.0,0.0,0.0,0.0,0.0,0.0,0.0,0.0,0.0,0.0,0.0,0.0,0.0,0.0,0.0,0.0,0.0,0.0,0.0,0.0,0.0,0.0,0.0,0.0,-2.1048,0.0,0.0,0.0,0.0,0.0,0.0,0.0,0.0,0.0,0.0,0.0,0.0,0.0,0.0,0.0,0.0,0.0,0.0,0.0,0.0,0.0,0.0,0.0,0.0,0.0,0.0,0.0,0.0,0.0,0.0,0.0,0.0,-3.3048,-3.3661,-3.6194,-3.7903,-3.7784,-3.8784,-3.9423,-3.9315,-3.9133,-3.903,-3.9158,-3.9063,-3.9046,-3.9148,-3.8914,-3.8777,-3.8694,-3.7689,-3.7361,-3.7786,-3.6568,-3.6216,-3.6677,-3.6011,-3.5493,-3.5159,-3.4841,-3.4326,-3.3638,-3.3021,-3.248,-3.1961,-3.1523,-3.114,-3.0872,-3.1337,-3.0733,-2.9602,-2.9602,-2.9194,-2.8587,0.0,0.0,0.0,0.0,0.0,0.0,0.0,0.0,0.0,0.0,0.0,0.0,0.0,0.0,0.0,0.0,0.0,0.0,0.0,0.0,0.0,0.0,0.0,0.0,0.0,0.0,0.0,0.0,0.0,0.0,0.0,0.0,0.0,0.0,0.0,0.0,0.0,0.0,0.0,0.0,0.0,0.0,-2.0649,-2.0519,-2.0729,-2.11,-2.133,-2.174,-2.2197,-2.2197,0.0,0.0,0.0,0.0,0.0,0.0,0.0,0.0,0.0,0.0,0.0,0.0,0.0,0.0,0.0,0.0,0.0,0.0,0.0,0.0,0.0,0.0,0.0,0.0,-3.1726,-3.3624,-3.461,-3.6506,-3.7988,-3.8583,-3.905,-3.9299,-3.9299,-3.9299,-3.9299,-3.9299,-3.9299,-3.9299,-3.9299,-3.9121,-3.881,-3.8346,-3.7611,-3.7162,-3.7022,-3.6055,-3.5696,-3.5979,-3.5268,-3.4698,-3.4257,-3.3748,-3.3134,-3.2422,-3.1826,-3.1393,-3.1105,-3.0757,-3.0598,-3.0641,0.0,0.0,0.0,0.0,-2.8734,-2.8587,0.0,0.0,0.0,0.0,0.0,0.0,0.0,0.0,0.0,0.0,0.0,0.0,0.0,0.0,0.0,0.0,0.0,0.0,0.0,0.0,0.0,0.0,0.0,0.0,0.0,0.0,0.0,0.0,0.0,0.0,0.0,0.0,0.0,0.0,0.0,0.0,0.0,0.0,0.0,0.0,0.0,0.0,-2.0169,-2.0348,-2.0459,-2.0541,-2.1009,-2.1541,-2.2009,-2.1975,0.0,0.0,0.0,0.0,0.0,0.0,0.0,0.0,0.0,0.0,0.0,0.0,0.0,0.0,0.0,0.0,0.0,0.0,0.0,0.0,0.0,0.0,0.0,0.0,-3.2678,-3.3985,-3.5136,-3.6263,-3.7545,-3.8995,-3.9162,-3.9216,-3.9299,-3.9232,-3.9216,-3.9299,-3.9299,-3.9265,-3.9183,-3.9183,0.0,0.0,0.0,-3.6961,-3.5888,-3.5673,-3.5477,-3.5324,-3.4498,-3.3877,-3.3475,-3.2338,-3.161,-3.1205,-3.0777,-3.0598,-3.0598,-3.0598,-3.0582,-3.0552,-3.0507,-2.9743,-2.8617,-2.794,-2.8044,-2.8478,0.0,0.0,0.0,0.0,0.0,0.0,0.0,0.0,0.0,0.0,0.0,0.0,0.0,0.0,0.0,0.0,0.0,0.0,0.0,0.0,0.0,0.0,0.0,0.0,0.0,0.0,0.0,0.0,0.0,0.0,0.0,0.0,0.0,0.0,0.0,0.0,0.0,0.0,0.0,0.0,0.0,0.0,-1.9849,-1.9525,-1.9562,-1.98,-1.9773,-2.0312,-2.0922,-2.0617,-2.1242,-2.2092,-2.1494,0.0,0.0,0.0,0.0,0.0,0.0,0.0,0.0,0.0,0.0,0.0,0.0,0.0,0.0,0.0,0.0,0.0,0.0,0.0,0.0,-3.1436,-3.3081,-3.4364,-3.4584,-3.5267,-3.6447,-3.827,-3.8459,-3.8642,-3.9249,-3.8758,-3.8659,-3.9265,-3.9299,-3.905,-3.8444,-3.8411,-3.8053,-3.7241,-3.6443,-3.6149,-3.6427,-3.489,-3.4345,-3.4808,-3.354,0.0,-3.2218,-3.167,-3.1161,-3.0717,-3.0628,-3.0598,-3.0598,-3.0598,-3.0431,-3.0172,-2.9913,-2.9362,-2.8617,-2.794,-2.7773,-2.78,0.0,0.0,0.0,0.0,0.0,0.0,0.0,0.0,0.0,0.0,0.0,0.0,0.0,0.0,0.0,0.0,0.0,0.0,0.0,0.0,0.0,0.0,0.0,0.0,0.0,0.0,0.0,0.0,0.0,0.0,0.0,0.0,0.0,0.0,0.0,0.0,0.0,0.0,0.0,0.0,0.0,0.0,-1.8922,-1.8545,-1.8616,-1.8874,-1.8737,-1.914,-1.9734,-1.9761,-2.0275,-2.0942,-2.102,-2.1266,-2.1557,0.0,0.0,0.0,0.0,0.0,0.0,0.0,0.0,0.0,0.0,0.0,0.0,0.0,0.0,-2.8824,0.0,0.0,-3.0986,-3.2302,-3.3066,-3.3607,-3.3909,-3.4497,-3.5468,-3.7051,-3.7204,-3.7462,-3.8119,-3.788,-3.7798,-3.8162,-3.8195,-3.803,-3.7682,-3.7665,-3.7317,-3.6572,-3.6067,-3.5703,-3.5562,-3.4549,-3.398,-3.3831,-3.3098,-3.234,-3.1581,-3.1394,-3.1043,-3.0598,-3.0598,-3.0598,-3.0583,-3.0234,-2.9925,-2.9597,-2.8909,-2.857,-2.8318,-2.7195,-2.6999,-2.7145,0.0,0.0,0.0,0.0,0.0,0.0,0.0,0.0,0.0,0.0,0.0,0.0,0.0,0.0,0.0,0.0,0.0,0.0,0.0,0.0,0.0,0.0,0.0,0.0,0.0,0.0,0.0,0.0,0.0,0.0,0.0,0.0,0.0,0.0,0.0,0.0,0.0,0.0,0.0,0.0,0.0,0.0,-1.7749,-1.7501,-1.7633,-1.7946,-1.7745,-1.8067,-1.8611,-1.8864,-1.9233,-1.9741,-2.0391,-2.0565,-2.0649,-2.1214,-2.1424,0.0,0.0,0.0,0.0,0.0,0.0,0.0,0.0,0.0,-2.6922,-2.8297,-2.8281,-2.8694,-3.0918,-3.0687,-3.0836,-3.2961,-3.2961,-3.2841,-3.3245,-3.3712,-3.4395,-3.5364,-3.5926,-3.6502,-3.725,-3.7185,-3.7102,-3.7102,-3.7102,-3.7052,-3.6903,-3.6887,-3.6555,-3.581,-3.5794,-3.5349,-3.4423,-3.4326,-3.3809,-3.2922,-3.2708,-3.2149,-3.1307,-3.1205,-3.0955,-3.0598,-3.0598,-3.0598,-3.0569,-3.0016,-2.955,-2.9068,-2.812,-2.7766,-2.7688,-2.6372,-2.6212,-2.6552,0.0,0.0,0.0,0.0,0.0,0.0,0.0,0.0,0.0,0.0,0.0,0.0,0.0,0.0,0.0,0.0,0.0,0.0,0.0,0.0,0.0,0.0,0.0,0.0,0.0,0.0,0.0,0.0,0.0,0.0,0.0,0.0,0.0,0.0,0.0,0.0,0.0,0.0,0.0,0.0,0.0,0.0,-1.6563,-1.6343,-1.662,-1.7084,-1.6634,-1.7027,-1.7688,-1.7358,-1.8183,-1.9317,-1.9166,-1.9643,-2.0253,-2.0346,0.0,-1.9872,-1.9965,-2.0519,-2.1466,-2.317,-2.3704,-2.4563,0.0,0.0,-2.765,-2.8939,-2.9709,-3.025,-3.0574,-3.148,-3.2287,-3.2572,-3.3051,-3.3215,-3.2706,-3.2676,-3.2788,-3.2963,-3.4904,-3.6698,-3.7961,-3.7483,-3.7102,-3.7102,-3.7102,-3.682,-3.6158,-3.6125,-3.5794,-3.5048,-3.5015,-3.4725,-3.4151,-3.3902,-3.3393,-3.2641,-3.1968,-3.154,-3.1292,-3.0866,-3.0657,-3.0598,-3.0598,-3.0598,-3.0598,-3.0525,-2.9939,-2.9009,-2.8149,-2.7265,-2.6457,-2.6058,-2.5928,-2.59,0.0,0.0,0.0,0.0,0.0,0.0,0.0,0.0,0.0,0.0,0.0,0.0,0.0,0.0,0.0,0.0,0.0,0.0,0.0,0.0,0.0,0.0,0.0,0.0,0.0,0.0,0.0,0.0,0.0,0.0,0.0,0.0,0.0,0.0,0.0,0.0,0.0,0.0,0.0,0.0,0.0,0.0,-1.6374,-1.6306,-1.6159,-1.6001,-1.5956,-1.6234,0.0,0.0,-1.7154,-1.7924,-1.8312,-1.8585,-1.8839,-1.9246,-1.9325,0.0,-1.9887,-2.0998,0.0,0.0,-2.4267,-2.563,-2.6934,-2.6826,-2.6827,-2.8124,-2.8061,-2.822,-2.9738,-3.016,-3.0644,0.0,-3.2138,-3.2093,-3.1435,-3.1345,-3.166,-3.2559,-3.3547,-3.4638,-3.5815,-3.5844,-3.5827,-3.5827,-3.5827,-3.5694,-3.5379,-3.5363,-3.5069,-3.4448,-3.4423,-3.4159,-3.3578,-3.3437,-3.2974,-3.2185,-3.1839,-3.1412,-3.0896,-3.0687,-3.0598,-3.0598,-3.0598,-3.0598,-3.0539,-2.9798,-2.9131,-2.8454,-2.7187,-2.6343,-2.5797,-2.5499,-2.5385,-2.529,0.0,0.0,0.0,0.0,0.0,0.0,0.0,0.0,0.0,0.0,0.0,0.0,0.0,0.0,0.0,0.0,0.0,0.0,0.0,0.0,0.0,0.0,0.0,0.0,0.0,0.0,0.0,0.0,0.0,0.0,0.0,0.0,0.0,0.0,0.0,0.0,0.0,0.0,0.0,0.0,0.0,0.0,-1.5999,-1.6087,-1.5774,-1.5353,-1.5545,-1.5666,0.0,0.0,-1.6335,-1.6806,-1.7553,-1.7677,-1.7625,-1.822,-1.8511,-1.8787,-1.9553,0.0,0.0,-2.2843,-2.4463,-2.6025,-2.6297,-2.6057,-2.6117,-2.7201,-2.6837,-2.6951,-2.8984,-2.9131,-2.9433,-3.0968,-3.1082,-3.0853,-3.0552,-3.0507,-3.0923,-3.2059,-3.2439,-3.3007,-3.3958,-3.4652,-3.4994,-3.4916,-3.4899,-3.4899,-3.4899,-3.4899,-3.4643,-3.4126,-3.4101,-3.3739,-3.2986,-3.2928,-3.2477,-3.1694,-3.1442,-3.0967,-3.0336,-3.0162,-3.0176,-3.0306,-3.0162,-3.0089,-3.0002,-2.9087,-2.8452,-2.7939,-2.6747,-2.6007,-2.5564,-2.5244,-2.5075,-2.4951,0.0,0.0,0.0,0.0,0.0,0.0,0.0,0.0,0.0,0.0,0.0,0.0,0.0,0.0,0.0,0.0,0.0,0.0,0.0,0.0,0.0,0.0,0.0,0.0,0.0,0.0,0.0,0.0,0.0,0.0,0.0,0.0,0.0,0.0,0.0,0.0,0.0,0.0,0.0,0.0,0.0,0.0,-1.4954,-1.5223,-1.5378,-1.5413,-1.5423,0.0,0.0,0.0,-1.5871,-1.6477,-1.6913,-1.7048,0.0,-1.7265,-1.7528,0.0,0.0,0.0,-2.1427,-2.2535,-2.3781,-2.4901,-2.5415,-2.5679,-2.598,-2.6597,-2.723,-2.7814,-2.844,-2.9039,-2.9696,-3.0408,-3.0039,-2.9849,-3.0417,-3.0507,-3.0606,-3.083,-3.1778,-3.2683,0.0,-3.4597,-3.5242,-3.4925,-3.4899,-3.4899,-3.4899,-3.4899,-3.4643,-3.4126,-3.4101,-3.3559,-3.2453,-3.2413,-3.1966,-3.1132,-3.0453,-2.9986,-2.9595,-2.9015,-2.9073,-2.9595,-2.9,-2.8767,-2.8767,-2.8723,-2.8318,-2.7697,-2.7379,-2.6704,-2.5853,-2.5564,-2.5285,-2.5005,0.0,0.0,0.0,0.0,0.0,0.0,0.0,0.0,0.0,0.0,0.0,0.0,0.0,0.0,0.0,0.0,0.0,0.0,0.0,0.0,0.0,0.0,0.0,0.0,0.0,0.0,0.0,0.0,0.0,0.0,0.0,0.0,0.0,0.0,0.0,0.0,0.0,0.0,0.0,0.0,0.0,0.0,-1.5555,-1.5647,-1.5463,-1.5107,0.0,0.0,0.0,0.0,0.0,0.0,-1.6456,0.0,0.0,-1.6444,0.0,0.0,0.0,0.0,-2.0398,-2.1089,-2.2804,-2.4532,-2.5438,-2.5724,-2.596,-2.658,-2.6272,-2.6062,-2.6622,-2.7618,-2.8426,-2.861,-2.9507,-2.9968,-2.9325,-2.9315,-2.9546,-3.0078,-3.0536,0.0,0.0,0.0,0.0,-3.4892,-3.4899,-3.4739,-3.4399,-3.4374,-3.3883,-3.2822,-3.2888,-3.2547,-3.1693,-3.1766,-3.1342,-3.0438,-2.9576,-2.9099,-2.9,-2.8796,-2.8825,-2.8985,-2.8796,-2.8709,-2.868,-2.8231,-2.7898,-2.7625,-2.6892,-2.6335,-2.5866,-2.5605,-2.5285,-2.5005,0.0,0.0,0.0,0.0,0.0,0.0,0.0,0.0,0.0,0.0,0.0,0.0,0.0,0.0,0.0,0.0,0.0,0.0,0.0,0.0,0.0,0.0,0.0,0.0,0.0,0.0,0.0,0.0,0.0,0.0,0.0,0.0,0.0,0.0,0.0,0.0,0.0,0.0,0.0,0.0,0.0,0.0,-1.4888,-1.5153,-1.5155,0.0,0.0,0.0,0.0,0.0,0.0,0.0,0.0,0.0,0.0,0.0,0.0,0.0,0.0,-1.8465,-1.9515,-1.9996,-2.158,-2.324,-2.4108,-2.4396,-2.4772,-2.5775,-2.5091,-2.4567,-2.5362,-2.6394,-2.7157,-2.7338,-2.8541,-2.926,-2.8685,-2.867,-2.8899,-2.932,-2.9671,-3.0472,0.0,0.0,0.0,-3.4554,-3.4787,-3.4624,-3.4023,-3.3835,-3.3224,-3.2065,-3.181,-3.1443,-3.0933,-3.1033,-3.0609,-2.9645,-2.8777,-2.8332,-2.8332,-2.8128,-2.8129,-2.8332,-2.81,-2.8026,-2.7997,-2.7563,-2.7389,-2.7318,-2.6724,-2.6231,-2.5866,-2.5702,-2.5355,-2.5005,0.0,0.0,0.0,0.0,0.0,0.0,0.0,0.0,0.0,0.0,0.0,0.0,0.0,0.0,0.0,0.0,0.0,0.0,0.0,0.0,0.0,0.0,0.0,0.0,0.0,0.0,0.0,0.0,0.0,0.0,0.0,0.0,0.0,0.0,0.0,0.0,0.0,0.0,0.0,0.0,0.0,0.0,-1.3162,-1.39,0.0,0.0,0.0,0.0,0.0,0.0,0.0,0.0,0.0,0.0,0.0,0.0,0.0,-1.7348,-1.7806,-1.8224,-1.867,-1.916,-2.0145,-2.1083,-2.1653,-2.1957,-2.2601,-2.4283,-2.3822,-2.3474,0.0,0.0,-2.6021,-2.6708,-2.7268,-2.7858,-2.8513,-2.8577,-2.8562,0.0,0.0,0.0,0.0,0.0,0.0,-3.3962,-3.4578,-3.4584,-3.3866,-3.3368,-3.2724,-3.1892,-3.093,-3.0371,-3.0253,-3.0213,-2.9742,-2.883,-2.8024,-2.7652,-2.7623,-2.7055,-2.7113,-2.7623,-2.7041,-2.6806,-2.6806,-2.6806,-2.6806,-2.6806,-2.6806,-2.6447,-2.5921,-2.5921,-2.5536,-2.5033,0.0,0.0,0.0,0.0,0.0,0.0,0.0,0.0,0.0,0.0,0.0,0.0,0.0,0.0,0.0,0.0,0.0,0.0,0.0,0.0,0.0,0.0,0.0,0.0,0.0,0.0,0.0,0.0,0.0,0.0,0.0,0.0,0.0,0.0,0.0,0.0,0.0,0.0,0.0,0.0,0.0,0.0,-1.4402,0.0,0.0,0.0,0.0,0.0,0.0,0.0,0.0,0.0,0.0,0.0,-1.6935,0.0,0.0,-1.68,-1.6928,-1.6804,-1.6817,-1.7624,-1.8433,-1.946,-2.1063,-2.1847,-2.2504,-2.3342,-2.33,-2.3215,0.0,0.0,0.0,-2.6708,-2.7668,0.0,-2.8588,-2.825,0.0,-2.8532,0.0,-2.9414,-3.0488,-3.107,0.0,0.0,-3.4299,-3.4633,-3.4048,-3.338,-3.249,-3.134,-3.1004,-3.0419,-2.9561,-2.9019,-2.8567,-2.8215,-2.7411,-2.7026,-2.7012,-2.6852,-2.6866,-2.7012,-2.6852,-2.6806,-2.6806,-2.6806,-2.6806,-2.6806,-2.6806,-2.6539,-2.6163,-2.5961,-2.5688,-2.5341,0.0,0.0,0.0,0.0,0.0,0.0,0.0,0.0,0.0,0.0,0.0,0.0,0.0,0.0,0.0,0.0,0.0,0.0,0.0,0.0,0.0,0.0,0.0,0.0,0.0,0.0,0.0,0.0,0.0,0.0,0.0,0.0,0.0,0.0,0.0,0.0,0.0,0.0,0.0,0.0,0.0,0.0,0.0,0.0,0.0,0.0,0.0,0.0,0.0,0.0,0.0,-1.6861,-1.6599,-1.6892,-1.7226,-1.6791,0.0,-1.692,-1.692,-1.6712,-1.6633,-1.7176,-1.7727,-1.8522,-1.9842,-2.045,-2.1016,-2.2005,-2.2067,0.0,0.0,0.0,0.0,0.0,0.0,0.0,-2.855,-2.81,-2.7825,0.0,-2.8409,0.0,-2.9782,-3.0548,-3.143,0.0,-3.3395,-3.3806,-3.3507,-3.2584,-3.169,-3.0861,-3.0394,-2.9833,-2.9124,-2.8174,-2.7756,-2.7873,-2.7137,-2.6806,-2.6806,-2.6806,-2.6806,-2.6806,-2.6806,-2.6806,-2.6806,-2.6806,-2.6806,-2.6806,-2.6806,-2.6592,-2.627,-2.5988,-2.5716,-2.5411,0.0,0.0,0.0,0.0,0.0,0.0,0.0,0.0,0.0,0.0,0.0,0.0,0.0,0.0,0.0,0.0,0.0,0.0,0.0,0.0,0.0,0.0,0.0,0.0,0.0,0.0,0.0,0.0,0.0,0.0,0.0,0.0,0.0,0.0,0.0,0.0,0.0,0.0,0.0,0.0,0.0,0.0,0.0,0.0,0.0,0.0,0.0,0.0,0.0,0.0,-1.7776,-1.7303,-1.7391,-1.7515,-1.7521,-1.7129,-1.7117,-1.7211,-1.7211,-1.7155,-1.7127,-1.7183,-1.7499,-1.7944,-1.849,-1.8643,-1.913,-2.062,0.0,-2.0899,-2.191,0.0,-2.5042,-2.5867,0.0,-2.7755,-2.8509,-2.8109,-2.7705,-2.76,-2.8002,-2.8559,-2.92,-3.0164,-3.1047,-3.1799,-3.2202,-3.2481,-3.2702,-3.1706,-3.0942,-3.0522,-2.9506,-2.8934,-2.887,-2.7617,-2.7202,-2.7565,-2.7041,-2.6806,-2.6806,-2.6806,-2.6806,-2.6806,-2.6806,-2.6806,-2.6806,-2.6806,-2.6806,-2.6806,-2.6806,-2.6618,-2.6324,-2.6029,-2.5716,-2.5341,0.0,0.0,0.0,0.0,0.0,0.0,0.0,0.0,0.0,0.0,-2.062,-2.053,0.0,0.0,0.0,0.0,0.0,0.0,0.0,0.0,0.0,0.0,0.0,0.0,0.0,0.0,0.0,0.0,0.0,0.0,0.0,0.0,0.0,0.0,0.0,0.0,0.0,0.0,0.0,0.0,0.0,0.0,0.0,0.0,0.0,0.0,0.0,0.0,0.0,0.0,-1.8016,-1.7391,-1.7966,-1.7654,-1.7119,-1.7032,-1.6881,-1.6722,-1.6722,-1.6428,-1.6257,-1.6637,-1.6786,-1.708,-1.7922,-1.8414,0.0,0.0,0.0,-2.125,-2.1572,-2.2647,0.0,-2.5727,0.0,0.0,0.0,0.0,-2.8203,0.0,0.0,0.0,0.0,0.0,0.0,0.0,-3.1175,-3.1421,-3.2636,-3.2497,-3.1797,-3.0539,-2.9042,-2.8414,-2.8729,-2.7584,-2.6983,-2.6939,-2.6837,-2.6806,-2.6806,-2.6806,-2.6806,-2.6806,-2.6806,-2.6806,-2.6806,-2.6806,-2.6806,-2.6806,-2.6806,-2.6753,-2.6633,-2.6111,-2.5633,-2.5161,0.0,0.0,0.0,0.0,0.0,0.0,0.0,-2.1132,-2.1237,-2.1524,-2.1564,-2.1367,-2.0764,-2.0699,0.0,0.0,0.0,0.0,0.0,0.0,0.0,0.0,0.0,0.0,0.0,0.0,0.0,0.0,0.0,0.0,0.0,0.0,0.0,0.0,0.0,0.0,0.0,0.0,0.0,0.0,0.0,0.0,0.0,0.0,0.0,0.0,0.0,0.0,0.0,0.0,-1.8741,-1.8202,-1.8796,-1.8537,-1.7958,-1.7517,-1.7505,-1.7534,-1.7108,-1.6988,-1.7001,-1.6956,-1.7162,-1.744,-1.7591,0.0,0.0,0.0,0.0,-2.0799,-2.1706,0.0,0.0,0.0,0.0,0.0,0.0,0.0,0.0,0.0,0.0,0.0,0.0,0.0,-3.0389,-3.0981,-3.1052,-3.1383,-3.21,-3.1769,-3.1175,-3.0375,-2.9081,-2.8448,-2.8496,-2.7433,-2.6873,-2.6806,-2.6806,-2.6806,-2.6806,-2.6806,-2.6806,-2.6806,-2.6806,-2.6806,-2.6806,-2.6806,-2.6806,-2.6806,-2.6806,-2.6806,-2.6753,-2.6285,-2.5715,-2.5091,0.0,0.0,0.0,0.0,0.0,0.0,0.0,-2.1407,-2.1538,-2.2139,-2.2205,-2.1865,-2.0962,-2.0857,-2.0818,0.0,0.0,0.0,0.0,0.0,0.0,0.0,0.0,0.0,0.0,0.0,0.0,0.0,0.0,0.0,0.0,0.0,0.0,0.0,0.0,0.0,0.0,0.0,0.0,0.0,0.0,0.0,0.0,0.0,0.0,0.0,0.0,0.0,0.0,0.0,-1.9546,-1.9101,-1.965,-1.94,-1.8744,-1.8077,-1.8344,-1.8708,-1.8014,-1.8081,-1.8293,-1.793,-1.7977,-1.8023,-1.7728,-1.7961,0.0,0.0,-1.9718,-2.06,-2.2134,0.0,0.0,0.0,0.0,0.0,0.0,0.0,0.0,0.0,0.0,0.0,0.0,0.0,0.0,-3.0506,-3.1035,-3.1432,-3.1598,-3.0903,-3.0422,-3.021,-2.9219,-2.8567,-2.8288,-2.7306,-2.6806,-2.6806,-2.6806,-2.6806,-2.6806,-2.6806,-2.6806,-2.6806,-2.6806,-2.6806,-2.6806,-2.6806,-2.6806,-2.6806,-2.6806,-2.6806,-2.6753,-2.6365,-2.5728,-2.4937,0.0,0.0,0.0,0.0,0.0,0.0,0.0,-2.1093,-2.0962,-2.1511,-2.159,-2.1551,-2.1446,-2.1433,-2.1224,0.0,0.0,0.0,0.0,0.0,0.0,0.0,0.0,0.0,0.0,0.0,0.0,0.0,0.0,0.0,0.0,0.0,0.0,0.0,0.0,0.0,0.0,0.0,0.0,0.0,0.0,0.0,0.0,0.0,0.0,0.0,0.0,0.0,0.0,0.0,0.0,-1.9737,-2.039,-1.9658,-1.853,-1.8441,0.0,0.0,-1.959,-1.9586,-1.961,-1.959,-1.8838,-1.824,-1.8747,0.0,0.0,0.0,-2.0892,-2.1629,-2.2884,-2.3242,0.0,0.0,0.0,0.0,0.0,0.0,0.0,0.0,0.0,0.0,0.0,0.0,-3.0506,-3.0506,-3.0555,-3.0886,-3.1565,-3.0903,-3.0422,-3.021,-2.9219,-2.8567,-2.8288,-2.7306,-2.6806,-2.6806,-2.6806,-2.6806,-2.6806,-2.6806,-2.6806,-2.6806,-2.6806,-2.6806,-2.6806,-2.6806,-2.6806,-2.6806,-2.6806,-2.6806,-2.6727,-2.6138,-2.5356,-2.4469,0.0,0.0,0.0,0.0,0.0,0.0,-2.142,-2.1315,-2.1498,-2.2426,-2.223,-2.2152,-2.2505,-2.2256,-2.1956,0.0,0.0,0.0,0.0,0.0,0.0,0.0,0.0,0.0,0.0,0.0,0.0,0.0,0.0,0.0,0.0,0.0,0.0,0.0,0.0,0.0,0.0,0.0,0.0,0.0,0.0,0.0,0.0,0.0,0.0,0.0,0.0,0.0,0.0,0.0,0.0,0.0,-2.0198,-1.9804,0.0,0.0,-1.9673,-2.0317,-1.9444,-1.9705,-2.0097,-1.9471,-1.9226,-1.9083,-1.9013,0.0,0.0,-2.0059,-2.0313,-2.1013,-2.2854,-2.3496,-2.4317,0.0,0.0,0.0,0.0,0.0,0.0,0.0,0.0,0.0,0.0,0.0,-3.0506,-3.0506,-3.0506,-3.0596,-3.0766,-3.0591,-3.0161,-2.9376,-2.9125,-2.8506,-2.7481,-2.7254,-2.7041,-2.6806,-2.6806,-2.6806,-2.6806,-2.6806,-2.6806,-2.6806,-2.6806,-2.6806,-2.6806,-2.6806,-2.6806,-2.6806,-2.6806,-2.6806,-2.6753,-2.6312,-2.5439,-2.4441,0.0,0.0,0.0,0.0,0.0,-2.1184,-2.1904,-2.1864,-2.2113,-2.3065,-2.2871,-2.2728,-2.2936,-2.2936,-2.2831,-2.2663,0.0,0.0,0.0,0.0,0.0,0.0,0.0,0.0,0.0,0.0,0.0,0.0,0.0,0.0,0.0,0.0,0.0,0.0,0.0,0.0,0.0,0.0,0.0,0.0,0.0,0.0,0.0,0.0,0.0,0.0,0.0,0.0,0.0,0.0,0.0,0.0,0.0,0.0,0.0,0.0,-2.0248,-2.0911,-2.0101,-2.0443,-2.0893,-2.0167,-2.0056,-1.996,0.0,0.0,0.0,-2.0502,-2.0707,-2.1458,-2.3604,-2.4352,-2.5189,0.0,0.0,0.0,0.0,0.0,0.0,0.0,0.0,0.0,0.0,-3.0621,-3.0506,-3.0506,-3.0426,-3.0359,-3.021,-3.0258,-2.9901,-2.9027,-2.907,-2.8545,-2.7389,-2.74,-2.7248,-2.6989,-2.6858,-2.6806,-2.6806,-2.6806,-2.6806,-2.6806,-2.6806,-2.6806,-2.6806,-2.6806,-2.6806,-2.6806,-2.6806,-2.6806,-2.6753,-2.6338,-2.5467,-2.4441,0.0,0.0,0.0,0.0,0.0,0.0,-2.3,-2.2714,-2.2584,-2.3145,-2.321,-2.2988,-2.2453,-2.3406,-2.3822,-2.3234,0.0,0.0,0.0,0.0,0.0,0.0,0.0,0.0,0.0,0.0,-2.0685,-2.1275,-2.0803,-2.0598,0.0,0.0,0.0,0.0,0.0,0.0,0.0,0.0,0.0,0.0,0.0,0.0,0.0,0.0,0.0,0.0,0.0,0.0,0.0,0.0,0.0,0.0,0.0,0.0,0.0,0.0,-2.072,-2.1445,-2.2176,-2.2374,-2.2388,-2.2375,-2.1515,-2.07,0.0,0.0,0.0,-2.214,-2.2816,-2.3727,-2.5546,-2.5879,-2.6421,-2.8012,0.0,0.0,0.0,0.0,0.0,0.0,0.0,0.0,-3.1664,-3.0936,-3.0506,-3.0506,-3.0316,-3.0189,-3.0189,-2.9941,-2.9722,-2.9515,-2.9113,-2.8764,-2.8487,-2.7775,-2.7401,-2.7401,-2.6989,-2.6806,-2.6806,-2.6806,-2.6806,-2.6806,-2.6806,-2.6806,-2.6806,-2.6806,-2.6806,-2.6806,-2.6806,-2.6806,-2.6727,-2.6111,-2.53,-2.4412,0.0,0.0,0.0,0.0,0.0,0.0,0.0,-2.2506,-2.2597,-2.3145,-2.2869,-2.2897,-2.3498,-2.3524,-2.3746,-2.436,0.0,0.0,0.0,0.0,0.0,0.0,0.0,0.0,0.0,0.0,-2.165,-2.1244,-2.1087,-2.0872,-2.0581,-2.0803,0.0,0.0,0.0,0.0,0.0,0.0,0.0,0.0,0.0,0.0,0.0,0.0,0.0,0.0,0.0,0.0,0.0,0.0,0.0,0.0,0.0,0.0,0.0,0.0,0.0,0.0,-2.1786,-2.2207,-2.2523,-2.2156,-2.1837,-2.1562,-2.1468,0.0,0.0,-2.2729,-2.3275,-2.4128,-2.5636,-2.5893,-2.6435,-2.8036,0.0,0.0,0.0,0.0,0.0,0.0,0.0,0.0,0.0,0.0,-3.0506,-3.0506,-3.0443,-3.0258,-2.9941,-2.9853,-2.9474,-2.8772,-2.9102,-2.883,-2.7829,-2.7774,-2.7395,-2.6703,-2.6769,-2.6573,-2.6123,-2.6123,-2.6384,-2.6765,-2.6326,-2.6384,-2.6806,-2.6806,-2.6806,-2.6806,-2.6806,-2.6553,-2.6111,-2.5619,-2.4781,-2.38,0.0,0.0,0.0,0.0,0.0,0.0,0.0,-2.3042,-2.3145,-2.3511,-2.3459,-2.3563,-2.4031,-2.4135,-2.44,-2.4953,0.0,0.0,0.0,0.0,0.0,0.0,0.0,0.0,0.0,-2.2585,-2.2267,-2.2146,-2.197,-2.1854,-2.1813,-2.1945,-2.1825,-2.1512,0.0,0.0,0.0,0.0,0.0,0.0,0.0,0.0,-2.4663,0.0,0.0,0.0,0.0,0.0,0.0,0.0,0.0,0.0,0.0,0.0,0.0,0.0,0.0,0.0,0.0,-2.307,-2.3326,-2.2988,-2.2977,0.0,0.0,0.0,0.0,0.0,0.0,-2.5266,-2.6348,-2.6916,-2.761,-2.8805,0.0,0.0,0.0,0.0,0.0,0.0,0.0,0.0,0.0,-3.0654,-3.0485,-3.0401,-3.03,-3.007,-2.97,-2.9589,-2.9262,-2.8675,-2.9112,-2.8946,-2.8116,-2.7968,-2.7457,-2.6636,-2.6744,-2.6457,-2.5818,-2.6054,-2.6283,-2.6428,-2.6253,-2.6283,0.0,-2.6704,-2.6806,-2.6806,-2.6806,-2.642,-2.5839,-2.5384,-2.4525,-2.3518,0.0,0.0,0.0,0.0,0.0,0.0,0.0,0.0,-2.4083,-2.4083,-2.4622,-2.4796,-2.4243,-2.5127,-2.5628,-2.5162,0.0,0.0,0.0,0.0,0.0,0.0,0.0,0.0,0.0,-2.2896,-2.2758,-2.381,-2.3379,-2.3409,-2.3881,-2.3385,-2.3156,-2.3143,-2.2611,0.0,0.0,0.0,0.0,0.0,0.0,-2.6553,0.0,0.0,0.0,0.0,0.0,0.0,0.0,0.0,0.0,0.0,0.0,0.0,0.0,0.0,0.0,0.0,0.0,0.0,0.0,0.0,0.0,0.0,0.0,0.0,0.0,0.0,0.0,0.0,0.0,0.0,0.0,-3.0141,0.0,0.0,0.0,0.0,0.0,0.0,0.0,0.0,-3.1515,-3.0903,-3.0384,-3.0189,-2.9941,-2.9722,-2.9515,-2.9259,-2.9121,-2.9098,-2.9098,-2.9091,-2.9052,-2.8295,-2.7595,-2.6949,-2.6846,-2.6457,-2.5832,-2.6413,-2.6355,-2.5847,-2.6428,-2.6341,-2.5836,-2.653,-2.6806,-2.6806,-2.6753,-2.6367,-2.5784,-2.5273,-2.4439,-2.3471,0.0,0.0,0.0,0.0,0.0,0.0,0.0,0.0,0.0,0.0,-2.4622,-2.4953,-2.4809,-2.5393,-2.5942,0.0,0.0,0.0,0.0,0.0,0.0,0.0,0.0,0.0,0.0,-2.4629,-2.4615,-2.4994,-2.4881,-2.4912,-2.5007,-2.49,-2.4849,-2.4824,-2.4234,-2.4109,0.0,0.0,0.0,0.0,-2.7095,-2.7286,0.0,0.0,0.0,0.0,-2.8272,-2.8912,0.0,0.0,0.0,0.0,0.0,0.0,0.0,0.0,-2.7948,0.0,0.0,0.0,0.0,0.0,0.0,0.0,0.0,0.0,0.0,0.0,0.0,0.0,0.0,0.0,0.0,0.0,0.0,0.0,0.0,0.0,0.0,0.0,-3.2319,-3.1388,-3.0896,-3.0483,-3.0167,-2.9919,-2.9832,-2.9722,-2.9515,-2.9425,-2.9328,-2.9098,-2.9098,-2.8943,-2.8646,-2.8158,-2.7433,-2.6523,-2.6718,-2.6457,-2.5803,-2.5498,-2.5502,-2.5763,-2.5404,-2.5473,-2.5836,-2.653,-2.6806,-2.6753,-2.6286,-2.5743,-2.5133,-2.441,-2.3607,-2.2878,0.0,0.0,0.0,0.0,0.0,0.0,0.0,0.0,0.0,0.0,0.0,0.0,0.0,0.0,0.0,0.0,0.0,0.0,0.0,0.0,0.0,0.0,0.0,0.0,-2.562,-2.5406,-2.5447,-2.5775,-2.5775,-2.5871,-2.6128,-2.6128,-2.5987,-2.5749,-2.5152,-2.5271,-2.5942,-2.6404,-2.7286,-2.8424,-2.8733,0.0,0.0,0.0,0.0,0.0,-2.9554,-2.9994,0.0,-3.0176,-3.006,-3.0001,0.0,0.0,0.0,0.0,-2.9116,0.0,0.0,0.0,0.0,0.0,0.0,0.0,0.0,0.0,0.0,0.0,0.0,0.0,0.0,0.0,0.0,0.0,0.0,0.0,0.0,0.0,0.0,0.0,-3.2515,-3.1501,-3.0976,-3.0353,-2.9913,-2.9677,-2.9655,-2.956,-2.9328,-2.9328,-2.9259,-2.9098,-2.9098,-2.8912,-2.8487,-2.811,-2.7399,-2.6401,-2.636,-2.5981,-2.5342,-2.5009,-2.4878,-2.4907,-2.4839,-2.5013,-2.54,-2.6054,-2.653,-2.6727,-2.6138,-2.5536,-2.4894,-2.4092,-2.3322,-2.2678,0.0,0.0,0.0,0.0,0.0,0.0,0.0,0.0,0.0,0.0,0.0,0.0,0.0,0.0,0.0,0.0,0.0,0.0,0.0,0.0,0.0,0.0,0.0,-2.6144,-2.6348,-2.596,-2.6025,-2.6563,-2.6473,-2.6719,-2.7229,-2.7152,-2.6887,-2.6505,-2.6074,-2.6418,-2.7387,-2.7986,-2.8824,-2.9813,-3.0364,0.0,0.0,0.0,0.0,0.0,0.0,0.0,0.0,-3.0598,-3.0598,-3.0598,-3.0598,0.0,0.0,0.0,0.0,0.0,0.0,0.0,0.0,0.0,0.0,0.0,0.0,0.0,0.0,0.0,0.0,0.0,0.0,0.0,0.0,0.0,0.0,0.0,0.0,0.0,0.0,0.0,-3.271,0.0,-3.1128,-3.0276,-2.9677,-2.9448,-2.9425,-2.935,-2.9098,-2.9098,-2.9098,-2.9098,-2.9029,-2.8826,-2.8415,-2.8085,-2.7419,-2.6466,-2.5998,-2.5502,-2.4955,-2.4752,-2.4418,-2.4065,-2.4476,-2.4723,-2.4853,-2.5517,-2.6137,-2.6582,-2.5987,-2.5453,-2.4894,-2.4005,-2.3275,-2.2678,0.0,0.0,0.0,0.0,0.0,0.0,0.0,0.0,0.0,0.0,0.0,0.0,0.0,0.0,0.0,0.0,0.0,0.0,0.0,0.0,0.0,0.0,-2.7259,-2.69,-2.7431,-2.7368,-2.7633,-2.8212,-2.7727,-2.7781,-2.8346,-2.7848,-2.7692,-2.7909,-2.8049,-2.8402,-2.8864,-2.9215,-2.9782,-3.0467,-3.0569,0.0,0.0,0.0,0.0,0.0,0.0,0.0,0.0,-3.0598,-3.0598,-3.0598,-3.0598,0.0,0.0,0.0,0.0,0.0,-3.0336,0.0,0.0,0.0,0.0,0.0,0.0,0.0,0.0,0.0,0.0,0.0,0.0,0.0,0.0,0.0,0.0,0.0,0.0,0.0,0.0,-3.4012,0.0,-3.0798,-3.0169,-2.977,-2.9425,-2.9167,-2.9167,-2.9144,-2.9098,-2.9098,-2.9098,-2.9098,-2.8779,-2.8391,-2.8012,-2.7923,-2.751,-2.6724,-2.6105,-2.5734,-2.5604,-2.453,-2.4283,-2.4636,-2.4225,-2.4341,-2.4853,-2.5517,-2.5861,-2.5904,-2.5342,-2.5077,-2.4838,-2.3636,-2.2987,-2.2659,0.0,0.0,0.0,0.0,0.0,0.0,0.0,0.0,0.0,0.0,0.0,0.0,0.0,0.0,0.0,0.0,0.0,0.0,0.0,0.0,0.0,-2.8587,-2.8071,-2.7908,-2.818,-2.8193,-2.8166,-2.8112,-2.7841,-2.7841,-2.8112,-2.8356,-2.8622,-2.8965,-2.9089,-2.9351,-2.9698,-2.9819,-3.0157,-3.0598,0.0,0.0,0.0,0.0,0.0,0.0,0.0,0.0,0.0,0.0,-3.0911,-3.1234,-3.0747,0.0,0.0,0.0,0.0,0.0,-3.1306,-3.1306,0.0,0.0,0.0,0.0,0.0,0.0,0.0,0.0,0.0,0.0,0.0,0.0,0.0,0.0,0.0,0.0,0.0,-3.4652,-3.4246,0.0,-3.1888,-3.0823,-3.0325,-2.9694,-2.9236,-2.9098,-2.9098,-2.9098,-2.9098,-2.9098,-2.9006,-2.8764,-2.8598,-2.8054,-2.7105,-2.7105,-2.7,-2.6806,-2.5749,-2.5284,-2.5255,-2.3963,-2.3519,-2.3757,-2.3476,-2.3708,-2.4331,-2.4324,-2.454,-2.4836,-2.4259,-2.4016,-2.3944,-2.3251,-2.2878,-2.2647,0.0,0.0,0.0,0.0,0.0,0.0,0.0,0.0,0.0,0.0,0.0,0.0,0.0,0.0,0.0,0.0,0.0,0.0,0.0,0.0,-2.8444,-2.8587,-2.8587,-2.8587,-2.8587,-2.8587,-2.8302,-2.7705,-2.7767,-2.7861,-2.7954,-2.8809,-2.9383,-2.9741,-2.9741,-2.9896,-3.0233,-3.0233,-3.0431,-3.0747,0.0,0.0,0.0,0.0,0.0,0.0,0.0,0.0,0.0,0.0,0.0,0.0,0.0,0.0,0.0,0.0,-3.1667,-3.1908,-3.1908,-3.1908,0.0,0.0,0.0,0.0,0.0,0.0,0.0,0.0,0.0,0.0,0.0,0.0,0.0,0.0,0.0,-3.4494,-3.3705,-3.3762,-3.3514,-3.243,-3.1326,-3.0529,-3.0263,-2.9554,-2.9098,-2.9098,-2.9098,-2.9098,-2.9098,-2.9098,-2.8936,-2.8511,-2.8415,-2.7731,-2.6401,-2.6303,-2.6281,-2.6315,-2.5168,-2.4631,-2.4617,-2.3447,-2.2975,-2.3105,-2.2832,-2.3112,-2.3664,-2.3132,-2.3216,-2.364,-2.3204,-2.297,-2.2925,-2.2727,-2.2658,-2.2586,0.0,0.0,0.0,0.0,0.0,0.0,0.0,0.0,0.0,0.0,0.0,0.0,0.0,0.0,0.0,0.0,0.0,0.0,0.0,0.0,-2.8587,-2.8587,-2.8587,-2.8587,-2.8587,-2.8587,-2.8302,-2.7705,-2.8016,-2.8327,-2.8631,-2.9277,-2.9741,-3.005,-3.005,-3.0264,-3.0568,-3.0568,-3.0836,-3.1248,-3.1248,0.0,0.0,0.0,0.0,0.0,0.0,0.0,0.0,0.0,0.0,0.0,0.0,0.0,0.0,0.0,0.0,-3.1908,-3.1908,-3.1908,0.0,0.0,0.0,0.0,0.0,0.0,0.0,0.0,0.0,0.0,0.0,0.0,0.0,0.0,0.0,-3.4012,-3.4605,0.0,-3.1879,-3.1782,-3.0266,-2.9247,-2.92,-2.913,-2.9098,-2.9098,-2.9098,-2.9098,-2.9098,-2.9098,-2.8936,-2.8511,-2.8134,-2.7448,-2.6401,-2.6029,-2.5542,-2.494,-2.4283,-2.3963,-2.3949,-2.3229,-2.3244,-2.3766,-2.2719,-2.2607,-2.3122,-2.2589,-2.2378,-2.2423,-2.2459,-2.2326,-2.2147,-2.1938,-2.2103,-2.2389,0.0,0.0,0.0,0.0,0.0,0.0,0.0,0.0,0.0,0.0,0.0,0.0,0.0,0.0,0.0,0.0,0.0,0.0,0.0,0.0,-2.8587,-2.8587,-2.8587,-2.8587,-2.8587,-2.8953,-2.8668,-2.7705,-2.8047,-2.8493,-2.9021,-2.9629,-3.0111,-3.0431,-3.0732,-3.0925,-3.1043,-3.1292,-3.1508,-3.1652,-3.1652,-3.1766,0.0,0.0,0.0,0.0,0.0,0.0,0.0,0.0,0.0,0.0,0.0,0.0,0.0,0.0,0.0,-3.2753,-3.2753,-3.2753,0.0,0.0,0.0,0.0,0.0,0.0,0.0,0.0,0.0,0.0,0.0,0.0,0.0,0.0,0.0,-3.2628,-3.2015,-3.1618,-3.1062,-3.0188,-2.95,-2.9098,-2.9098,-2.9098,-2.9098,-2.9098,-2.8704,-2.8656,-2.9082,-2.8466,-2.7938,-2.7576,-2.7176,-2.6277,-2.4857,-2.4699,-2.4283,-2.3612,-2.3818,-2.3891,-2.3876,-2.3215,-2.3055,-2.3235,-2.2516,-2.2334,-2.2474,-2.1599,-2.1251,-2.1293,-2.1675,-2.2147,-2.2598,-2.2508,-2.2463,-2.2389,0.0,0.0,0.0,0.0,0.0,0.0,0.0,0.0,0.0,0.0,0.0,0.0,0.0,0.0,0.0,0.0,0.0,0.0,0.0,-2.8509,-2.8587,-2.8587,-2.8587,-2.8587,-2.8587,-2.9302,-2.9062,-2.7861,-2.831,-2.888,-2.9649,-3.0229,-3.0612,-3.0836,-3.1307,-3.1509,-3.1495,-3.1766,-3.1992,-3.2132,-3.2132,-3.2216,0.0,0.0,0.0,0.0,0.0,0.0,0.0,0.0,0.0,0.0,0.0,0.0,0.0,0.0,0.0,0.0,-3.3309,-3.3309,0.0,0.0,0.0,0.0,0.0,0.0,0.0,0.0,0.0,0.0,0.0,0.0,0.0,0.0,-3.1444,-3.1295,-3.0346,-3.0401,-3.0172,-2.9209,-2.9098,-2.9098,-2.9098,-2.9098,-2.9019,-2.8798,-2.8363,-2.8144,-2.8261,-2.7579,-2.6972,-2.652,-2.6219,-2.5363,-2.3914,-2.382,-2.3455,-2.2812,-2.3184,-2.3447,-2.3572,-2.3113,-2.2888,-2.2865,-2.2217,-2.1945,-2.1851,-2.0795,-2.0308,-2.0335,-2.0934,-2.1608,-2.2263,-2.2436,-2.2427,-2.2328,0.0,0.0,0.0,0.0,0.0,0.0,0.0,0.0,0.0,0.0,0.0,0.0,0.0,0.0,0.0,0.0,0.0,0.0,-2.8587,-2.8587,-2.8587,-2.8587,-2.8587,-2.8587,-2.8587,-2.9517,-2.9417,-2.8215,-2.8886,-2.9677,-3.0612,-3.1073,-3.1307,-3.1307,-3.1724,-3.1908,-3.1908,-3.1908,-3.2173,-3.2629,-3.2602,-3.2888,-3.3309,0.0,0.0,0.0,0.0,0.0,0.0,0.0,0.0,0.0,0.0,0.0,0.0,0.0,0.0,-3.3309,-3.3309,0.0,0.0,0.0,0.0,0.0,0.0,0.0,0.0,0.0,0.0,0.0,0.0,0.0,0.0,-3.1302,-3.0622,-3.0188,-3.0188,-2.9564,-2.9098,-2.9098,-2.9098,-2.9098,-2.9098,-2.9098,-2.8798,-2.8142,-2.8079,-2.7608,-2.6534,-2.6481,-2.6153,-2.5422,-2.5399,-2.4914,-2.3891,-2.3626,-2.3193,-2.2592,-2.2324,-2.244,-2.2888,-2.2888,-2.2888,-2.2843,-2.1837,-2.1393,-2.1296,-2.0245,-1.9734,-1.9653,-2.0198,-2.0563,-2.0872,-2.1406,-2.185,-2.2197,0.0,0.0,0.0,0.0,0.0,0.0,0.0,0.0,0.0,0.0,0.0,0.0,0.0,0.0,0.0,0.0,0.0,0.0,-2.8587,-2.8587,-2.8587,-2.8587,-2.8587,-2.8587,-2.8587,-2.9649,-3.0182,-3.0171,-2.9948,-3.0274,-3.1102,-3.1219,-3.1452,-3.1737,-3.2188,-3.2394,-3.2394,-3.2753,-3.2958,-3.3139,-3.361,-3.388,-3.3988,0.0,0.0,0.0,0.0,0.0,0.0,0.0,0.0,0.0,0.0,0.0,0.0,0.0,-3.3309,-3.3309,-3.3309,0.0,0.0,0.0,0.0,0.0,0.0,0.0,0.0,0.0,0.0,0.0,0.0,0.0,0.0,-2.984,-2.9556,-2.9414,-2.9414,-2.924,-2.9098,-2.9098,-2.9098,-2.8909,-2.8442,-2.841,-2.8005,-2.7054,-2.6533,-2.6246,-2.6137,-2.5417,-2.4927,-2.4782,-2.4481,-2.3917,-2.2979,-2.291,-2.2671,-2.2324,-2.2254,-2.237,-2.2684,-2.2301,-2.2231,-2.2347,-2.1286,-2.0845,-2.0771,-2.0105,-1.9971,-2.0289,-2.0809,-2.117,-2.1418,-2.1952,-2.2164,-2.2197,0.0,0.0,0.0,0.0,0.0,0.0,0.0,0.0,0.0,0.0,0.0,0.0,0.0,0.0,0.0,0.0,0.0,0.0,0.0,0.0,-2.8587,-2.8587,-2.8716,-2.9022,-2.9467,-3.0375,-3.1035,-3.1377,-3.0982,-3.1058,-3.1567,-3.2039,-3.2389,-3.2629,-3.3087,-3.3279,-3.3291,-3.3297,-3.3451,-3.3719,-3.413,-3.4288,-3.4288,0.0,0.0,0.0,0.0,0.0,0.0,0.0,0.0,0.0,0.0,0.0,0.0,0.0,-3.3309,-3.3309,0.0,0.0,0.0,0.0,0.0,0.0,0.0,0.0,0.0,0.0,0.0,0.0,0.0,-3.0204,0.0,-2.9225,-2.9098,-2.9098,-2.9098,-2.9098,-2.9004,-2.8719,-2.8688,-2.8374,-2.7538,-2.7453,-2.7038,-2.5986,-2.5533,-2.5197,-2.4987,-2.4358,-2.3918,-2.3751,-2.3499,-2.3094,-2.2454,-2.2347,-2.2208,-2.2044,-2.1926,-2.1935,-2.2039,-2.1817,-2.1793,-2.1888,-2.087,-2.0334,-2.0093,-1.9759,-1.9887,-2.036,-2.0902,-2.1272,-2.1572,-2.2104,-2.2278,-2.2197,0.0,0.0,0.0,0.0,0.0,0.0,0.0,0.0,0.0,0.0,0.0,0.0,0.0,0.0,0.0,0.0,0.0,0.0,0.0,0.0,-2.8766,-2.8766,-2.914,-2.986,-3.1028,-3.1586,-3.1916,-3.2055,-3.1966,-3.1936,-3.1979,-3.31,-3.3665,-3.3768,-3.4077,-3.4225,-3.4257,-3.3577,-3.3656,-3.4209,-3.4273,-3.4288,-3.4288,-3.4288,0.0,0.0,0.0,0.0,0.0,0.0,0.0,0.0,0.0,0.0,0.0,-3.3309,0.0,0.0,0.0,0.0,0.0,0.0,0.0,0.0,0.0,0.0,0.0,0.0,0.0,0.0,0.0,-3.0109,-2.988,-2.9209,-2.9098,-2.9098,-2.9098,-2.9051,-2.8783,-2.8173,-2.8009,-2.7561,-2.651,-2.6366,-2.5933,-2.4938,-2.4856,-2.443,-2.3407,-2.3341,-2.3091,-2.2615,-2.2578,-2.2417,-2.21,-2.1864,-2.1698,-2.165,-2.141,-2.124,-2.1115,-2.1372,-2.1458,-2.1361,-2.0497,-1.985,-1.9394,-1.9394,-1.9633,-2.0058,-2.0592,-2.1039,-2.1464,-2.1993,-2.2197,-2.2197,0.0,0.0,0.0,0.0,0.0,0.0,0.0,0.0,0.0,0.0,0.0,0.0,0.0,0.0,0.0,0.0,0.0,0.0,0.0,0.0,-3.0101,-3.0101,-3.0836,-3.1744,-3.2885,-3.2884,-3.3035,-3.3326,-3.2364,-3.2104,-3.2465,-3.2729,-3.3306,-3.4136,-3.3724,-3.3814,-3.4257,-3.3577,-3.3388,-3.3561,-3.4083,-3.4288,-3.4288,-3.4288,-3.4288,0.0,0.0,0.0,0.0,0.0,0.0,0.0,0.0,-3.3309,-3.3309,-3.3309,0.0,0.0,0.0,0.0,0.0,0.0,0.0,0.0,0.0,0.0,0.0,0.0,0.0,0.0,-2.9351,-2.9335,-2.9272,-2.913,-2.9098,-2.9098,-2.9098,-2.864,-2.8252,-2.811,-2.7368,-2.6561,-2.5796,-2.549,-2.4871,-2.3827,-2.3739,-2.3526,-2.3045,-2.2851,-2.2715,-2.2615,-2.2394,-2.2006,-2.1431,-2.1358,-2.1066,-2.0548,-2.0485,-2.0447,-2.0422,-2.0598,-2.0372,-1.9862,-1.9668,-1.9512,-1.9394,-1.9394,-1.9633,-2.0058,-2.0592,-2.1039,-2.1464,-2.1993,-2.2197,-2.2197,0.0,0.0,0.0,0.0,0.0,0.0,0.0,0.0,0.0,0.0,0.0,0.0,0.0,0.0,0.0,0.0,0.0,0.0,0.0,0.0,0.0,-3.1352,-3.206,-3.2825,-3.3586,-3.3788,-3.3767,-3.3505,-3.2885,0.0,0.0,0.0,0.0,-3.4273,-3.3925,-3.3972,-3.4257,-3.3577,-3.3482,-3.3814,-3.4146,-3.4288,-3.4288,-3.4288,-3.4288,-3.4257,-3.3941,0.0,0.0,0.0,0.0,0.0,0.0,0.0,-3.3309,-3.3309,0.0,0.0,0.0,0.0,0.0,0.0,0.0,0.0,0.0,0.0,0.0,0.0,0.0,-2.9643,-2.9643,-2.9643,-2.9516,-2.9161,-2.9098,-2.8988,-2.8679,-2.8316,-2.7797,-2.6951,-2.6349,-2.5614,-2.46,-2.4338,-2.3918,-2.3075,-2.3016,-2.2881,-2.2578,-2.2463,-2.2347,-2.2231,-2.1898,-2.1479,-2.1017,-2.082,-2.0535,-2.0207,-2.0207,-2.0105,-1.9926,-1.9991,-1.9708,-1.921,-1.921,-1.921,-1.921,-1.921,-1.9473,-1.9927,-2.0205,-2.0752,-2.144,-2.1716,-2.1969,-2.2197,0.0,0.0,0.0,0.0,0.0,0.0,0.0,0.0,0.0,0.0,0.0,0.0,0.0,0.0,0.0,0.0,0.0,0.0,0.0,0.0,0.0,0.0,-3.3081,-3.3574,-3.397,-3.4359,-3.4185,-3.3467,0.0,0.0,0.0,0.0,0.0,-3.4288,0.0,0.0,0.0,0.0,0.0,0.0,-3.4222,-3.4195,-3.4142,-3.4222,-3.4195,-3.4067,-3.3625,-3.3751,-3.4051,-3.3625,0.0,0.0,0.0,0.0,-3.3309,0.0,0.0,0.0,0.0,0.0,0.0,0.0,0.0,0.0,0.0,0.0,0.0,0.0,0.0,-3.0346,-3.022,-3.0204,-2.9959,-2.9225,-2.9098,-2.8861,-2.8189,-2.7939,-2.7256,-2.5678,-2.5302,-2.4673,-2.3466,-2.3312,-2.3068,-2.2578,-2.2532,-2.2417,-2.2208,-2.2161,-2.1996,-2.1698,-2.1334,-2.0968,-2.061,-2.0271,-2.0054,-1.9991,-1.9991,-1.9823,-1.9512,-1.9512,-1.9303,-1.8987,-1.8987,-1.8987,-1.8987,-1.8987,-1.9338,-1.982,-1.9904,-2.0555,-2.1416,-2.15,-2.1813,-2.2197,0.0,0.0,0.0,0.0,0.0,0.0,0.0,0.0,0.0,0.0,0.0,0.0,0.0,0.0,0.0,0.0,0.0,0.0,0.0,0.0,0.0,0.0,-3.3942,-3.4351,-3.5152,-3.4632,-3.4281,-3.4162,0.0,0.0,0.0,0.0,0.0,-3.4257,0.0,0.0,0.0,0.0,0.0,0.0,0.0,-3.3864,-3.3488,-3.3967,-3.3838,-3.3498,-3.3988,-3.3846,-3.3514,-3.3988,-3.3783,0.0,0.0,0.0,-3.3309,0.0,0.0,0.0,0.0,0.0,0.0,0.0,0.0,0.0,0.0,0.0,0.0,0.0,-3.1981,-3.0891,-3.0315,-3.0204,-2.9959,-2.9225,-2.9098,-2.8861,-2.8189,-2.7299,-2.6408,-2.561,-2.4407,-2.3532,-2.3172,-2.2881,-2.2578,-2.2278,-2.2254,-2.2254,-2.2208,-2.1996,-2.1674,-2.1286,-2.0993,-2.0497,-1.9759,-1.972,-1.9512,-1.9146,-1.9146,-1.9119,-1.9093,-1.9093,-1.904,-1.8987,-1.8987,-1.8987,-1.8987,-1.8987,-1.9338,-1.9856,-2.0314,-2.0851,-2.1464,-2.1921,-2.2125,-2.2197,0.0,0.0,0.0,0.0,0.0,0.0,0.0,0.0,0.0,0.0,0.0,0.0,0.0,0.0,0.0,0.0,0.0,0.0,0.0,0.0,0.0,0.0,-3.4113,-3.4309,-3.4762,-3.4462,-3.4115,0.0,0.0,0.0,0.0,-3.3309,-3.3467,0.0,0.0,0.0,0.0,0.0,0.0,0.0,0.0,0.0,0.0,-3.3555,-3.3503,-3.334,-3.3625,-3.3546,-3.3356,-3.364,-3.3546,-3.3309,-3.3309,0.0,0.0,0.0,0.0,0.0,0.0,0.0,0.0,0.0,0.0,0.0,0.0,0.0,0.0,0.0,-3.2819,-3.206,-3.097,-3.0765,-3.0401,-2.9288,-2.9098,-2.8793,-2.7887,-2.7027,-2.6041,-2.4799,-2.3807,-2.3068,-2.2632,-2.2463,-2.2254,-2.1996,-2.1996,-2.1817,-2.1444,-2.1299,-2.1055,-2.066,-2.0308,-1.9952,-1.9617,-1.9382,-1.9172,-1.8987,-1.8987,-1.8987,-1.8987,-1.8987,-1.8987,-1.8987,-1.8987,-1.8987,-1.8987,-1.8987,-1.9158,-1.9423,-1.9953,-2.0466,-2.1031,-2.1548,-2.1945,-2.2197,0.0,0.0,0.0,0.0,0.0,0.0,0.0,0.0,0.0,0.0,0.0,0.0,0.0,0.0,0.0,0.0,0.0,0.0,0.0,0.0,0.0,0.0,0.0,-3.3943,-3.4036,-3.4036,0.0,0.0,0.0,0.0,-3.3309,-3.3309,-3.3309,0.0,-3.3309,0.0,0.0,0.0,0.0,0.0,0.0,0.0,0.0,0.0,-3.3513,-3.3309,-3.3309,-3.3309,-3.3309,-3.3309,-3.3309,-3.3309,-3.3309,-3.3309,0.0,0.0,0.0,0.0,0.0,0.0,0.0,0.0,0.0,0.0,0.0,0.0,0.0,0.0,-3.3309,-3.2929,-3.1697,-3.1492,-3.1081,-2.9825,-2.9407,-2.8858,-2.7798,-2.6911,-2.5765,-2.4098,-2.3548,-2.3014,-2.2189,-2.2254,-2.215,-2.1736,-2.1602,-2.1323,-2.0833,-2.0709,-2.0459,-2.0042,-1.9772,-1.9565,-1.946,-1.9146,-1.8987,-1.8987,-1.8987,-1.8987,-1.8987,-1.8987,-1.8987,-1.8987,-1.8987,-1.8987,-1.8987,-1.8987,-1.8987,-1.9086,-1.9748,-2.0237,-2.0665,-2.1356,-2.1861,-2.2197,0.0,0.0,0.0,0.0,0.0,0.0,0.0,0.0,0.0,0.0,0.0,0.0,0.0,0.0,0.0,0.0,0.0,0.0,0.0,0.0,0.0,0.0,0.0,0.0,0.0,0.0,0.0,0.0,0.0,0.0,-3.3309,-3.3309,-3.3309,-3.3309,-3.3309,-3.3309,-3.3309,0.0,0.0,0.0,0.0,0.0,0.0,0.0,0.0,-3.3309,-3.3309,-3.3309,-3.3309,-3.3309,-3.3309,-3.3309,-3.3309,-3.3309,-3.3309,0.0,0.0,0.0,0.0,0.0,0.0,0.0,0.0,0.0,0.0,0.0,0.0,0.0,-3.3309,-3.3072,-3.237,-3.2228,-3.1991,-3.1223,-3.0241,-2.9212,-2.822,-2.6882,-2.5443,-2.3812,-2.3812,-2.3392,-2.1965,-2.2342,-2.2317,-2.1488,-2.108,-2.0833,-2.0795,-2.0447,-2.0054,-1.963,-1.9617,-1.9434,-1.904,-1.9013,-1.8987,-1.8987,-1.8987,-1.8987,-1.8987,-1.8987,-1.8987,-1.8987,-1.8987,-1.8987,-1.8987,-1.8987,-1.8987,-1.9095,-2.0157,-2.0591,-2.0742,-2.1777,-2.2173,-2.2197,0.0,0.0,0.0,0.0,0.0,0.0,0.0,0.0,0.0,0.0,0.0,0.0,0.0,-3.2392,-3.2621,-3.3005,-3.315,0.0,0.0,0.0,0.0,0.0,0.0,0.0,0.0,0.0,0.0,0.0,0.0,-3.3309,-3.3309,-3.3309,-3.3309,-3.3309,-3.3309,-3.3309,-3.3309,-3.3309,0.0,0.0,0.0,0.0,0.0,0.0,0.0,-3.3309,-3.3309,-3.3309,-3.3309,-3.3309,-3.3309,-3.3309,-3.3309,-3.3309,-3.3309,0.0,0.0,0.0,0.0,0.0,0.0,0.0,0.0,0.0,0.0,0.0,0.0,-3.3176,-3.3176,-3.2949,-3.218,-3.2086,-3.1726,-3.0608,-3.0043,-2.9247,-2.7841,-2.7181,-2.6334,-2.4982,-2.4867,-2.4624,-2.3917,-2.37,-2.335,-2.2724,-2.2194,-2.1511,-2.0588,-2.0417,-2.0003,-1.9237,-1.9225,-1.9146,-1.8987,-1.8987,-1.8987,-1.8987,-1.8987,-1.8987,-1.8987,-1.8987,-1.8987,-1.8987,-1.8987,-1.8987,-1.8987,-1.8987,-1.9191,-1.9603,-2.031,-2.0815,-2.1211,-2.1921,-2.2197,-2.2197,0.0,0.0,0.0,0.0,0.0,0.0,0.0,0.0,0.0,-3.2775,0.0,0.0,0.0,0.0,-3.3032,-3.315,-3.3256,-3.3309,-3.3309,0.0,0.0,0.0,0.0,0.0,0.0,0.0,0.0,0.0,0.0,0.0,0.0,-3.3309,-3.3309,-3.3309,-3.353,-3.3514,0.0,0.0,0.0,-3.4075,0.0,0.0,-3.405,0.0,0.0,-3.3309,-3.3309,-3.3309,-3.3324,-3.3561,-3.3482,-3.334,-3.3561,-3.3482,-3.3309,0.0,0.0,0.0,0.0,0.0,0.0,0.0,0.0,0.0,0.0,0.0,0.0,-3.3123,-3.3043,-3.2812,-3.2031,-3.19,-3.1563,-3.0492,-2.9924,-2.9228,-2.8067,-2.7527,-2.6877,-2.5769,-2.5751,-2.5653,-2.5074,-2.4499,-2.3954,-2.3448,-2.2564,-2.1586,-2.0449,-2.0261,-1.9826,-1.9037,-1.8987,-1.8987,-1.8987,-1.8987,-1.8987,-1.8987,-1.8987,-1.8987,-1.8987,-1.8987,-1.8987,-1.8987,-1.8987,-1.8987,-1.8987,-1.8987,-1.9338,-1.9856,-2.0382,-2.0935,-2.1464,-2.1993,-2.2197,-2.2197,0.0,0.0,0.0,0.0,0.0,0.0,0.0,0.0,0.0,-3.3661,0.0,0.0,0.0,0.0,0.0,-3.3293,-3.3309,-3.3309,-3.3351,-3.334,0.0,0.0,0.0,0.0,0.0,0.0,0.0,0.0,0.0,0.0,0.0,0.0,-3.3356,0.0,-3.4036,-3.3957,-3.3324,0.0,-3.3664,-3.4126,0.0,-3.4133,-3.4126,0.0,0.0,0.0,-3.3309,-3.3309,-3.3403,-3.4051,-3.383,-3.3419,0.0,0.0,0.0,0.0,0.0,0.0,0.0,0.0,0.0,0.0,0.0,0.0,0.0,0.0,0.0,-3.3101,-3.2966,-3.2648,-3.1946,-3.1721,-3.1463,-3.0925,-2.9958,-2.92,-2.8905,-2.7919,-2.6935,-2.6052,-2.6497,-2.6386,-2.5222,-2.4645,-2.4134,-2.3525,-2.2099,-2.1042,-2.0444,-2.004,-1.9567,-1.9011,-1.8987,-1.8987,-1.8987,-1.8987,-1.8987,-1.8987,-1.8987,-1.8987,-1.8987,-1.8987,-1.8987,-1.8987,-1.8987,-1.8987,-1.8987,-1.9011,-1.9351,-1.988,-2.041,-2.0964,-2.1488,-2.2005,-2.2197,-2.2197,0.0,0.0,0.0,0.0,0.0,0.0,0.0,0.0,-3.3089,0.0,0.0,0.0,-3.3101,-3.3176,-3.344,-3.3848,-3.3529,-3.3657,-3.4539,-3.4245,-3.402,-3.402,-3.402,0.0,0.0,0.0,0.0,0.0,0.0,0.0,0.0,0.0,0.0,0.0,-3.4999,-3.4683,-3.4051,-3.4589,0.0,-3.4643,-3.493,-3.4878,0.0,0.0,0.0,0.0,-3.3309,-3.3309,-3.3324,-3.3514,-3.3451,-3.3324,-3.3514,0.0,0.0,0.0,0.0,0.0,-3.3309,0.0,0.0,0.0,0.0,0.0,0.0,0.0,0.0,-3.2936,-3.2412,-3.165,-3.0392,-3.0135,-2.9905,-2.9314,-2.9347,-2.9111,-2.8167,-2.8142,-2.7962,-2.7271,-2.7732,-2.7963,-2.7637,-2.6725,-2.58,-2.4905,-2.37,-2.2443,-2.117,-2.0286,-1.9567,-1.9011,-1.8987,-1.8987,-1.8987,-1.8987,-1.8987,-1.8987,-1.8987,-1.8987,-1.8987,-1.8987,-1.8987,-1.8987,-1.8987,-1.8987,-1.9023,-1.9435,-1.9904,-2.0434,-2.0988,-2.15,-2.1993,-2.2137,-2.2197,-2.2197,0.0,0.0,0.0,0.0,0.0,0.0,0.0,0.0,-3.2978,0.0,0.0,0.0,-3.3477,-3.3755,-3.4043,-3.4366,-3.4093,-3.4205,-3.4938,-3.4504,-3.4207,-3.4207,-3.4265,-3.4115,0.0,0.0,0.0,0.0,0.0,0.0,0.0,0.0,0.0,0.0,0.0,0.0,0.0,0.0,0.0,0.0,-3.4925,0.0,0.0,-3.4159,-3.364,0.0,0.0,-3.3309,-3.334,-3.3625,-3.3719,-3.3719,-3.3719,0.0,0.0,0.0,0.0,0.0,0.0,0.0,0.0,0.0,0.0,0.0,-3.3979,-3.3715,-3.329,-3.2122,-3.15,-3.0852,-2.9721,-2.9504,-2.93,-2.8716,-2.8912,-2.887,-2.8175,-2.837,-2.8465,-2.8125,-2.8383,-2.8522,-2.8281,-2.7261,-2.6188,-2.5141,-2.4027,-2.2823,-2.1464,-2.037,-1.9664,-1.9324,-1.9107,-1.8987,-1.8987,-1.8987,-1.8987,-1.8987,-1.8987,-1.8987,-1.8987,-1.8987,-1.8987,-1.8987,-1.8987,-1.9119,-1.9387,-1.9916,-2.0326,-2.0651,-2.1187,-2.1728,-2.2197,-2.2197,-2.2197,-2.2197,0.0,0.0,0.0,0.0,0.0,0.0,0.0,0.0,-3.3203,0.0,-3.3346,-3.3642,-3.4109,-3.4545,-3.4816,-3.4887,-3.4816,-3.4866,-3.498,-3.4505,-3.4214,-3.4214,-3.4346,-3.4336,0.0,0.0,0.0,0.0,0.0,0.0,0.0,0.0,0.0,0.0,0.0,0.0,0.0,0.0,0.0,-3.5094,-3.4711,-3.4766,0.0,0.0,-3.3372,-3.3309,-3.3309,-3.3309,-3.3388,-3.3988,-3.4225,-3.4288,-3.4288,-3.3941,0.0,0.0,-3.3893,0.0,0.0,0.0,0.0,0.0,-3.4462,0.0,-3.2865,-3.2719,-3.2583,-3.1085,-3.0625,-3.0264,-2.9532,-2.9393,-2.9219,-2.8683,-2.8587,-2.8587,-2.8587,-2.8587,-2.8587,-2.8587,-2.8587,-2.8425,-2.7954,-2.6908,-2.583,-2.4768,-2.3562,-2.2462,-2.1452,-2.043,-1.9868,-1.9808,-1.9263,-1.8987,-1.8987,-1.8987,-1.8987,-1.8987,-1.8987,-1.8987,-1.8987,-1.8987,-1.8987,-1.8987,-1.8987,-1.9287,-1.9844,-2.0374,-2.0639,-2.0747,-2.1272,-2.1777,-2.2197,-2.2197,-2.2197,-2.2197,0.0,0.0,0.0,0.0,0.0,0.0,0.0,0.0,0.0,-3.3899,-3.4267,-3.4545,-3.4642,-3.4761,-3.4958,-3.5413,-3.5045,-3.5207,-3.6185,-3.5399,-3.491,-3.491,-3.5079,-3.4636,-3.3514,0.0,0.0,0.0,0.0,0.0,0.0,0.0,0.0,0.0,0.0,0.0,0.0,0.0,0.0,-3.5387,-3.5818,0.0,-3.5027,-3.4345,-3.3767,-3.3309,-3.3309,-3.3309,-3.3324,-3.3451,-3.3846,-3.4288,-3.4288,-3.4604,-3.4857,-3.4273,0.0,0.0,0.0,0.0,-3.5315,-3.5047,-3.5189,0.0,-3.4499,-3.3985,-3.3186,-3.1647,-3.0835,-3.0073,-2.8977,-2.8766,-2.8734,-2.8619,-2.8587,-2.8587,-2.8587,-2.8587,-2.8587,-2.8587,-2.8587,-2.8554,-2.8457,-2.7472,-2.6383,-2.5339,-2.3441,-2.2077,-2.144,-2.0808,-2.0254,-1.982,-1.9263,-1.8987,-1.8987,-1.8987,-1.8987,-1.8987,-1.8987,-1.8987,-1.8987,-1.8987,-1.8987,-1.8987,-1.8987,-1.9287,-1.9844,-2.0374,-2.0856,-2.1296,-2.1825,-2.2101,-2.2197,-2.2197,-2.2197,-2.2197,0.0,0.0,0.0,0.0,0.0,0.0,0.0,0.0,0.0,-3.4101,-3.4738,-3.5207,-3.5207,-3.5397,-3.5661,-3.5941,-3.5705,-3.5813,-3.6427,-3.5767,-3.5242,-3.4972,-3.5465,-3.5307,-3.4367,0.0,0.0,0.0,0.0,0.0,0.0,0.0,0.0,0.0,0.0,0.0,0.0,0.0,-3.5394,-3.5426,-3.5774,0.0,-3.5639,-3.4666,-3.432,-3.4257,-3.3546,-3.3309,-3.3419,-3.4115,-3.4099,-3.3925,-3.462,-3.462,-3.4352,-3.4304,-3.481,-3.5315,0.0,-3.5363,-3.5821,-3.5473,-3.5591,0.0,0.0,-3.3364,-3.259,-3.0107,-2.9541,-2.9316,-2.8706,-2.8831,-2.9034,-2.9034,-2.9034,-2.8926,-2.8627,-2.8587,-2.8587,-2.8587,-2.836,-2.8085,-2.7822,-2.7074,-2.6043,-2.4708,-2.3379,-2.2354,-2.1825,-2.1284,-2.0742,-2.0213,-1.9672,-1.9263,-1.8987,-1.8987,-1.8987,-1.8987,-1.8987,-1.8987,-1.8987,-1.8987,-1.8987,-1.8999,-1.9263,-1.9696,-2.0237,-2.0767,-2.1308,-2.1825,-2.2089,-2.2197,-2.2197,-2.2197,-2.2197,-2.2202,0.0,0.0,0.0,0.0,0.0,0.0,0.0,0.0,0.0,0.0,-3.523,-3.5727,-3.5727,-3.6071,-3.6301,-3.6301,-3.6301,-3.6301,-3.6301,-3.5876,-3.5413,-3.4958,-3.5566,-3.5664,-3.5149,-3.6542,0.0,0.0,0.0,0.0,0.0,0.0,0.0,0.0,0.0,0.0,0.0,0.0,0.0,-3.5394,0.0,-3.5932,-3.625,-3.4984,-3.4778,-3.5015,-3.3751,-3.3309,-3.3467,-3.4604,-3.432,-3.3688,-3.4826,-3.451,0.0,-3.4178,-3.4905,-3.5552,-3.5426,-3.5909,-3.6308,-3.5616,-3.5723,-3.5302,0.0,0.0,0.0,-2.8839,0.0,0.0,0.0,0.0,0.0,-2.919,0.0,0.0,0.0,-2.8519,-2.8587,-2.8587,-2.8118,-2.7643,-2.7209,-2.6463,-2.5435,-2.3911,-2.3312,-2.2782,-2.2221,-2.1692,-2.1211,-2.0779,-2.0225,-1.97,-1.9143,-1.9143,-1.9095,-1.8987,-1.8987,-1.8987,-1.8987,-1.8987,-1.8987,-1.9023,-1.9579,-2.0093,-2.0629,-2.1187,-2.1716,-2.2197,-2.2197,-2.2197,-2.2197,-2.2197,-2.2258,-2.2371,-3.3123,-3.3203,0.0,0.0,0.0,0.0,0.0,0.0,0.0,0.0,0.0,0.0,0.0,0.0,0.0,0.0,0.0,-3.6301,-3.6301,-3.5876,-3.5571,-3.5504,0.0,-3.4907,-3.4258,-3.5757,0.0,0.0,0.0,0.0,0.0,0.0,0.0,0.0,-3.6345,0.0,0.0,0.0,-3.5394,0.0,-3.6058,-3.6329,0.0,-3.5568,-3.4905,-3.432,-3.3577,-3.3309,-3.3324,-3.3482,-3.383,-3.4209,-3.4367,-3.4747,-3.5047,-3.4462,0.0,0.0,-3.5552,-3.6023,-3.6506,-3.5823,-3.5338,-3.468,-3.3231,0.0,-3.2445,-3.05,0.0,0.0,0.0,0.0,0.0,-2.799,-2.8343,-2.8478,-2.7895,-2.8261,-2.8587,-2.8587,-2.8118,-2.7776,-2.7709,-2.6345,-2.5028,-2.3875,-2.3312,-2.2782,-2.2221,-2.1692,-2.138,-2.132,-2.0795,-2.0254,-1.9724,-1.9724,-1.9483,-1.8987,-1.8987,-1.8987,-1.8987,-1.8987,-1.8987,-1.9023,-1.9579,-2.0093,-2.0629,-2.1187,-2.1716,-2.2197,-2.2197,-2.2197,-2.2197,-2.2197,-2.2486,-2.2863,-3.3229,-3.3256,0.0,0.0,0.0,0.0,0.0,0.0,0.0,0.0,0.0,0.0,0.0,0.0,0.0,0.0,0.0,-3.6301,-3.6301,-3.6131,-3.5881,0.0,0.0,0.0,0.0,-3.5418,-3.5537,0.0,-3.5537,0.0,0.0,0.0,0.0,0.0,-3.5995,0.0,-3.5363,0.0,-3.4747,0.0,0.0,0.0,0.0,-3.5947,-3.5284,-3.4257,-3.3972,-3.3625,-3.3356,-3.3751,-3.3814,-3.3783,-3.4162,-3.4241,0.0,-3.4273,0.0,0.0,-3.4948,-3.5066,-3.5156,-3.5263,-3.4775,-3.4013,-3.3106,-3.2367,-3.1354,-2.9509,0.0,0.0,0.0,0.0,0.0,0.0,-2.894,-2.8899,-2.8302,0.0,-2.8587,-2.8587,-2.8118,-2.7446,-2.6478,-2.5754,-2.4689,-2.3171,-2.3081,-2.2663,-2.1659,-2.1587,-2.1419,-2.1122,-2.0884,-2.0449,-1.982,-1.9614,-1.9325,-1.8987,-1.8987,-1.8987,-1.8987,-1.8987,-1.9155,-1.948,-2.0037,-2.0562,-2.1115,-2.1644,-2.1993,-2.2197,-2.2197,-2.2197,-2.2234,-2.2534,-2.2659,-2.2696,0.0,0.0,0.0,0.0,0.0,0.0,0.0,0.0,0.0,0.0,0.0,0.0,-3.6301,-3.6301,0.0,0.0,-3.6301,-3.6301,-3.6301,-3.6301,-3.6135,0.0,0.0,0.0,0.0,0.0,-3.4999,0.0,0.0,0.0,0.0,0.0,0.0,0.0,0.0,-3.5679,-3.5631,0.0,-3.4462,-3.4352,-3.5094,-3.5394,-3.5426,-3.5726,-3.5189,-3.4241,-3.3862,-3.3435,-3.3056,-3.3356,-3.3135,-3.2819,-3.3293,-3.3119,-3.2866,0.0,0.0,0.0,-3.4255,-3.4113,-3.394,-3.4424,-3.3968,-3.3254,-3.2567,-3.1774,-3.0669,-2.8906,-2.9067,0.0,0.0,0.0,-2.9713,-2.9089,0.0,-2.9021,-2.8438,-2.8492,-2.8587,-2.8587,-2.7987,-2.7041,-2.574,-2.5432,-2.4584,-2.2813,-2.3003,-2.2624,-2.1279,-2.1443,-2.1393,-2.0988,-2.1068,-2.0783,-2.0112,-1.9942,-1.9666,-1.923,-1.923,-1.9131,-1.8999,-1.9143,-1.9447,-1.9844,-2.0531,-2.1031,-2.144,-2.1969,-2.2197,-2.2197,-2.2092,-2.2145,-2.2293,-2.2707,-2.2758,-2.2746,-3.3846,-3.3909,0.0,0.0,0.0,0.0,0.0,0.0,0.0,0.0,0.0,0.0,0.0,0.0,0.0,0.0,0.0,-3.6301,-3.6301,0.0,-3.6301,0.0,0.0,-3.4842,0.0,0.0,0.0,0.0,0.0,0.0,0.0,0.0,0.0,0.0,0.0,-3.6361,-3.6314,-3.5647,-3.4936,-3.4352,-3.5094,-3.5394,-3.5315,-3.462,-3.4336,-3.4115,-3.2829,-3.2339,-3.2228,-3.1539,-3.1277,-3.1261,-3.1277,-3.1277,-3.1413,-3.2149,-3.2483,-3.2788,-3.3529,-3.3528,-3.3331,-3.3346,-3.2956,-3.2352,-3.1608,-3.1429,-3.102,-2.9717,-2.9488,-2.9339,-2.8695,-2.8627,-2.8451,-2.7868,-2.8248,0.0,0.0,-2.8234,-2.8587,-2.8587,-2.7676,-2.679,-2.623,-2.5652,-2.4693,-2.3295,-2.3203,-2.2624,-2.1279,-2.1221,-2.1221,-2.1198,-2.1502,-2.14,-2.087,-2.1194,-2.0815,-1.9784,-1.9784,-1.9519,-1.9011,-1.9543,-1.9784,-1.9868,-2.0911,-2.1392,-2.144,-2.1969,-2.2197,-2.2154,-2.1851,-2.2,-2.2383,-2.2394,-2.2805,-2.3326,0.0,0.0,0.0,0.0,0.0,0.0,0.0,-3.6216,0.0,0.0,-3.6301,0.0,0.0,-3.6301,-3.6301,0.0,0.0,-3.6301,-3.6301,-3.6301,0.0,-3.5854,-3.5168,-3.4642,0.0,0.0,0.0,0.0,0.0,0.0,0.0,0.0,0.0,0.0,0.0,-3.5015,0.0,0.0,0.0,0.0,0.0,-3.3735,-3.3382,-3.3561,-3.364,-3.3467,-3.2076,-3.1571,-3.1523,-3.1286,-3.1198,-3.1198,-3.1198,-3.1198,-3.1205,-3.1174,-3.1,-3.0899,-3.1336,-3.1172,-3.0996,-3.1613,-3.1339,-3.0885,-3.0809,-3.0308,-2.9748,-2.9316,-2.9362,-2.9339,-2.8695,-2.8912,-2.898,-2.8383,-2.8465,-2.8519,0.0,-2.8465,-2.8587,-2.8587,-2.7643,0.0,-2.5756,-2.5127,-2.4099,-2.2459,-2.2344,-2.1793,-2.053,-2.0679,-2.0924,-2.119,-2.1316,-2.1323,-2.1242,-2.111,-2.0634,-1.9808,-2.0153,-2.0045,-1.9567,-2.0081,-2.0526,-2.0875,-2.1247,-2.1596,-2.1945,-2.1885,-2.1851,-2.1855,-2.1859,-2.1962,-2.2241,-2.2522,-2.2777,-2.2992,-3.5057,0.0,0.0,0.0,0.0,0.0,0.0,0.0,0.0,0.0,-3.6301,0.0,-3.6301,0.0,-3.6301,0.0,-3.6301,-3.6237,-3.6049,-3.6049,0.0,-3.5345,-3.4833,-3.4415,0.0,0.0,0.0,0.0,0.0,-3.3419,0.0,0.0,0.0,0.0,0.0,0.0,-3.3925,0.0,-3.3514,0.0,0.0,-3.304,0.0,-3.2582,-3.2566,-3.2408,-3.127,-3.0844,-3.0812,-3.0535,-3.044,-3.0432,-3.0279,-3.023,-3.0203,-3.0062,-2.9698,-2.944,-2.9858,-2.978,-2.9725,-3.0201,-3.0225,-3.0088,-3.0017,-2.9521,-2.9067,-2.894,-2.9062,-2.9048,-2.8655,-2.8912,-2.9034,-2.8655,-2.8587,-2.8587,0.0,-2.8587,-2.8457,-2.8085,-2.7592,0.0,0.0,-2.5303,-2.4242,-2.2271,-2.2153,-2.1628,-2.0368,-2.0356,-2.0614,-2.0967,-2.1126,-2.1292,-2.1486,-2.1414,-2.1045,-2.0386,-2.0879,-2.0844,-2.0348,-2.088,-2.1319,-2.166,-2.1687,-2.1873,-2.2154,-2.1851,-2.1683,-2.171,-2.1732,-2.1868,-2.2136,-2.257,-2.2802,-2.2877,0.0,0.0,0.0,0.0,-3.6301,0.0,0.0,0.0,-3.6301,0.0,-3.6301,-3.6301,-3.6301,-3.6266,-3.6266,-3.6301,-3.6266,-3.6079,-3.5661,-3.5616,0.0,0.0,-3.4341,-3.4101,-3.405,0.0,0.0,0.0,0.0,0.0,0.0,0.0,0.0,0.0,-3.4936,0.0,-3.3293,-3.3988,-3.3909,-3.3309,-3.3309,-3.3261,-3.3056,-3.1713,-3.1151,-3.0993,-3.037,-3.0157,-3.0046,-2.9335,-2.9091,-2.9006,-2.8622,-2.8487,-2.853,-2.8844,-2.8591,-2.8411,-2.9109,-2.9413,-2.9421,-2.9112,-2.9522,-2.9853,-2.9184,-2.904,-2.8972,-2.8651,-2.8587,-2.8587,-2.8587,-2.8573,-2.856,-2.8587,-2.8587,-2.8587,-2.8587,-2.8587,-2.8203,-2.7136,-2.7456,0.0,0.0,-2.6042,-2.5015,-2.2683,-2.2598,-2.2046,0.0,-2.0314,-2.0325,-2.0637,-2.1001,-2.1383,-2.1761,-2.2061,-2.1951,-2.1434,-2.1942,-2.1889,-2.135,-2.1927,-2.2176,-2.2155,-2.2201,-2.2228,-2.2185,-2.1788,-2.1651,-2.1616,-2.146,-2.1722,-2.2214,-2.2659,-2.29,-2.3001,-3.5663,-3.6042,-3.6301,0.0,-3.6301,-3.6301,0.0,0.0,0.0,0.0,-3.6301,-3.6301,-3.6301,-3.5801,-3.5697,-3.6249,-3.5801,0.0,0.0,0.0,0.0,-3.4816,-3.4341,-3.3899,-3.3503,-3.3372,-3.3309,-3.3309,0.0,0.0,-3.2813,0.0,0.0,0.0,0.0,0.0,-3.2639,-3.3783,-3.3909,-3.3309,-3.3309,-3.2677,-3.1688,-3.1324,-3.0551,-2.9619,-2.943,-2.9367,-2.9351,-2.9161,-2.8897,-2.8646,-2.8535,-2.828,-2.8033,-2.786,-2.7742,-2.7695,-2.804,-2.8168,-2.8178,-2.808,-2.8526,-2.8839,-2.8204,-2.8402,-2.8683,-2.8619,-2.8587,-2.8587,-2.8587,-2.8234,-2.8085,-2.8519,-2.8587,-2.8587,-2.8587,-2.8587,-2.8185,-2.713,-2.7113,-2.6755,-2.5642,-2.4822,-2.3897,-2.2737,-2.2304,-2.1572,-2.0303,-2.0861,-2.1307,-2.1578,-2.1426,-2.1765,-2.2679,-2.2447,-2.2207,-2.1918,-2.2816,-2.2744,-2.191,-2.2812,-2.3018,-2.2698,-2.2457,-2.2365,-2.2261,-2.1305,-2.0892,-2.0918,-2.1374,-2.205,-2.2787,-2.2919,-2.2966,-2.3001,-3.5732,0.0,0.0,-3.6197,0.0,0.0,-3.6197,-3.6301,0.0,-3.6301,-3.6025,0.0,-3.5818,-3.5145,-3.4887,-3.5301,-3.4956,0.0,-3.4997,0.0,0.0,-3.3569,-3.3559,-3.3356,-3.2876,-3.285,0.0,-3.3309,0.0,0.0,-3.2291,0.0,0.0,0.0,0.0,-3.2455,0.0,-3.3277,-3.364,-3.3309,-3.3309,-3.2645,0.0,-3.1334,-3.0422,-2.9288,-2.8959,-2.8943,-2.9075,-2.8897,-2.8693,-2.8439,-2.8116,-2.7845,-2.761,-2.7233,-2.7144,-2.7166,-2.7268,-2.7492,-2.7645,-2.7385,-2.7761,-2.8045,-2.7435,-2.7773,-2.8207,-2.8207,-2.8207,-2.8207,-2.8207,-2.7718,-2.7515,-2.8112,-2.8424,-2.8522,-2.8281,-2.8249,-2.7933,-2.7099,-2.6762,-2.6468,-2.6079,-2.475,-2.3698,-2.3214,-2.2599,-2.1853,-2.0928,-2.1666,-2.1958,-2.1696,-2.1878,-2.2311,-2.3051,-2.2832,-2.2702,-2.2673,-2.3436,-2.3482,-2.2866,-2.3524,-2.3471,-2.2884,-2.2567,-2.2187,-2.1796,-2.0944,-2.0737,-2.1018,-2.1666,-2.2357,-2.3001,-2.3001,-2.3001,-2.3001,0.0,0.0,0.0,0.0,0.0,0.0,-3.6094,-3.6146,-3.6042,-3.6146,-3.5508,-3.5059,-3.5059,-3.4407,-3.3992,-3.4096,-3.401,-3.3759,-3.3339,-3.3254,-3.2807,-3.1954,-3.241,-3.2503,-3.2149,-3.2165,-3.2449,0.0,0.0,0.0,0.0,0.0,0.0,0.0,0.0,0.0,0.0,-3.2692,-3.3188,-3.3214,-3.3119,-3.2636,-3.1917,-3.1184,-3.027,-2.9289,-2.8632,-2.8646,-2.8897,-2.8535,-2.8391,-2.8238,-2.76,-2.7376,-2.7248,-2.691,-2.6806,-2.6779,-2.6753,-2.7132,-2.7374,-2.6778,-2.7072,-2.7374,-2.6808,-2.7162,-2.7596,-2.7596,-2.7596,-2.7596,-2.7596,-2.7131,-2.6942,-2.7393,-2.7967,-2.8239,-2.7834,-2.7723,0.0,-2.6971,-2.6435,0.0,-2.6752,-2.5135,-2.4062,-2.4059,-2.3364,-2.2647,-2.197,-2.2579,-2.2514,-2.1531,-2.2252,-2.2826,-2.32,-2.2983,-2.307,-2.3504,-2.3848,-2.3956,-2.3822,-2.4044,-2.3708,-2.2889,-2.2555,-2.1951,-2.119,-2.0743,-2.0884,-2.1464,-2.207,-2.2597,-2.3001,-2.3001,-2.3001,-2.3001,0.0,0.0,0.0,0.0,0.0,-3.6008,-3.6266,-3.5266,-3.4697,-3.5301,-3.4752,-3.4283,-3.4283,-3.3593,-3.3369,-3.4044,-3.349,-3.3193,-3.3363,-3.2959,-3.2496,-3.1994,-3.167,-3.1455,-3.1397,-3.1397,-3.146,-3.1586,0.0,0.0,0.0,0.0,0.0,0.0,0.0,0.0,-3.2914,-3.2608,0.0,-3.2691,-3.2189,-3.131,-3.0245,-2.9628,-2.8904,-2.8179,-2.8042,-2.8061,-2.811,-2.8036,-2.782,-2.7564,-2.7437,-2.717,-2.6884,-2.6806,-2.6806,-2.6753,-2.6472,-2.6463,-2.6415,-2.5855,-2.6131,-2.6459,-2.6138,-2.6524,-2.6955,-2.6955,-2.6955,-2.6955,-2.6955,-2.686,-2.6657,-2.628,-2.6752,-2.7301,-2.7665,-2.7387,-2.6928,-2.6398,-2.6257,-2.6034,-2.5703,-2.4896,-2.469,-2.5323,-2.4645,-2.3605,-2.2232,-2.3547,-2.3641,-2.2115,-2.2206,-2.28,-2.3833,-2.2415,-2.2481,-2.4057,-2.3821,-2.3738,-2.3822,-2.429,-2.3927,-2.2889,-2.25,-2.1959,-2.1293,-2.0518,-2.0731,-2.162,-2.2095,-2.2597,-2.3001,-2.3001,-2.3001,-2.3001,0.0,0.0,0.0,0.0,0.0,-3.468,-3.5094,-3.3889,-3.3455,-3.499,-3.418,-3.3473,-3.3473,-3.2783,-3.249,-3.2869,-3.2334,-3.2034,-3.2192,-3.1759,-3.1325,-3.0891,-3.0931,-3.0895,-3.0686,-3.0686,-3.086,-3.1198,-3.0472,0.0,0.0,0.0,0.0,0.0,0.0,-3.0914,0.0,0.0,-3.1848,-3.2182,-3.1578,-3.0754,-2.9826,-2.9214,-2.8435,-2.7645,-2.7645,-2.7509,-2.7367,-2.7585,-2.7524,-2.7376,-2.7144,-2.6963,-2.6806,-2.6806,-2.6806,-2.6727,-2.6377,-2.6283,-2.6163,-2.5619,-2.5674,-2.5824,-2.5483,-2.59,-2.6335,-2.6335,-2.6335,-2.6253,-2.5941,-2.591,-2.5958,-2.5912,-2.6493,-2.6908,-2.6836,-2.6929,-2.6786,-2.6161,-2.5865,-2.5917,-2.6525,-2.5788,-2.5268,-2.5282,-2.4745,-2.3632,-2.1894,-2.3838,-2.4049,-2.1962,-2.2934,-2.377,-2.4323,-2.3197,-2.3345,-2.4706,-2.42,-2.3956,-2.3953,-2.3943,-2.3386,-2.2451,-2.2021,-2.1408,-2.0744,-2.0853,-2.1319,-2.2018,-2.2488,-2.2805,-2.3001,-2.3001,-2.3001,-2.3001,0.0,-3.5594,0.0,0.0,-3.3955,-3.3369,-3.401,-3.2783,-3.249,-3.4456,-3.3369,-3.2421,-3.2421,-3.1903,-3.1558,-3.1558,-3.1153,-3.0915,-3.0968,-3.0451,-2.9997,-2.9677,-3.0164,-3.0286,-2.9983,-2.9959,-3.0227,-3.074,-2.9635,-2.9398,-2.9943,0.0,0.0,0.0,0.0,0.0,-3.0392,-3.0655,-3.1089,-3.1522,-3.09,-3.0165,-2.9365,-2.8759,-2.8013,-2.7273,-2.7273,-2.7067,-2.6858,-2.717,-2.7273,-2.7222,-2.691,-2.6806,-2.6806,-2.6806,-2.6806,-2.6712,-2.6324,-2.6217,-2.6082,-2.5536,-2.5383,-2.5313,-2.5061,-2.5371,-2.5697,-2.5697,-2.5697,-2.5561,-2.51,-2.5083,-2.5245,-2.5522,-2.6047,-2.6264,-2.5756,-2.6051,-2.6182,-2.5884,-2.5505,-2.5794,-2.7194,-2.6769,-2.6019,-2.5132,-2.474,-2.377,-2.2066,-2.4185,-2.439,-2.2107,-2.392,-2.4991,-2.5048,-2.4229,-2.4295,-2.5223,-2.456,-2.4191,-2.4083,-2.3518,-2.2822,-2.207,-2.1565,-2.0916,-2.0336,-2.1232,-2.1876,-2.2368,-2.2826,-2.3001,-2.3001,-2.3001,-2.3001,-2.3001,0.0,0.0,0.0,-3.432,-3.4079,-3.4007,-3.4096,-3.2783,-3.211,-3.3007,-3.1817,-3.0921,-3.0921,-3.0834,-3.08,-3.08,-3.0439,-3.0297,-3.053,-2.9554,-2.9022,-2.9159,-2.9231,-2.9239,-2.9193,-2.9209,-2.9225,-2.9304,-2.9161,-2.9146,-2.9193,0.0,0.0,-2.8574,-2.8589,-2.911,-2.9955,-2.9989,-3.0172,-3.041,-2.9784,-2.8899,-2.7846,-2.7246,-2.6928,-2.6858,-2.6858,-2.6832,-2.6806,-2.6832,-2.6858,-2.6858,-2.6806,-2.6806,-2.6806,-2.6806,-2.6806,-2.6674,-2.6084,-2.5948,-2.5784,-2.5202,-2.5033,-2.5033,-2.5005,-2.5046,-2.5086,-2.5086,-2.5086,-2.5073,-2.5018,-2.5017,-2.4874,-2.4516,-2.4567,-2.4633,-2.463,-2.4345,-2.4419,-2.5243,-2.5353,-2.559,-2.613,-2.7037,-2.7065,-2.5651,-2.5403,-2.4867,-2.3916,-2.5154,-2.5163,-2.3479,-2.5022,-2.6093,-2.6513,-2.4706,-2.4287,-2.528,-2.4423,-2.4042,-2.4083,-2.3429,-2.2743,-2.207,-2.1396,-2.1012,-2.0872,-2.1408,-2.1876,-2.2368,-2.2826,-2.3001,-2.3001,-2.3001,-2.3001,-2.3001,-3.449,-3.4545,-3.4145,-3.2921,-3.2714,-3.2403,-3.1472,-3.0817,-3.0541,-3.0817,-3.0351,-2.9972,-2.9972,-2.9972,-2.9972,-2.9972,-2.9401,-2.9084,-2.9171,-2.8308,-2.7997,-2.8474,-2.8505,-2.8672,-2.9098,-2.9098,-2.9098,-2.9098,-2.9098,-2.9098,-2.9098,-2.9098,-2.8897,-2.8463,-2.8033,-2.8247,-2.8948,-2.9097,-2.923,-2.9326,-2.9091,-2.8469,-2.7623,-2.7026,-2.6806,-2.6806,-2.6806,-2.6806,-2.6806,-2.6806,-2.6806,-2.6806,-2.6806,-2.6806,-2.6806,-2.6806,-2.6806,-2.6674,-2.6056,-2.5893,-2.5757,-2.5146,-2.5005,-2.5005,-2.5005,-2.5005,-2.5005,-2.5005,-2.5005,-2.5005,-2.5005,-2.4765,-2.4622,-2.4708,-2.4557,-2.4425,-2.4406,-2.4312,-2.4372,-2.468,-2.475,-2.5101,-2.5878,-2.6706,-2.7023,-2.6575,-2.6734,-2.6047,-2.421,-2.5806,-2.6153,-2.473,-2.5691,-2.6504,-2.7041,-2.5583,-2.5071,-2.5579,-2.4916,-2.462,-2.4609,-2.3552,-2.25,-2.1506,-2.1428,-2.1373,-2.1376,-2.1832,-2.2302,-2.275,-2.2936,-2.3001,-2.3001,-2.3001,-2.3001,-2.3001,-3.368,-3.3559,-3.3007,-3.1696,-3.1282,-3.0765,-2.9679,-2.9317,-2.9179,-2.9179,-2.8989,-2.8904,-2.8991,-2.9008,-2.8956,-2.8835,-2.8204,-2.7921,-2.8115,-2.7265,-2.7083,-2.7778,-2.7984,-2.8316,-2.8798,-2.9004,-2.9098,-2.9098,-2.9098,-2.9029,-2.892,-2.8803,-2.855,-2.814,-2.7625,-2.7665,-2.8154,-2.834,-2.8405,-2.8405,-2.8405,-2.8028,-2.7376,-2.6953,-2.6806,-2.6806,-2.6806,-2.6806,-2.6806,-2.6806,-2.6806,-2.6806,-2.6806,-2.6806,-2.6806,-2.6806,-2.6806,-2.6674,-2.6056,-2.5893,-2.5757,-2.5146,-2.5005,-2.5005,-2.5005,-2.5005,-2.5005,-2.5005,-2.5005,-2.5005,-2.5005,-2.4736,-2.4565,-2.4765,-2.4472,-2.4142,-2.392,-2.3896,-2.3879,-2.39,-2.386,-2.4262,-2.5322,-2.5902,-2.6264,-2.6466,-2.6985,-2.6363,-2.4112,-2.6108,-2.6681,-2.5222,-2.6374,-2.7085,-2.7301,-2.6493,-2.5977,-2.5729,-2.5561,-2.5411,-2.5197,-2.3889,-2.2539,-2.127,-2.1481,-2.1669,-2.1832,-2.2182,-2.2586,-2.3001,-2.3001,-2.3001,-2.3001,-2.3001,-2.3001,-2.3001,-3.3076,-3.2334,-3.1593,-3.0834,-3.0058,-2.9523,-2.9506,-2.8885,-2.842,-2.842,-2.7782,-2.7446,-2.7792,-2.7825,-2.765,-2.7256,-2.6932,-2.699,-2.7648,-2.6641,-2.634,-2.7083,-2.7747,-2.8094,-2.811,-2.8751,-2.9098,-2.9098,-2.9098,-2.8897,-2.8487,-2.811,-2.7745,-2.7427,-2.7401,-2.7524,-2.7695,-2.771,-2.771,-2.771,-2.771,-2.736,-2.682,-2.6806,-2.6806,-2.6806,-2.6806,-2.6806,-2.6806,-2.6806,-2.6806,-2.6806,-2.6806,-2.6806,-2.6806,-2.6806,-2.6806,-2.6674,-2.6056,-2.5893,-2.5757,-2.5146,-2.5005,-2.5005,-2.5005,-2.5005,-2.5005,-2.5005,-2.5005,-2.5005,-2.5005,-2.5005,-2.4835,-2.4379,-2.3914,-2.3442,-2.3,-2.2537,-2.2383,-2.2848,-2.2686,-2.3004,-2.4213,-2.462,-2.4792,-2.4736,-2.5665,-2.5507,-2.3899,-2.6096,-2.6577,-2.4781,-2.7101,-2.8014,-2.7301,-2.7425,-2.6799,-2.5515,-2.631,-2.636,-2.5749,-2.4332,-2.2909,-2.1605,-2.1581,-2.1865,-2.2277,-2.2313,-2.2586,-2.3001,-2.3001,-2.3001,-2.3001,-2.3001,-2.3001,-2.3001,-3.0627,-3.0403,-3.0006,-2.9265,-2.892,-2.8492,-2.7708,-2.7402,-2.7148,-2.6875,-2.6639,-2.6433,-2.6257,-2.6719,-2.6892,-2.6489,-2.6106,-2.5959,-2.6186,-2.5651,-2.5634,-2.6325,-2.6562,-2.6909,-2.7415,-2.8079,-2.8426,-2.8426,-2.8877,-2.8897,-2.8487,-2.8085,-2.772,-2.7401,-2.7119,-2.7027,-2.7113,-2.7521,-2.7449,-2.7128,-2.7521,-2.7345,-2.6806,-2.6806,-2.6806,-2.6806,-2.6806,-2.6806,-2.6806,-2.6806,-2.6515,-2.6137,-2.6137,-2.6442,-2.6806,-2.6806,-2.6633,-2.6392,-2.6002,-2.5771,-2.5536,-2.5103,-2.5005,-2.5005,-2.5005,-2.5005,-2.5005,-2.5005,-2.5005,-2.5005,-2.5005,-2.5005,-2.4948,-2.4793,-2.4379,-2.3901,-2.3442,-2.3263,-2.3203,-2.3352,-2.3564,-2.399,-2.4706,-2.5245,-2.5402,-2.4998,-2.6337,-2.6629,-2.5372,-2.6244,-2.692,-2.7199,-2.7105,-2.7352,-2.8049,-2.7186,-2.6577,-2.6323,-2.6016,-2.5317,-2.4284,-2.408,-2.334,-2.2285,-2.2474,-2.2466,-2.231,-2.2652,-2.287,-2.3001,-2.3001,-2.3001,-2.3001,-2.3001,-2.3001,-2.3001,-2.9506,-2.9282,-2.8937,-2.8472,-2.8178,-2.7751,-2.7042,-2.6941,-2.6792,-2.6367,-2.6315,-2.6105,-2.5559,-2.5944,-2.6104,-2.5723,-2.546,-2.5307,-2.5307,-2.5127,-2.5191,-2.5618,-2.5866,-2.623,-2.6688,-2.7367,-2.7775,-2.7861,-2.8264,-2.8326,-2.8067,-2.7695,-2.7382,-2.717,-2.691,-2.6806,-2.6835,-2.72,-2.7142,-2.6849,-2.7215,-2.7142,-2.6806,-2.6806,-2.6806,-2.6806,-2.6806,-2.6806,-2.6806,-2.6806,-2.653,-2.6155,-2.6038,-2.626,-2.6505,-2.607,-2.5716,-2.5414,-2.5138,-2.4952,-2.4805,-2.4681,-2.4666,-2.4734,-2.4951,-2.5005,-2.5005,-2.5005,-2.5005,-2.5005,-2.5005,-2.5005,-2.5005,-2.5005,-2.4622,-2.4147,-2.3666,-2.3607,-2.3518,-2.3352,-2.3636,-2.4076,-2.4679,-2.4914,-2.4906,-2.4577,-2.5664,-2.6108,-2.5572,-2.6492,-2.7044,-2.6972,-2.6593,-2.6659,-2.7243,-2.6417,-2.6034,-2.6181,-2.5651,-2.4842,-2.379,-2.4011,-2.3608,-2.2767,-2.2912,-2.2837,-2.2597,-2.2881,-2.3001,-2.3001,-2.3001,-2.3001,-2.3001,-2.3001,-2.3001,-2.3001,-2.9351,-2.8799,-2.8316,-2.8316,-2.7731,-2.725,-2.7218,-2.7202,-2.7023,-2.6641,-2.659,-2.6297,-2.554,-2.5465,-2.5329,-2.5025,-2.5005,-2.5005,-2.5005,-2.5005,-2.5005,-2.5005,-2.5598,-2.593,-2.593,-2.6704,-2.7256,-2.7612,-2.7523,-2.7463,-2.7412,-2.7041,-2.6832,-2.6806,-2.6806,-2.6806,-2.6806,-2.6806,-2.6806,-2.6806,-2.6806,-2.6806,-2.6806,-2.6806,-2.6806,-2.6806,-2.6806,-2.6806,-2.6806,-2.6779,-2.675,-2.6628,-2.632,-2.6171,-2.5902,-2.4886,-2.4379,-2.4095,-2.3884,-2.3766,-2.3813,-2.4082,-2.415,-2.4299,-2.4883,-2.5005,-2.5005,-2.5005,-2.5005,-2.5005,-2.5005,-2.5005,-2.5005,-2.5005,-2.4637,-2.4176,-2.3725,-2.3695,-2.3531,-2.3047,-2.3143,-2.3535,-2.4292,-2.3943,-2.3704,-2.3709,-2.4065,-2.4469,-2.4885,-2.6854,-2.696,-2.4888,-2.5797,-2.6035,-2.5453,-2.5347,-2.5276,-2.5241,-2.5241,-2.4791,-2.4011,-2.4011,-2.3658,-2.3001,-2.3001,-2.3001,-2.3001,-2.3001,-2.3001,-2.3001,-2.3001,-2.3001,-2.3001,-2.3045,-2.3023,-2.3001,-2.7816,-2.7678,-2.7558,-2.7558,-2.7159,-2.6741,-2.6436,-2.6123,-2.5797,-2.5457,-2.54,-2.5323,-2.5146,-2.5127,-2.5088,-2.5005,-2.5005,-2.5005,-2.5005,-2.5005,-2.5005,-2.5005,-2.5144,-2.5238,-2.5238,-2.6451,-2.764,-2.8708,-2.8401,-2.8076,-2.778,-2.7423,-2.7093,-2.6806,-2.6806,-2.6806,-2.6806,-2.6806,-2.6806,-2.6806,-2.6806,-2.6806,-2.6806,-2.6806,-2.6806,-2.6806,-2.6806,-2.6806,-2.6753,-2.6498,-2.6103,-2.5678,-2.5348,-2.4787,-2.4406,-2.5328,-2.5041,-2.4564,-2.4955,-2.4545,-2.4137,-2.4652,-2.4801,-2.4829,-2.4978,-2.5005,-2.5005,-2.5005,-2.5005,-2.5005,-2.5005,-2.5005,-2.5005,-2.5005,-2.492,-2.4679,-2.4205,-2.4436,-2.4494,-2.4031,-2.4321,-2.4622,-2.4835,-2.465,-2.459,-2.4725,-2.5071,-2.5476,-2.5988,-2.6834,-2.7148,-2.6827,-2.6008,-2.6035,-2.6973,-2.5861,-2.4981,-2.4373,-2.4373,-2.3986,-2.325,-2.325,-2.3176,-2.3001,-2.3001,-2.3001,-2.3001,-2.3001,-2.3001,-2.3001,-2.3001,-2.3001,-2.3045,-2.3416,-2.3318,-2.3056,-2.7315,-2.7299,-2.7234,-2.7072,-2.6842,-2.6556,-2.6157,-2.5908,-2.5633,-2.5269,-2.5227,-2.5169,-2.5025,-2.5005,-2.5005,-2.5005,-2.5005,-2.5005,-2.5005,-2.5005,-2.5005,-2.5005,-2.5005,-2.5005,-2.5005,-2.5745,-2.6628,-2.7635,-2.7394,-2.732,-2.7393,-2.6908,-2.6722,-2.6806,-2.6806,-2.6806,-2.6806,-2.6806,-2.6806,-2.6806,-2.6806,-2.6806,-2.6777,-2.6471,-2.6355,-2.6355,-2.6355,-2.6355,-2.6303,-2.5974,-2.584,-2.5659,-2.4661,-2.4425,-2.4542,-2.4955,-2.4557,-2.4024,-2.4367,-2.4082,-2.3825,-2.4435,-2.4815,-2.5005,-2.5005,-2.5005,-2.5005,-2.5005,-2.5005,-2.5005,-2.5005,-2.5005,-2.5005,-2.5005,-2.5005,-2.4835,-2.4379,-2.4708,-2.4835,-2.435,-2.4708,-2.5005,-2.5005,-2.4806,-2.4744,-2.4862,-2.5382,-2.5838,-2.6125,-2.6552,-2.6854,-2.6985,-2.5896,-2.5687,-2.6496,-2.5358,-2.4348,-2.3596,-2.3596,-2.3498,-2.3329,-2.3099,-2.3121,-2.3318,-2.3099,-2.3001,-2.3001,-2.3001,-2.3001,-2.3001,-2.3001,-2.3001,-2.3034,-2.3296,-2.323,-2.3045,-2.725,-2.7266,-2.7186,-2.6758,-2.6657,-2.6487,-2.6157,-2.6015,-2.5815,-2.5481,-2.5408,-2.5326,-2.5025,-2.5005,-2.5005,-2.5005,-2.5005,-2.5005,-2.5005,-2.5005,-2.5005,-2.5005,-2.5005,-2.5005,-2.5005,-2.5056,-2.5415,-2.613,-2.5869,-2.6083,-2.6724,-2.6003,-2.5995,-2.666,-2.666,-2.6718,-2.6806,-2.6806,-2.6747,-2.666,-2.666,-2.6576,-2.6431,-2.589,-2.5647,-2.5687,-2.5774,-2.5803,-2.5767,-2.5598,-2.5854,-2.5978,-2.4448,-2.4652,-2.5273,-2.4463,-2.3865,-2.3472,-2.3472,-2.3472,-2.3594,-2.4109,-2.4639,-2.5005,-2.5005,-2.5005,-2.5005,-2.5005,-2.5005,-2.5005,-2.5005,-2.5005,-2.5032,-2.5127,-2.5059,-2.489,-2.4585,-2.4818,-2.4863,-2.4436,-2.4765,-2.4977,-2.4977,-2.4815,-2.4765,-2.4816,-2.5402,-2.5855,-2.6054,-2.6281,-2.638,-2.638,-2.5687,-2.5229,-2.5123,-2.4445,-2.3804,-2.3176,-2.3152,-2.3366,-2.3864,-2.3421,-2.3405,-2.3673,-2.3296,-2.3067,-2.3001,-2.3001,-2.3001,-2.3001,-2.3001,-2.3001,-2.3012,-2.3078,-2.311,-2.3121,-2.6956,-2.7152,-2.7233,-2.6775,-2.6419,-2.6175,-2.6122,-2.5572,-2.5146,-2.5103,-2.5068,-2.5064,-2.5005,-2.5005,-2.5005,-2.5005,-2.5005,-2.5005,-2.5005,-2.5005,-2.5005,-2.5005,-2.5005,-2.5005,-2.5005,-2.5274,-2.6029,-2.7257,-2.6047,-2.5823,-2.6451,-2.5433,-2.5303,-2.5963,-2.5963,-2.6283,-2.6806,-2.6806,-2.646,-2.5963,-2.5963,-2.5618,-2.51,-2.5052,-2.5048,-2.512,-2.5629,-2.5803,-2.5839,-2.6074,-2.6065,-2.5892,-2.537,-2.5162,-2.5048,-2.4896,-2.4801,-2.4734,-2.4734,-2.4734,-2.4747,-2.4842,-2.4937,-2.5005,-2.5005,-2.5005,-2.5005,-2.5005,-2.5005,-2.5005,-2.5005,-2.5005,-2.5168,-2.567,-2.5331,-2.5153,-2.5583,-2.5288,-2.4977,-2.4892,-2.4948,-2.4948,-2.4835,-2.509,-2.5419,-2.5757,-2.5647,-2.6059,-2.717,-2.6701,-2.638,-2.638,-2.5687,-2.4969,-2.4301,-2.4156,-2.4047,-2.395,-2.3707,-2.3989,-2.4698,-2.4393,-2.4061,-2.3684,-2.3607,-2.3383,-2.3001,-2.3001,-2.3001,-2.3001,-2.3001,-2.3001,-2.3056,-2.3471,-2.3575,-2.364,-2.723,-2.7198,-2.707,-2.6539,-2.6157,-2.5834,-2.5554,-2.5224,-2.5005,-2.5005,-2.5005,-2.5005,-2.5005,-2.5005,-2.5005,-2.5005,-2.5005,-2.5005,-2.5005,-2.5005,-2.5005,-2.5005,-2.5005,-2.5005,-2.5005,-2.5285,-2.566,-2.6107,-2.5288,-2.5094,-2.5526,-2.4689,-2.4636,-2.5245,-2.5245,-2.5458,-2.5789,-2.5789,-2.5575,-2.5245,-2.5299,-2.511,-2.4781,-2.4471,-2.4355,-2.4384,-2.4675,-2.4689,-2.4546,-2.4582,-2.4852,-2.5034,-2.4064,-2.4341,-2.4951,-2.4625,-2.4761,-2.4937,-2.4611,-2.4502,-2.4502,-2.4502,-2.4502,-2.4611,-2.4937,-2.5005,-2.5005,-2.5005,-2.5005,-2.5005,-2.5005,-2.5005,-2.51,-2.5371,-2.5181,-2.51,-2.5385,-2.5181,-2.5005,-2.5005,-2.5005,-2.4948,-2.4806,-2.4889,-2.501,-2.5084,-2.5431,-2.591,-2.6563,-2.6852,-2.6803,-2.6414,-2.524,-2.4492,-2.4108,-2.4108,-2.4464,-2.518,-2.4599,-2.4819,-2.5665,-2.487,-2.4355,-2.4126,-2.3853,-2.3564,-2.3372,-2.311,-2.3154,-2.3362,-2.311,-2.3001,-2.3023,-2.3252,-2.3465,-2.3727,-2.7417,-2.7228,-2.6939,-2.6368,-2.5998,-2.5666,-2.5262,-2.5084,-2.5005,-2.5005,-2.5005,-2.5005,-2.5005,-2.5005,-2.5005,-2.5005,-2.5005,-2.5005,-2.5005,-2.5005,-2.5005,-2.5005,-2.5005,-2.5005,-2.5005,-2.5046,-2.5019,-2.4902,-2.4328,-2.4235,-2.4578,-2.3963,-2.4007,-2.4592,-2.4592,-2.4718,-2.4892,-2.4892,-2.4791,-2.4592,-2.4646,-2.4559,-2.4317,-2.3824,-2.3673,-2.3688,-2.3833,-2.3735,-2.3488,-2.3437,-2.3951,-2.4376,-2.3205,-2.3729,-2.4747,-2.4394,-2.4652,-2.4883,-2.4245,-2.4096,-2.4096,-2.4096,-2.4096,-2.4245,-2.4869,-2.5005,-2.5005,-2.5005,-2.5005,-2.5005,-2.5005,-2.5005,-2.5059,-2.5195,-2.51,-2.5059,-2.5195,-2.51,-2.5005,-2.5005,-2.5005,-2.4948,-2.4778,-2.4769,-2.4704,-2.4474,-2.5248,-2.5818,-2.5989,-2.6778,-2.6973,-2.6427,-2.5087,-2.4431,-2.4571,-2.4571,-2.513,-2.6286,-2.5564,-2.5647,-2.6342,-2.5181,-2.4585,-2.4465,-2.3913,-2.3694,-2.3651,-2.3198,-2.3362,-2.3853,-2.323,-2.3067,-2.3176,-2.3176,-2.3482,-2.388,-2.7129,-2.7115,-2.7036,-2.6556,-2.6105,-2.5779,-2.5758,-2.5323,-2.5005,-2.5005,-2.5005,-2.5005,-2.5005,-2.5005,-2.5005,-2.5005,-2.5005,-2.5005,-2.5005,-2.5005,-2.5005,-2.5005,-2.5005,-2.5005,-2.5005,-2.4426,-2.4346,-2.4902,-2.3621,-2.3339,-2.3949,-2.3287,-2.3331,-2.3963,-2.3963,-2.4312,-2.4892,-2.4892,-2.453,-2.3963,-2.3963,-2.3615,-2.3033,-2.2989,-2.296,-2.307,-2.3673,-2.3735,-2.3583,-2.4197,-2.4484,-2.4595,-2.4471,-2.4312,-2.4258,-2.4788,-2.4978,-2.4883,-2.4245,-2.4096,-2.4096,-2.4096,-2.4096,-2.4245,-2.4869,-2.5005,-2.5005,-2.5005,-2.5005,-2.5005,-2.5005,-2.5005,-2.5181,-2.5738,-2.5358,-2.5208,-2.5751,-2.5344,-2.5005,-2.5005,-2.5005,-2.4892,-2.4649,-2.5055,-2.5213,-2.4957,-2.5314,-2.5841,-2.6608,-2.6539,-2.6449,-2.638,-2.5616,-2.5457,-2.5949,-2.5949,-2.6237,-2.6827,-2.645,-2.6324,-2.6274,-2.5514,-2.4891,-2.4465,-2.3913,-2.3694,-2.3651,-2.3198,-2.3569,-2.4344,-2.3372,-2.3274,-2.364,-2.364,-2.3995,-2.4497,-2.7068,-2.7037,-2.6923,-2.6453,-2.6101,-2.5828,-2.5701,-2.5413,-2.5197,-2.5197,-2.508,-2.5005,-2.5005,-2.5005,-2.5005,-2.5005,-2.5005,-2.5005,-2.5005,-2.5005,-2.5005,-2.5005,-2.5005,-2.5005,-2.5005,-2.4746,-2.4627,-2.4639,-2.3932,-2.357,-2.3569,-2.3117,-2.3055,-2.3273,-2.3273,-2.3418,-2.3664,-2.3664,-2.3505,-2.3273,-2.3273,-2.3128,-2.2888,-2.2888,-2.282,-2.2758,-2.3002,-2.2818,-2.2492,-2.2744,-2.2987,-2.3164,-2.3164,-2.3333,-2.3662,-2.4245,-2.4435,-2.438,-2.415,-2.4096,-2.4096,-2.4096,-2.4096,-2.4245,-2.4869,-2.5005,-2.5005,-2.5005,-2.5005,-2.5005,-2.5005,-2.5005,-2.5086,-2.5303,-2.5154,-2.5086,-2.5317,-2.5141,-2.5005,-2.5005,-2.492,-2.4806,-2.462,-2.4662,-2.4794,-2.4996,-2.5431,-2.5994,-2.6648,-2.6497,-2.6598,-2.7074,-2.6741,-2.6629,-2.6863,-2.6311,-2.6591,-2.7619,-2.6459,-2.6055,-2.6353,-2.5558,-2.5117,-2.4931,-2.441,-2.4366,-2.4563,-2.3777,-2.3864,-2.4454,-2.4071,-2.3842,-2.3727,-2.4082,-2.4497,-2.4975,-2.7038,-2.6924,-2.6758,-2.6452,-2.6117,-2.5844,-2.5715,-2.5527,-2.5355,-2.5314,-2.5178,-2.5064,-2.5005,-2.5005,-2.5005,-2.5005,-2.5005,-2.5005,-2.5005,-2.5005,-2.5005,-2.5005,-2.5005,-2.5005,-2.5005,-2.4886,-2.4742,-2.4498,-2.4151,-2.3861,-2.3573,-2.3216,-2.3053,-2.3053,-2.2955,-2.2888,-2.2888,-2.2888,-2.2888,-2.2888,-2.2888,-2.2888,-2.2888,-2.282,-2.2729,-2.2592,-2.2486,-2.2184,-2.1793,-2.1793,-2.2037,-2.2305,-2.2305,-2.2835,-2.354,-2.3757,-2.4082,-2.4367,-2.4367,-2.4367,-2.4326,-2.415,-2.4096,-2.4204,-2.4639,-2.4734,-2.4734,-2.4734,-2.4734,-2.4788,-2.4978,-2.5005,-2.5005,-2.5005,-2.5005,-2.5005,-2.5005,-2.5005,-2.5005,-2.5005,-2.4863,-2.4801,-2.4845,-2.467,-2.4774,-2.5214,-2.5772,-2.6347,-2.6909,-2.6587,-2.6735,-2.7503,-2.7372,-2.7496,-2.7933,-2.7338,-2.7127,-2.7348,-2.6842,-2.6411,-2.6006,-2.5697,-2.5437,-2.5182,-2.4683,-2.4749,-2.515,-2.4301,-2.4344,-2.4902,-2.4607,-2.4366,-2.4224,-2.4574,-2.4902,-2.5237,-2.6989,-2.6775,-2.6589,-2.6589,-2.6222,-2.5897,-2.5897,-2.5733,-2.5546,-2.5333,-2.5294,-2.522,-2.5025,-2.5005,-2.5005,-2.5005,-2.5005,-2.5005,-2.5005,-2.5005,-2.5005,-2.5005,-2.5005,-2.5005,-2.5005,-2.4681,-2.4498,-2.4498,-2.4172,-2.4003,-2.4003,-2.3595,-2.3406,-2.3384,-2.3053,-2.2888,-2.2888,-2.2888,-2.2888,-2.2888,-2.2888,-2.2888,-2.2865,-2.2684,-2.2615,-2.2555,-2.2301,-2.202,-2.1793,-2.1793,-2.2037,-2.2291,-2.2291,-2.3133,-2.396,-2.3378,-2.4042,-2.4991,-2.5005,-2.5005,-2.4869,-2.4245,-2.4109,-2.4109,-2.4109,-2.4109,-2.4109,-2.4109,-2.4109,-2.4286,-2.4896,-2.5005,-2.5005,-2.5005,-2.5005,-2.5005,-2.5005,-2.5005,-2.5005,-2.5005,-2.4863,-2.4962,-2.5375,-2.5292,-2.5349,-2.5785,-2.6347,-2.6935,-2.7464,-2.6803,-2.6735,-2.7469,-2.7372,-2.7946,-2.9274,-2.9274,-2.8072,-2.5747,-2.7786,-2.7505,-2.5215,-2.6046,-2.5966,-2.5193,-2.4694,-2.48,-2.5182,-2.4683,-2.5054,-2.5808,-2.4869,-2.477,-2.5215,-2.5215,-2.5215,-2.5281,-2.6503,-2.6537,-2.6537,-2.6345,-2.6203,-2.6114,-2.6114,-2.5934,-2.5789,-2.5731,-2.5486,-2.5275,-2.5217,-2.5084,-2.5005,-2.5005,-2.5005,-2.5005,-2.5005,-2.5005,-2.5005,-2.5005,-2.5005,-2.5005,-2.5005,-2.4886,-2.4846,-2.4846,-2.4518,-2.4354,-2.4354,-2.3988,-2.3818,-2.3797,-2.3436,-2.3246,-2.3238,-2.3,-2.2888,-2.2888,-2.2888,-2.2888,-2.2865,-2.2684,-2.2486,-2.2278,-2.202,-2.1746,-2.152,-2.152,-2.158,-2.1656,-2.1656,-2.2224,-2.2863,-2.3134,-2.3757,-2.4448,-2.4883,-2.5005,-2.4964,-2.4788,-2.4747,-2.4747,-2.4747,-2.4747,-2.4747,-2.4747,-2.4747,-2.4801,-2.4978,-2.5005,-2.5005,-2.5005,-2.5005,-2.5005,-2.5005,-2.5005,-2.5005,-2.5005,-2.5126,-2.5111,-2.4871,-2.5304,-2.5672,-2.578,-2.6726,-2.732,-2.749,-2.7289,-2.747,-2.8111,-2.849,-2.8605,-2.8471,-2.8767,-2.8313,-2.7097,-2.7123,-2.6421,-2.5215,-2.5437,-2.5624,-2.5655,-2.5175,-2.5595,-2.6515,-2.5437,-2.5473,-2.6192,-2.5683,-2.536,-2.5248,-2.5557,-2.5677,-2.5699,-2.6416,-2.6398,-2.6398,-2.6238,-2.6202,-2.6202,-2.6202,-2.6096,-2.5989,-2.5915,-2.5694,-2.5486,-2.5314,-2.5182,-2.5084,-2.5005,-2.5005,-2.5005,-2.5005,-2.5005,-2.5005,-2.5005,-2.5005,-2.5005,-2.5005,-2.5005,-2.5005,-2.5005,-2.4786,-2.4701,-2.4701,-2.4359,-2.4193,-2.4172,-2.3803,-2.3653,-2.3616,-2.3407,-2.3334,-2.3334,-2.3164,-2.3053,-2.2941,-2.2578,-2.2278,-2.202,-2.1722,-2.1544,-2.1399,-2.1399,-2.1399,-2.1399,-2.1399,-2.1968,-2.2727,-2.3093,-2.3798,-2.4529,-2.491,-2.5005,-2.5005,-2.5005,-2.5005,-2.4951,-2.4706,-2.4652,-2.4652,-2.4652,-2.4652,-2.4734,-2.4964,-2.5005,-2.5005,-2.5005,-2.5005,-2.5005,-2.5005,-2.5005,-2.51,-2.5331,-2.5378,-2.5452,-2.5602,-2.5932,-2.6255,-2.6446,-2.7098,-2.749,-2.749,-2.7745,-2.802,-2.8407,-2.9183,-2.9385,-2.8888,-2.9424,-2.8888,-2.7446,-2.7728,-2.7284,-2.6217,-2.6731,-2.6956,-2.6864,-2.661,-2.6736,-2.7121,-2.6337,-2.608,-2.6183,-2.5983,-2.5721,-2.5491,-2.5797,-2.5895,-2.5895,-2.6589,-2.638,-2.6202,-2.6202,-2.6202,-2.6202,-2.6202,-2.6202,-2.6132,-2.5952,-2.5915,-2.5768,-2.5391,-2.5314,-2.5236,-2.5045,-2.5005,-2.5005,-2.5005,-2.5005,-2.5005,-2.5005,-2.5005,-2.5005,-2.5005,-2.5005,-2.5005,-2.5005,-2.5005,-2.5005,-2.4985,-2.4701,-2.4539,-2.4518,-2.4193,-2.4046,-2.4046,-2.4003,-2.4003,-2.3982,-2.3595,-2.3334,-2.3105,-2.254,-2.217,-2.1912,-2.1578,-2.1482,-2.1458,-2.1423,-2.1399,-2.1399,-2.1453,-2.228,-2.3215,-2.3269,-2.4096,-2.5005,-2.5005,-2.5005,-2.5005,-2.5005,-2.5005,-2.4869,-2.4299,-2.4177,-2.4177,-2.4177,-2.4177,-2.434,-2.491,-2.5005,-2.5005,-2.5005,-2.5005,-2.5005,-2.5005,-2.5005,-2.5222,-2.5819,-2.5647,-2.5935,-2.7027,-2.6886,-2.6942,-2.7451,-2.749,-2.7516,-2.7568,-2.8098,-2.8459,-2.8564,-2.9575,-3.0127,-3.0179,-3.0725,-2.9755,-2.7245,-2.9146,-2.9276,-2.7794,-2.9029,-2.9147,-2.8386,-2.8386,-2.8039,-2.7418,-2.7336,-2.6899,-2.6218,-2.6052,-2.6021,-2.6021,-2.5937,-2.5895,-2.5895,-2.664,-2.638,-2.6202,-2.6202,-2.6202,-2.6202,-2.6202,-2.6202,-2.6168,-2.6132,-2.5989,-2.5879,-2.5787,-2.5486,-2.5294,-2.5236,-2.5084,-2.5005,-2.5005,-2.5005,-2.5005,-2.5005,-2.5005,-2.5005,-2.5005,-2.5005,-2.5005,-2.5005,-2.5005,-2.5005,-2.5005,-2.4926,-2.4886,-2.4866,-2.4539,-2.4395,-2.4374,-2.4109,-2.4003,-2.3982,-2.3903,-2.3775,-2.361,-2.3377,-2.3201,-2.2965,-2.2314,-2.2095,-2.2025,-2.1554,-2.1399,-2.148,-2.1966,-2.2605,-2.3296,-2.3771,-2.4407,-2.5005,-2.5005,-2.5005,-2.5005,-2.5005,-2.5005,-2.4978,-2.4842,-2.4815,-2.4815,-2.4815,-2.4815,-2.4842,-2.4991,-2.5005,-2.5005,-2.5005,-2.5005,-2.5005,-2.5005,-2.5005,-2.5222,-2.5819,-2.6129,-2.6367,-2.6679,-2.6794,-2.7039,-2.7484,-2.749,-2.7699,-2.8177,-2.8307,-2.8804,-2.9683,-2.997,-3.0309,-3.079,-3.0921,-3.0379,-2.911,-2.958,-2.9246,-2.8258,-2.8536,-2.8585,-2.8386,-2.8386,-2.8703,-2.9108,-2.8426,-2.8426,-2.8755,-2.7418,-2.6899,-2.6828,-2.6146,-2.5895,-2.6021,-2.6825,-2.6468,-2.6202,-2.6202,-2.6202,-2.6202,-2.6202,-2.6202,-2.6202,-2.6202,-2.6114,-2.6007,-2.5915,-2.5696,-2.5505,-2.5314,-2.5119,-2.5005,-2.5005,-2.5005,-2.5005,-2.5005,-2.5005,-2.5005,-2.5005,-2.5005,-2.5005,-2.5005,-2.5005,-2.5005,-2.5005,-2.5005,-2.5005,-2.4985,-2.4822,-2.4742,-2.4742,-2.4544,-2.4482,-2.4462,-2.4219,-2.403,-2.3809,-2.3566,-2.3341,-2.315,-2.274,-2.2581,-2.2489,-2.1945,-2.1769,-2.1777,-2.185,-2.228,-2.289,-2.3486,-2.4096,-2.4639,-2.4924,-2.5005,-2.5005,-2.5005,-2.5005,-2.5005,-2.5005,-2.5005,-2.5005,-2.5005,-2.5005,-2.5005,-2.5005,-2.5005,-2.5005,-2.5005,-2.5005,-2.5005,-2.5005,-2.5005,-2.5331,-2.6226,-2.6412,-2.6706,-2.7278,-2.733,-2.7472,-2.7743,-2.7603,-2.7818,-2.851,-2.873,-2.9222,-3.0074,-3.0361,-3.0686,-3.0986,-3.0986,-3.0785,-3.0305,-3.0305,-3.0063,-2.9626,-2.9626,-2.9626,-2.9626,-2.9626,-2.9665,-2.9665,-2.9225,-2.9057,-2.8991,-2.8119,-2.7758,-2.773,-2.7244,-2.7092,-2.7174,-2.7006,-2.6623,-2.6257,-2.6257,-2.6257,-2.6257,-2.6257,-2.6257,-2.6239,-2.622,-2.6202,-2.6132,-2.597,-2.5934,-2.5749,-2.5333,-2.5158,-2.5025,-2.5005,-2.5005,-2.5005,-2.5005,-2.5005,-2.5005,-2.5005,-2.5005,-2.5005,-2.5005,-2.5005,-2.5005,-2.5005,-2.5005,-2.5005,-2.5005,-2.5005,-2.5005,-2.5005,-2.5005,-2.5005,-2.4966,-2.4569,-2.4266,-2.4,-2.3674,-2.3443,-2.3245,-2.3113,-2.2979,-2.2844,-2.2449,-2.2404,-2.2423,-2.2093,-2.227,-2.2729,-2.3331,-2.3783,-2.4204,-2.472,-2.4924,-2.5005,-2.5005,-2.5005,-2.5005,-2.5005,-2.5005,-2.5005,-2.5005,-2.5005,-2.5005,-2.5005,-2.5005,-2.5005,-2.5005,-2.51,-2.5127,-2.5018,-2.5181,-2.5697,-2.6671,-2.6819,-2.7207,-2.8038,-2.808,-2.8113,-2.8226,-2.804,-2.8221,-2.895,-2.9311,-2.9729,-3.0231,-3.0738,-3.0986,-3.0986,-3.0986,-3.0986,-3.0986,-3.0986,-3.0986,-3.0986,-3.0986,-3.0986,-3.0986,-3.0986,-3.0583,-2.9909,-2.9909,-2.951,-2.8821,-2.8664,-2.8624,-2.8585,-2.8466,-2.8505,-2.8624,-2.7054,-2.6759,-2.6554,-2.6554,-2.6554,-2.6554,-2.6554,-2.6554,-2.6468,-2.6238,-2.6202,-2.6185,-2.615,-2.6007,-2.5749,-2.5333,-2.5275,-2.5197,-2.5005,-2.5005,-2.5005,-2.5005,-2.5005,-2.5005,-2.5005,-2.5005,-2.5005,-2.5005,-2.5005,-2.5005,-2.5005,-2.5005,-2.5005,-2.5005,-2.5005,-2.5005,-2.5005,-2.5005,-2.5005,-2.4985,-2.4926,-2.4731,-2.4513,-2.4584,-2.4508,-2.4328,-2.3846,-2.3334,-2.2889,-2.2822,-2.3184,-2.3757,-2.4211,-2.4123,-2.3985,-2.4577,-2.4432,-2.4109,-2.4191,-2.4611,-2.5005,-2.5005,-2.5005,-2.5005,-2.5005,-2.5005,-2.5005,-2.5005,-2.5005,-2.5005,-2.5005,-2.5005,-2.5005,-2.5005,-2.5439,-2.5602,-2.5073,-2.5885,-2.6616,-2.6779,-2.7701,-2.83,-2.8287,-2.8705,-2.896,-2.8859,-2.9291,-2.9732,-3.0151,-3.022,-3.0451,-3.0843,-3.0947,-3.0986,-3.0986,-3.0986,-3.0986,-3.0986,-3.0986,-3.0986,-3.0986,-3.0986,-3.0986,-3.0986,-3.0986,-3.0936,-3.0823,-3.0823,-3.0748,-3.0583,-2.9819,-2.9498,-2.942,-2.8664,-2.8861,-2.9498,-2.7263,-2.7023,-2.6825,-2.6825,-2.6708,-2.6589,-2.6589,-2.6468,-2.6328,-2.622,-2.6202,-2.6202,-2.6202,-2.6007,-2.577,-2.5489,-2.5355,-2.5201,-2.5005,-2.5005,-2.5005,-2.5005,-2.5005,-2.5005,-2.5005,-2.5005,-2.5005,-2.5005,-2.5005,-2.5005,-2.5005,-2.5005,-2.5005,-2.5005,-2.5005,-2.5005,-2.5005,-2.5005,-2.5005,-2.4985,-2.4846,-2.4726,-2.4609,-2.4605,-2.4625,-2.4569,-2.4343,-2.3994,-2.3638,-2.3377,-2.374,-2.4227,-2.3877,-2.4115,-2.4579,-2.4826,-2.4952,-2.5125,-2.5452,-2.5519,-2.5508,-2.5508,-2.5258,-2.5005,-2.5005,-2.5005,-2.5005,-2.5005,-2.5005,-2.5005,-2.5005,-2.5005,-2.5005,-2.5005,-2.5222,-2.5412,-2.5493,-2.5968,-2.6552,-2.7199,-2.8071,-2.8554,-2.8476,-2.8918,-2.9215,-2.9282,-2.965,-3.0147,-3.0726,-3.0523,-3.0642,-3.1147,-3.1061,-3.0986,-3.0986,-3.0986,-3.0986,-3.0986,-3.0986,-3.0986,-3.0986,-3.0986,-3.0986,-3.0986,-3.0986,-3.0986,-3.0986,-3.0986,-3.0986,-3.0949,-3.0583,-3.0419,-3.0381,-2.9973,-3.0101,-3.0419]},{"header":{"parameterUnit":"m.s-1","parameterCategory":1,"la1":30.6,"la2":28.766,"lo1":-90.7593,"lo2":-88.6598,"dy":0.0162,"dx":0.0183,"nx":116,"ny":114,"refTime":"2023-02-26T06:00:00:Z","depth":0,"parameterNumber":3,"parameterNumberName":"V-component_of_WINDS"},"data":[0.0,0.0,0.0,0.0,0.0,0.0,0.0,0.0,0.0,0.0,0.0,0.0,0.0,0.0,0.0,0.0,0.0,0.0,0.0,0.0,0.0,0.0,0.0,0.0,0.0,0.0,0.0,0.0,0.0,0.0,0.0,0.0,0.0,0.0,0.0,0.0,0.0,0.0,0.0,0.0,0.0,0.0,0.0,0.0,0.0,0.0,0.0,0.0,0.0,0.0,0.0,0.0,0.0,0.0,0.0,0.0,0.0,0.0,0.0,0.0,0.0,0.0,0.0,0.0,0.0,0.0,0.0,0.0,0.0,0.0,0.0,0.0,0.0,0.0,0.0,0.0,0.0,0.0,0.0,0.0,0.0,0.0,0.0,0.0,0.0,0.0,0.0,0.0,0.0,0.0,0.0,0.0,0.0,0.0,0.0,0.0,0.0,0.0,0.0,0.0,0.0,0.0,0.0,0.0,0.0,0.0,0.0,0.0,0.0,0.0,0.0,0.0,0.0,0.0,0.0,0.0,0.0,0.0,0.0,0.0,0.0,0.0,0.0,0.0,0.0,0.0,0.0,0.0,0.0,0.0,0.0,0.0,0.0,0.0,0.0,0.0,0.0,0.0,0.0,0.0,0.0,0.0,0.0,0.0,0.0,0.0,0.0,0.0,0.0,0.0,0.0,0.0,0.0,0.0,0.0,0.0,0.0,0.0,0.0,0.0,0.0,0.0,0.0,0.0,0.0,0.0,0.0,0.0,0.0,0.0,0.0,0.0,0.0,0.0,0.0,0.0,0.0,0.0,0.0,0.0,0.0,0.0,0.0,0.0,0.0,0.0,0.0,0.0,0.0,0.0,0.0,0.0,0.0,0.0,0.0,0.0,0.0,0.0,0.0,0.0,0.0,0.0,0.0,0.0,0.0,0.0,0.0,0.0,0.0,0.0,0.0,0.0,0.0,0.0,0.0,0.0,0.0,0.0,0.0,0.0,0.0,0.0,0.0,0.0,0.0,0.0,0.0,0.0,0.0,0.0,0.0,0.0,0.0,0.0,0.0,0.0,0.0,0.0,0.0,0.0,0.0,0.0,0.0,0.0,0.0,0.0,0.0,0.0,0.0,0.0,0.0,0.0,0.0,0.0,0.0,0.0,0.0,0.0,0.0,0.0,0.0,0.0,0.0,0.0,0.0,0.0,0.0,0.0,0.0,0.0,0.0,0.0,0.0,0.0,0.0,0.0,0.0,0.0,0.0,0.0,0.0,0.0,0.0,0.0,0.0,0.0,0.0,0.0,0.0,0.0,0.0,0.0,0.0,0.0,0.0,0.0,0.0,0.0,0.0,0.0,0.0,0.0,0.0,0.0,0.0,0.0,0.0,0.0,0.0,0.0,0.0,0.0,0.0,0.0,0.0,0.0,0.0,0.0,0.0,0.0,0.0,0.0,0.0,0.0,0.0,0.0,0.0,0.0,0.0,0.0,0.0,0.0,0.0,0.0,0.0,0.0,0.0,0.0,0.0,0.0,0.0,0.0,0.0,0.0,0.0,0.0,0.0,0.0,0.0,0.0,0.0,0.0,0.0,0.0,0.0,0.0,0.0,0.0,0.0,0.0,0.0,0.0,0.0,0.0,0.0,0.0,0.0,0.0,0.0,0.0,0.0,0.0,0.0,0.0,0.0,0.0,0.0,0.0,0.0,0.0,0.0,0.0,0.0,0.0,0.0,0.0,0.0,0.0,0.0,0.0,0.0,0.0,0.0,0.0,0.0,0.0,0.0,0.0,0.0,0.0,0.0,0.0,0.0,0.0,0.0,0.0,0.0,0.0,0.0,0.0,0.0,0.0,0.0,0.0,0.0,0.0,0.0,0.0,0.0,0.0,0.0,0.0,0.0,0.0,0.0,0.0,0.0,0.0,0.0,0.0,0.0,0.0,0.0,0.0,0.0,0.0,0.0,0.0,0.0,0.0,0.0,0.0,0.0,0.0,0.0,0.0,0.0,0.0,0.0,0.0,0.0,0.0,0.0,0.0,0.0,0.0,0.0,0.0,0.0,0.0,0.0,0.0,0.0,0.0,0.0,0.0,0.0,0.0,0.0,0.0,0.0,0.0,0.0,0.0,0.0,0.0,0.0,0.0,0.0,0.0,0.0,0.0,0.0,0.0,0.0,0.0,0.0,0.0,0.0,0.0,0.0,0.0,0.0,0.0,0.0,0.0,0.0,0.0,0.0,0.0,0.0,0.0,0.0,0.0,0.0,0.0,0.0,0.0,0.0,0.0,0.0,0.0,0.0,0.0,0.0,0.0,0.0,0.0,0.0,0.0,0.0,0.0,0.0,0.0,0.0,0.0,0.0,0.0,0.0,0.0,0.0,0.0,0.0,0.0,0.0,0.0,0.0,0.0,0.0,0.0,0.0,0.0,0.0,0.0,0.0,0.0,0.0,0.0,0.0,0.0,0.0,0.0,0.0,0.0,0.0,0.0,0.0,0.0,0.0,0.0,0.0,0.0,0.0,0.0,0.0,0.0,0.0,0.0,0.0,0.0,0.0,0.0,0.0,0.0,0.0,0.0,0.0,0.0,0.0,0.0,0.0,0.0,0.0,0.0,0.0,0.0,0.0,0.0,0.0,0.0,0.0,0.0,0.0,0.0,0.0,0.0,0.0,0.0,0.0,0.0,0.0,0.0,0.0,0.0,0.0,0.0,0.0,0.0,0.0,0.0,0.0,0.0,0.0,0.0,0.0,0.0,0.0,0.0,0.0,0.0,0.0,0.0,0.0,0.0,0.0,0.0,0.0,0.0,0.0,0.0,0.0,0.0,0.0,0.0,0.0,0.0,0.0,0.0,0.0,0.0,0.0,0.0,0.0,0.0,0.0,0.0,0.0,0.0,0.0,0.0,0.0,0.0,0.0,0.0,0.0,0.0,0.0,0.0,0.0,0.0,0.0,0.0,0.0,0.0,0.0,0.0,0.0,0.0,0.0,0.0,0.0,0.0,0.0,0.0,0.0,0.0,0.0,0.0,0.0,0.0,0.0,0.0,0.0,0.0,0.0,0.0,0.0,0.0,0.0,0.0,0.0,0.0,0.0,0.0,0.0,0.0,0.0,0.0,0.0,0.0,0.0,0.0,0.0,0.0,0.0,0.0,0.0,0.0,0.0,0.0,0.0,0.0,0.0,0.0,0.0,0.0,0.0,0.0,0.0,0.0,0.0,0.0,0.0,0.0,0.0,0.0,0.0,0.0,0.0,0.0,0.0,0.0,0.0,0.0,0.0,0.0,0.0,0.0,0.0,0.0,0.0,0.0,0.0,0.0,0.0,0.0,0.0,0.0,0.0,0.0,0.0,0.0,0.0,0.0,0.0,0.0,0.0,0.0,0.0,0.0,0.0,0.0,0.0,0.0,0.0,0.0,0.0,0.0,0.0,0.0,0.0,0.0,0.0,0.0,0.0,0.0,0.0,0.0,0.0,0.0,0.0,0.0,0.0,0.0,0.0,0.0,0.0,0.0,0.0,0.0,0.0,0.0,0.0,0.0,0.0,0.0,0.0,0.0,0.0,0.0,0.0,0.0,0.0,0.0,0.0,0.0,0.0,0.0,0.0,0.0,0.0,0.0,0.0,0.0,0.0,0.0,0.0,0.0,0.0,0.0,0.0,0.0,0.0,0.0,0.0,0.0,0.0,0.0,0.0,0.0,0.0,0.0,0.0,0.0,0.0,0.0,0.0,0.0,0.0,0.0,0.0,0.0,0.0,0.0,0.0,0.0,0.0,0.0,0.0,0.0,0.0,0.0,0.0,0.0,0.0,0.0,0.0,0.0,0.0,0.0,0.0,0.0,0.0,0.0,0.0,0.0,0.0,0.0,0.0,0.0,0.0,0.0,0.0,0.0,0.0,0.0,0.0,0.0,0.0,0.0,0.0,0.0,0.0,0.0,0.0,0.0,0.0,0.0,0.0,0.0,0.0,0.0,0.0,0.0,0.0,0.0,0.0,0.0,0.0,0.0,0.0,0.0,0.0,0.0,0.0,0.0,0.0,0.0,0.0,0.0,0.0,0.0,0.0,0.0,0.0,0.0,0.0,0.0,0.0,0.0,0.0,0.0,0.0,0.0,0.0,0.0,0.0,0.0,0.0,0.0,0.0,0.0,0.0,0.0,0.0,0.0,0.0,0.0,0.0,0.0,0.0,0.0,0.0,0.0,0.0,0.0,0.0,0.0,0.0,0.0,0.0,0.0,0.0,0.0,0.0,0.0,0.0,0.0,0.0,0.0,0.0,0.0,0.0,0.0,0.0,0.0,0.0,0.0,0.0,0.0,0.0,0.0,0.0,0.0,0.0,0.0,0.0,0.0,0.0,0.0,0.0,0.0,0.0,0.0,0.0,0.0,0.0,0.0,0.0,0.0,0.0,0.0,0.0,0.0,0.0,0.0,0.0,0.0,0.0,0.0,0.0,0.0,0.0,0.0,0.0,0.0,0.0,0.0,0.0,0.0,0.0,0.0,0.0,0.0,0.0,0.0,0.0,0.0,0.0,0.0,0.0,0.0,0.0,0.0,0.0,0.0,0.0,0.0,0.0,0.0,0.0,0.0,0.0,0.0,0.0,0.0,0.0,0.0,0.0,0.0,0.0,0.0,0.0,0.0,0.0,0.0,0.0,0.0,0.0,0.0,0.0,0.0,0.0,0.0,0.0,0.0,0.0,0.0,0.0,0.0,0.0,0.0,0.0,0.0,0.0,0.0,0.0,0.0,0.0,0.0,0.0,0.0,0.0,0.0,0.0,0.0,0.0,0.0,0.0,0.0,0.0,0.0,0.0,0.0,0.0,0.0,0.0,0.0,0.0,0.0,0.0,0.0,0.0,0.0,0.0,0.0,0.0,0.0,0.0,0.0,0.0,0.0,0.0,0.0,0.0,0.0,0.0,0.0,0.0,0.0,0.0,0.0,0.0,0.0,0.0,0.0,0.0,0.0,0.0,0.0,0.0,0.0,0.0,0.0,0.0,0.0,0.0,0.0,0.0,0.0,0.0,0.0,0.0,0.0,0.0,0.0,0.0,0.0,0.0,0.0,0.0,0.0,0.0,0.0,0.0,0.0,0.0,0.0,0.0,0.0,0.0,0.0,0.0,0.0,0.0,0.0,0.0,0.0,0.0,0.0,0.0,0.0,0.0,0.0,0.0,0.0,0.0,0.0,0.0,0.0,0.0,0.0,0.0,0.0,0.0,0.0,0.0,0.0,0.0,0.0,0.0,0.0,0.0,0.0,0.0,0.0,0.0,0.0,0.0,0.0,0.0,0.0,0.0,0.0,0.0,0.0,0.0,0.0,0.0,0.0,0.0,0.0,0.0,0.0,0.0,0.0,0.0,0.0,0.0,0.0,0.0,0.0,0.0,0.0,0.0,0.0,0.0,0.0,0.0,0.0,0.0,0.0,0.0,0.0,0.0,0.0,0.0,0.0,0.0,0.0,0.0,0.0,0.0,0.0,0.0,0.0,0.0,0.0,0.0,0.0,0.0,0.0,0.0,0.0,0.0,0.0,0.0,0.0,0.0,0.0,0.0,0.0,0.0,0.0,0.0,0.0,0.0,0.0,0.0,0.0,0.0,0.0,0.0,0.0,0.0,0.0,0.0,0.0,0.0,0.0,0.0,0.0,0.0,0.0,0.0,0.0,0.0,0.0,0.0,0.0,0.0,0.0,0.0,0.0,0.0,0.0,0.0,0.0,0.0,0.0,0.0,0.0,0.0,0.0,0.0,0.0,0.0,0.0,0.0,0.0,0.0,0.0,0.0,0.0,0.0,0.0,0.0,0.0,0.0,0.0,0.0,0.0,0.0,0.0,0.0,0.0,0.0,0.0,0.0,0.0,0.0,0.0,0.0,0.0,0.0,0.0,0.0,0.0,0.0,0.0,0.0,0.0,0.0,0.0,0.0,0.0,0.0,0.0,0.0,0.0,0.0,0.0,0.0,0.0,0.0,0.0,0.0,0.0,0.0,0.0,0.0,0.0,0.0,0.0,0.0,0.0,0.0,0.0,0.0,0.0,0.0,0.0,0.0,0.0,0.0,0.0,0.0,0.0,0.0,0.0,0.0,0.0,0.0,0.0,0.0,0.0,0.0,0.0,0.0,0.0,-2.2914,-2.2914,0.0,0.0,0.0,0.0,0.0,0.0,0.0,0.0,0.0,0.0,0.0,0.0,0.0,0.0,0.0,0.0,0.0,0.0,0.0,0.0,0.0,0.0,0.0,0.0,0.0,0.0,0.0,0.0,0.0,0.0,0.0,0.0,0.0,0.0,0.0,0.0,0.0,0.0,0.0,0.0,0.0,0.0,0.0,0.0,0.0,0.0,0.0,0.0,0.0,0.0,0.0,0.0,0.0,0.0,0.0,0.0,0.0,0.0,0.0,0.0,0.0,0.0,0.0,0.0,0.0,0.0,0.0,0.0,0.0,0.0,0.0,0.0,0.0,0.0,0.0,0.0,0.0,0.0,0.0,0.0,0.0,0.0,0.0,0.0,0.0,0.0,0.0,0.0,0.0,0.0,0.0,0.0,0.0,0.0,0.0,0.0,0.0,0.0,0.0,0.0,0.0,0.0,0.0,0.0,0.0,0.0,0.0,0.0,0.0,0.0,0.0,0.0,0.0,0.0,-2.3982,-2.3847,0.0,0.0,0.0,0.0,0.0,0.0,0.0,0.0,0.0,0.0,0.0,0.0,0.0,0.0,0.0,0.0,0.0,0.0,0.0,0.0,0.0,0.0,0.0,0.0,0.0,0.0,0.0,0.0,0.0,0.0,0.0,0.0,0.0,0.0,0.0,0.0,0.0,0.0,0.0,0.0,0.0,0.0,0.0,0.0,0.0,0.0,0.0,0.0,0.0,0.0,0.0,0.0,0.0,0.0,0.0,0.0,0.0,0.0,0.0,0.0,0.0,0.0,0.0,0.0,0.0,0.0,0.0,0.0,0.0,0.0,0.0,0.0,0.0,0.0,0.0,0.0,0.0,0.0,0.0,0.0,0.0,0.0,0.0,0.0,0.0,0.0,0.0,0.0,0.0,0.0,0.0,0.0,0.0,0.0,0.0,0.0,0.0,0.0,0.0,0.0,0.0,0.0,0.0,0.0,0.0,0.0,0.0,0.0,-2.398,-2.429,-2.4728,-2.4728,-2.4889,-2.5187,-2.5279,-2.5038,-2.4625,-2.5027,0.0,0.0,0.0,0.0,0.0,0.0,0.0,0.0,0.0,0.0,0.0,0.0,0.0,0.0,0.0,0.0,0.0,0.0,0.0,0.0,0.0,0.0,0.0,0.0,0.0,0.0,0.0,0.0,0.0,0.0,0.0,0.0,0.0,0.0,0.0,0.0,0.0,0.0,0.0,0.0,0.0,0.0,0.0,0.0,0.0,0.0,0.0,0.0,0.0,0.0,0.0,0.0,0.0,0.0,0.0,0.0,0.0,0.0,0.0,0.0,0.0,0.0,0.0,0.0,0.0,0.0,0.0,0.0,0.0,0.0,0.0,0.0,0.0,0.0,0.0,0.0,0.0,0.0,0.0,0.0,0.0,0.0,0.0,0.0,0.0,0.0,-2.3924,-2.3271,0.0,0.0,0.0,0.0,0.0,0.0,0.0,0.0,0.0,0.0,0.0,0.0,0.0,-2.3787,-2.3316,-2.468,-2.5417,-2.5429,-2.6273,-2.6732,-2.6789,-2.6789,-2.6622,-2.6329,-2.6726,0.0,-2.6214,-2.6272,0.0,0.0,0.0,0.0,0.0,0.0,0.0,0.0,0.0,0.0,0.0,0.0,0.0,0.0,0.0,0.0,0.0,0.0,0.0,0.0,0.0,0.0,0.0,0.0,0.0,0.0,0.0,0.0,0.0,0.0,0.0,0.0,0.0,0.0,0.0,0.0,0.0,0.0,0.0,0.0,0.0,0.0,0.0,0.0,0.0,0.0,0.0,0.0,0.0,0.0,0.0,0.0,0.0,0.0,0.0,0.0,0.0,0.0,0.0,0.0,0.0,0.0,0.0,0.0,0.0,0.0,0.0,0.0,0.0,0.0,0.0,0.0,0.0,0.0,0.0,0.0,0.0,0.0,0.0,0.0,0.0,0.0,0.0,0.0,0.0,-2.3668,-2.3584,-2.3087,-2.289,-2.2582,0.0,0.0,0.0,0.0,0.0,0.0,0.0,0.0,0.0,-2.3193,-2.4114,-2.4636,-2.468,-2.5658,-2.6129,-2.614,-2.6588,-2.6944,-2.719,-2.719,-2.7105,-2.6921,-2.7438,-2.7562,-2.739,-2.6436,-2.6658,-2.7364,0.0,0.0,0.0,0.0,-2.7492,-2.8122,0.0,0.0,0.0,0.0,0.0,0.0,0.0,0.0,0.0,0.0,0.0,0.0,0.0,0.0,0.0,0.0,0.0,0.0,0.0,0.0,0.0,0.0,0.0,0.0,0.0,0.0,0.0,0.0,0.0,0.0,0.0,0.0,0.0,0.0,0.0,0.0,0.0,0.0,0.0,0.0,0.0,0.0,0.0,0.0,0.0,0.0,0.0,0.0,0.0,0.0,0.0,0.0,0.0,0.0,0.0,0.0,0.0,0.0,0.0,0.0,0.0,0.0,0.0,0.0,0.0,0.0,0.0,0.0,0.0,0.0,0.0,0.0,0.0,0.0,0.0,0.0,0.0,-2.3618,-2.3899,-2.3199,-2.3415,-2.3295,0.0,0.0,0.0,0.0,0.0,0.0,-2.3162,-2.3139,-2.3372,-2.3925,-2.4949,-2.5635,-2.5899,-2.6404,-2.6657,-2.6657,-2.6657,-2.6864,-2.719,-2.719,-2.719,-2.7213,-2.7621,-2.8005,-2.8258,-2.6885,-2.696,-2.7768,-2.5973,-2.6159,-2.7485,-2.7532,-2.8069,-2.8839,0.0,0.0,0.0,0.0,0.0,0.0,0.0,0.0,0.0,0.0,0.0,0.0,0.0,0.0,0.0,0.0,0.0,0.0,0.0,0.0,0.0,0.0,0.0,0.0,0.0,0.0,0.0,0.0,0.0,0.0,0.0,0.0,0.0,0.0,0.0,0.0,0.0,0.0,0.0,0.0,0.0,0.0,0.0,0.0,0.0,0.0,0.0,0.0,0.0,0.0,0.0,0.0,0.0,0.0,0.0,0.0,0.0,0.0,0.0,0.0,0.0,0.0,0.0,0.0,0.0,0.0,0.0,0.0,0.0,0.0,0.0,0.0,0.0,0.0,0.0,0.0,0.0,0.0,0.0,-2.4381,-2.5083,0.0,0.0,0.0,0.0,-2.3385,-2.2034,-2.2083,-2.4107,-2.4033,-2.4244,-2.4893,-2.6337,-2.6887,-2.6467,-2.6932,-2.7144,-2.7144,-2.7144,-2.7167,-2.719,-2.719,-2.719,-2.719,-2.7213,-2.7877,-2.8845,-2.8269,-2.7876,-2.7508,-2.741,-2.7483,-2.7742,-2.8262,-2.8895,-2.954,0.0,0.0,0.0,0.0,0.0,0.0,0.0,0.0,0.0,0.0,0.0,0.0,0.0,0.0,0.0,0.0,0.0,0.0,0.0,0.0,0.0,0.0,0.0,0.0,0.0,0.0,0.0,0.0,0.0,0.0,0.0,0.0,0.0,0.0,0.0,0.0,0.0,0.0,0.0,0.0,0.0,0.0,0.0,0.0,0.0,0.0,0.0,0.0,0.0,0.0,0.0,0.0,0.0,0.0,0.0,0.0,0.0,0.0,0.0,0.0,0.0,0.0,0.0,0.0,0.0,0.0,0.0,0.0,0.0,0.0,0.0,0.0,0.0,0.0,0.0,0.0,0.0,0.0,0.0,-2.399,-2.4251,0.0,-2.365,-2.3102,-2.315,-2.4013,-2.3542,-2.3568,-2.4378,-2.4591,-2.485,-2.5102,-2.6171,-2.6806,-2.6955,-2.7139,-2.719,-2.719,-2.719,-2.719,-2.719,-2.719,-2.7423,-2.7846,-2.7413,-2.7948,-2.9056,-2.8485,-2.8388,-2.8462,-2.7821,-2.7881,-2.8295,-2.851,-2.9008,-2.9602,0.0,0.0,0.0,0.0,0.0,0.0,0.0,0.0,0.0,0.0,0.0,0.0,0.0,0.0,0.0,0.0,0.0,0.0,0.0,0.0,0.0,0.0,0.0,0.0,0.0,0.0,0.0,0.0,0.0,0.0,0.0,0.0,0.0,0.0,0.0,0.0,0.0,0.0,0.0,0.0,0.0,0.0,-2.2058,0.0,0.0,0.0,0.0,0.0,0.0,0.0,0.0,0.0,0.0,0.0,0.0,0.0,0.0,0.0,0.0,0.0,0.0,0.0,0.0,0.0,0.0,0.0,0.0,0.0,0.0,0.0,0.0,0.0,0.0,0.0,0.0,0.0,0.0,0.0,-2.4418,-2.3794,-2.4191,-2.4358,-2.3969,-2.3599,-2.3745,-2.4619,-2.4393,-2.4366,-2.4721,-2.497,-2.5228,-2.5415,-2.6138,-2.6713,-2.719,-2.719,-2.719,-2.719,-2.7059,-2.6967,-2.6967,-2.6944,-2.721,-2.762,-2.7406,-2.7937,-2.8871,-2.8455,-2.8526,-2.8797,-2.8113,-2.8168,-2.8587,-2.8587,-2.9004,-2.9602,0.0,0.0,0.0,0.0,0.0,0.0,0.0,0.0,0.0,0.0,0.0,0.0,0.0,0.0,0.0,0.0,0.0,0.0,0.0,0.0,0.0,0.0,0.0,0.0,0.0,0.0,0.0,0.0,0.0,0.0,0.0,0.0,0.0,0.0,0.0,0.0,0.0,0.0,0.0,0.0,0.0,0.0,-2.2479,0.0,0.0,0.0,0.0,0.0,0.0,0.0,0.0,0.0,0.0,0.0,0.0,0.0,0.0,0.0,0.0,0.0,0.0,0.0,0.0,0.0,0.0,0.0,0.0,0.0,0.0,0.0,0.0,0.0,0.0,0.0,0.0,0.0,-2.3348,-2.4387,-2.4786,-2.383,-2.5062,-2.5559,-2.4581,-2.4146,-2.4284,-2.5126,-2.4388,-2.4284,-2.5126,-2.52,-2.5422,-2.5853,-2.6279,-2.6682,-2.7179,-2.7156,-2.7144,-2.7156,-2.6691,-2.6478,-2.6507,-2.6517,-2.6498,-2.6574,-2.7162,-2.7754,-2.8314,-2.8301,-2.8328,-2.8381,-2.8407,-2.8472,-2.8587,-2.8587,-2.9004,-2.9602,0.0,0.0,0.0,0.0,0.0,0.0,0.0,0.0,0.0,0.0,0.0,0.0,0.0,0.0,0.0,0.0,0.0,0.0,0.0,0.0,0.0,0.0,0.0,0.0,0.0,0.0,0.0,0.0,0.0,0.0,0.0,0.0,0.0,0.0,0.0,0.0,0.0,0.0,0.0,0.0,0.0,0.0,-2.2621,0.0,0.0,0.0,0.0,0.0,0.0,0.0,0.0,0.0,0.0,0.0,0.0,0.0,0.0,0.0,0.0,0.0,0.0,0.0,0.0,0.0,0.0,0.0,0.0,0.0,0.0,0.0,0.0,0.0,0.0,0.0,0.0,-2.5301,-2.4512,-2.4298,-2.4147,-2.3897,-2.4471,-2.4814,-2.4507,-2.4394,-2.4448,-2.4647,-2.4469,-2.4458,-2.47,-2.5031,-2.5242,-2.5369,-2.5782,-2.6221,-2.6704,-2.6325,-2.6313,-2.6708,-2.6163,-2.6144,-2.6494,-2.6493,-2.7,-2.7791,-2.7585,-2.7802,-2.8339,-2.789,-2.7733,-2.7798,-2.8216,-2.8472,-2.8587,-2.8587,-2.9004,-2.9602,0.0,0.0,0.0,0.0,0.0,0.0,0.0,0.0,0.0,0.0,0.0,0.0,0.0,0.0,0.0,0.0,0.0,0.0,0.0,0.0,0.0,0.0,0.0,0.0,0.0,0.0,0.0,0.0,0.0,0.0,0.0,0.0,0.0,0.0,0.0,0.0,0.0,0.0,0.0,0.0,0.0,0.0,-2.2933,-2.4239,-2.5259,-2.6115,-2.7057,-2.7827,-2.8411,-2.8411,0.0,0.0,0.0,0.0,0.0,0.0,0.0,0.0,0.0,0.0,0.0,0.0,0.0,0.0,0.0,0.0,0.0,0.0,0.0,0.0,0.0,0.0,0.0,0.0,-2.5748,-2.6152,-2.6021,-2.509,-2.4376,-2.4168,-2.4342,-2.4497,-2.4497,-2.4497,-2.4497,-2.4497,-2.4497,-2.4497,-2.4497,-2.4743,-2.4904,-2.4902,-2.5131,-2.5481,-2.5923,-2.5599,-2.5698,-2.614,-2.5624,-2.5675,-2.6227,-2.6248,-2.6771,-2.763,-2.7544,-2.7713,-2.8007,-2.7633,-2.749,-2.7529,0.0,0.0,0.0,0.0,-2.9049,-2.9602,0.0,0.0,0.0,0.0,0.0,0.0,0.0,0.0,0.0,0.0,0.0,0.0,0.0,0.0,0.0,0.0,0.0,0.0,0.0,0.0,0.0,0.0,0.0,0.0,0.0,0.0,0.0,0.0,0.0,0.0,0.0,0.0,0.0,0.0,0.0,0.0,0.0,0.0,0.0,0.0,0.0,0.0,-2.3356,-2.4357,-2.5378,-2.6409,-2.7257,-2.7883,-2.836,-2.851,0.0,0.0,0.0,0.0,0.0,0.0,0.0,0.0,0.0,0.0,0.0,0.0,0.0,0.0,0.0,0.0,0.0,0.0,0.0,0.0,0.0,0.0,0.0,0.0,-2.6403,-2.6611,-2.739,-2.6347,-2.5265,-2.4723,-2.4531,-2.4445,-2.4497,-2.4456,-2.4445,-2.4497,-2.4497,-2.4476,-2.4425,-2.4425,0.0,0.0,0.0,-2.4522,-2.4954,-2.4921,-2.5131,-2.5547,-2.5122,-2.524,-2.5803,-2.5954,-2.6289,-2.6829,-2.7289,-2.749,-2.749,-2.749,-2.7536,-2.757,-2.759,-2.7615,-2.7695,-2.8432,-2.904,-2.949,0.0,0.0,0.0,0.0,0.0,0.0,0.0,0.0,0.0,0.0,0.0,0.0,0.0,0.0,0.0,0.0,0.0,0.0,0.0,0.0,0.0,0.0,0.0,0.0,0.0,0.0,0.0,0.0,0.0,0.0,0.0,0.0,0.0,0.0,0.0,0.0,0.0,0.0,0.0,0.0,0.0,0.0,-2.3655,-2.5047,-2.561,-2.592,-2.7784,-2.8215,-2.8082,-2.9173,-2.9036,-2.8468,-2.885,0.0,0.0,0.0,0.0,0.0,0.0,0.0,0.0,0.0,0.0,0.0,0.0,0.0,0.0,0.0,0.0,0.0,0.0,0.0,0.0,-2.6436,-2.7513,-2.8014,-2.7081,-2.7061,-2.6724,-2.5692,-2.4619,-2.4146,-2.4466,-2.4219,-2.4157,-2.4476,-2.4497,-2.4342,-2.4022,-2.4002,-2.3836,-2.344,-2.3385,-2.3588,-2.4054,-2.3924,-2.4161,-2.4657,-2.4875,0.0,-2.5916,-2.6339,-2.685,-2.7356,-2.7456,-2.749,-2.749,-2.749,-2.7703,-2.8013,-2.8262,-2.8047,-2.7695,-2.8432,-2.8759,-2.8788,0.0,0.0,0.0,0.0,0.0,0.0,0.0,0.0,0.0,0.0,0.0,0.0,0.0,0.0,0.0,0.0,0.0,0.0,0.0,0.0,0.0,0.0,0.0,0.0,0.0,0.0,0.0,0.0,0.0,0.0,0.0,0.0,0.0,0.0,0.0,0.0,0.0,0.0,0.0,0.0,0.0,0.0,-2.4328,-2.5177,-2.5681,-2.6097,-2.7198,-2.7655,-2.7859,-2.8888,-2.8888,-2.8626,-2.9605,-2.9405,-2.8803,0.0,0.0,0.0,0.0,0.0,0.0,0.0,0.0,0.0,0.0,0.0,0.0,0.0,0.0,-2.5222,0.0,0.0,-2.6,-2.7105,-2.7745,-2.795,-2.7521,-2.7318,-2.6667,-2.5227,-2.4508,-2.4039,-2.3878,-2.367,-2.3619,-2.3846,-2.3867,-2.3764,-2.3546,-2.3536,-2.3318,-2.2853,-2.2812,-2.291,-2.3094,-2.38,-2.4237,-2.4411,-2.5397,-2.6014,-2.6324,-2.6577,-2.6985,-2.749,-2.749,-2.749,-2.7477,-2.7223,-2.7301,-2.76,-2.7674,-2.7771,-2.7889,-2.7795,-2.7959,-2.8171,0.0,0.0,0.0,0.0,0.0,0.0,0.0,0.0,0.0,0.0,0.0,0.0,0.0,0.0,0.0,0.0,0.0,0.0,0.0,0.0,0.0,0.0,0.0,0.0,0.0,0.0,0.0,0.0,0.0,0.0,0.0,0.0,0.0,0.0,0.0,0.0,0.0,0.0,0.0,0.0,0.0,0.0,-2.5173,-2.5346,-2.5776,-2.6296,-2.662,-2.7039,-2.7591,-2.8432,-2.8514,-2.8522,-2.9948,-2.9852,-2.915,-2.8669,-2.8366,0.0,0.0,0.0,0.0,0.0,0.0,0.0,0.0,0.0,-2.6746,-2.633,-2.5915,-2.578,-2.6232,-2.5749,-2.5875,-2.7657,-2.7657,-2.7557,-2.7896,-2.7361,-2.6273,-2.4647,-2.4346,-2.4046,-2.3389,-2.3236,-2.3184,-2.3184,-2.3184,-2.3153,-2.306,-2.3049,-2.2842,-2.2377,-2.2366,-2.2412,-2.2515,-2.3813,-2.4508,-2.4528,-2.5959,-2.6679,-2.6679,-2.6829,-2.7087,-2.749,-2.749,-2.749,-2.7464,-2.7027,-2.6959,-2.7107,-2.686,-2.7226,-2.7748,-2.7071,-2.7144,-2.7495,0.0,0.0,0.0,0.0,0.0,0.0,0.0,0.0,0.0,0.0,0.0,0.0,0.0,0.0,0.0,0.0,0.0,0.0,0.0,0.0,0.0,0.0,0.0,0.0,0.0,0.0,0.0,0.0,0.0,0.0,0.0,0.0,0.0,0.0,0.0,0.0,0.0,0.0,0.0,0.0,0.0,0.0,-2.6061,-2.6154,-2.6025,-2.5933,-2.7145,-2.7315,-2.7172,-2.8396,-2.8201,-2.7651,-2.8888,-2.885,-2.8329,-2.8262,0.0,-2.6916,-2.5669,-2.5002,-2.5023,-2.6596,-2.7089,-2.7581,0.0,0.0,-2.8198,-2.7045,-2.7045,-2.694,-2.5883,-2.6414,-2.7092,-2.7331,-2.7733,-2.7871,-2.7444,-2.7297,-2.667,-2.5123,-2.4554,-2.4175,-2.3836,-2.3422,-2.3184,-2.3184,-2.3184,-2.3008,-2.2594,-2.2573,-2.2366,-2.1901,-2.188,-2.2229,-2.2927,-2.3464,-2.415,-2.4933,-2.5945,-2.6524,-2.6726,-2.7188,-2.7423,-2.749,-2.749,-2.749,-2.749,-2.7425,-2.7315,-2.717,-2.6829,-2.6676,-2.6631,-2.6749,-2.6849,-2.6821,0.0,0.0,0.0,0.0,0.0,0.0,0.0,0.0,0.0,0.0,0.0,0.0,0.0,0.0,0.0,0.0,0.0,0.0,0.0,0.0,0.0,0.0,0.0,0.0,0.0,0.0,0.0,0.0,0.0,0.0,0.0,0.0,0.0,0.0,0.0,0.0,0.0,0.0,0.0,0.0,0.0,0.0,-2.6203,-2.6222,-2.5923,-2.5607,-2.6687,-2.6885,0.0,0.0,-2.7788,-2.7601,-2.8953,-2.8894,-2.8261,-2.7938,-2.7598,0.0,-2.6271,-2.6222,0.0,0.0,-2.8101,-2.8906,-2.9652,-2.9275,-2.8581,-2.8002,-2.7455,-2.6897,-2.6252,-2.6275,-2.6463,0.0,-2.7027,-2.6989,-2.6377,-2.6302,-2.5983,-2.504,-2.4767,-2.4254,-2.3314,-2.2726,-2.2387,-2.2387,-2.2387,-2.2304,-2.2108,-2.2097,-2.2234,-2.2478,-2.2515,-2.2879,-2.3621,-2.4686,-2.5302,-2.5487,-2.6776,-2.7306,-2.7154,-2.739,-2.749,-2.749,-2.749,-2.749,-2.7438,-2.6772,-2.6577,-2.6592,-2.597,-2.5775,-2.591,-2.6176,-2.6287,-2.6188,0.0,0.0,0.0,0.0,0.0,0.0,0.0,0.0,0.0,0.0,0.0,0.0,0.0,0.0,0.0,0.0,0.0,0.0,0.0,0.0,0.0,0.0,0.0,0.0,0.0,0.0,0.0,0.0,0.0,0.0,0.0,0.0,0.0,0.0,0.0,0.0,0.0,0.0,0.0,0.0,0.0,0.0,-2.6365,-2.606,-2.5679,-2.5364,-2.6,-2.6201,0.0,0.0,-2.7052,-2.7291,-2.8574,-2.8566,-2.8001,-2.7593,-2.7187,-2.683,-2.6545,0.0,0.0,-2.8021,-2.8961,-2.9807,-2.9855,-2.9259,-2.8626,-2.8415,-2.779,-2.7187,-2.691,-2.6345,-2.6155,-2.6684,-2.6371,-2.5946,-2.5636,-2.5598,-2.5434,-2.5047,-2.5004,-2.4479,-2.3176,-2.2557,-2.2133,-2.1818,-2.1807,-2.1807,-2.1807,-2.1807,-2.2176,-2.2964,-2.3001,-2.346,-2.4409,-2.5553,-2.6124,-2.6126,-2.7092,-2.7457,-2.7255,-2.7098,-2.7111,-2.7288,-2.7098,-2.7033,-2.6955,-2.6132,-2.5844,-2.5883,-2.5327,-2.5225,-2.5397,-2.5688,-2.5853,-2.5837,0.0,0.0,0.0,0.0,0.0,0.0,0.0,0.0,0.0,0.0,0.0,0.0,0.0,0.0,0.0,0.0,0.0,0.0,0.0,0.0,0.0,0.0,0.0,0.0,0.0,0.0,0.0,0.0,0.0,0.0,0.0,0.0,0.0,0.0,0.0,0.0,0.0,0.0,0.0,0.0,0.0,0.0,-2.6771,-2.5715,-2.528,-2.5213,-2.523,0.0,0.0,0.0,-2.5711,-2.6369,-2.7133,-2.7348,0.0,-2.7165,-2.6295,0.0,0.0,0.0,-2.7798,-2.9039,-2.9498,-2.9741,-3.0355,-2.954,-2.8539,-2.7966,-2.8197,-2.8365,-2.7765,-2.7138,-2.6856,-2.7379,-2.5997,-2.5046,-2.5523,-2.5598,-2.5511,-2.5301,-2.5277,-2.4909,0.0,-2.3556,-2.2941,-2.1877,-2.1807,-2.1807,-2.1807,-2.1807,-2.2176,-2.2964,-2.3001,-2.3717,-2.5241,-2.5324,-2.5886,-2.6943,-2.6414,-2.6355,-2.6706,-2.6125,-2.6177,-2.6706,-2.6112,-2.5845,-2.5845,-2.5806,-2.5497,-2.5048,-2.5309,-2.5231,-2.5075,-2.5397,-2.5674,-2.5893,0.0,0.0,0.0,0.0,0.0,0.0,0.0,0.0,0.0,0.0,0.0,0.0,0.0,0.0,0.0,0.0,0.0,0.0,0.0,0.0,0.0,0.0,0.0,0.0,0.0,0.0,0.0,0.0,0.0,0.0,0.0,0.0,0.0,0.0,0.0,0.0,0.0,0.0,0.0,0.0,0.0,0.0,-2.6607,-2.6235,-2.5799,-2.5329,0.0,0.0,0.0,0.0,0.0,0.0,-2.6336,0.0,0.0,-2.5627,0.0,0.0,0.0,0.0,-2.7255,-2.8177,-2.8604,-2.9107,-3.0182,-2.9526,-2.8768,-2.8944,-2.8484,-2.7826,-2.7209,-2.6846,-2.645,-2.5874,-2.5537,-2.5146,-2.4607,-2.4436,-2.4464,-2.4739,-2.4672,0.0,0.0,0.0,0.0,-2.1856,-2.1807,-2.2025,-2.2553,-2.259,-2.28,-2.3304,-2.4114,-2.4637,-2.4817,-2.5667,-2.6183,-2.6401,-2.6052,-2.5972,-2.6112,-2.5871,-2.5897,-2.6099,-2.5871,-2.5793,-2.5767,-2.5419,-2.5175,-2.4983,-2.4858,-2.4882,-2.5033,-2.5383,-2.5674,-2.5893,0.0,0.0,0.0,0.0,0.0,0.0,0.0,0.0,0.0,0.0,0.0,0.0,0.0,0.0,0.0,0.0,0.0,0.0,0.0,0.0,0.0,0.0,0.0,0.0,0.0,0.0,0.0,0.0,0.0,0.0,0.0,0.0,0.0,0.0,0.0,0.0,0.0,0.0,0.0,0.0,0.0,0.0,-2.6449,-2.5982,-2.5664,0.0,0.0,0.0,0.0,0.0,0.0,0.0,0.0,0.0,0.0,0.0,0.0,0.0,0.0,-2.6555,-2.7296,-2.8033,-2.8443,-2.8956,-3.0038,-2.9399,-2.8749,-2.9456,-2.8548,-2.7525,-2.7197,-2.6858,-2.634,-2.5382,-2.5306,-2.5046,-2.4123,-2.3898,-2.3928,-2.4277,-2.4404,-2.4566,0.0,0.0,0.0,-2.2279,-2.1949,-2.1952,-2.2306,-2.2555,-2.2728,-2.2819,-2.4025,-2.4566,-2.4331,-2.5638,-2.6143,-2.5884,-2.5628,-2.5511,-2.5511,-2.5271,-2.5328,-2.5511,-2.5301,-2.5179,-2.5153,-2.4818,-2.4661,-2.4652,-2.4435,-2.4622,-2.5033,-2.5257,-2.5578,-2.5893,0.0,0.0,0.0,0.0,0.0,0.0,0.0,0.0,0.0,0.0,0.0,0.0,0.0,0.0,0.0,0.0,0.0,0.0,0.0,0.0,0.0,0.0,0.0,0.0,0.0,0.0,0.0,0.0,0.0,0.0,0.0,0.0,0.0,0.0,0.0,0.0,0.0,0.0,0.0,0.0,0.0,0.0,-2.6327,-2.5077,0.0,0.0,0.0,0.0,0.0,0.0,0.0,0.0,0.0,0.0,0.0,0.0,0.0,-2.5781,-2.6461,-2.7145,-2.781,-2.854,-2.8836,-2.9152,-2.9872,-2.9138,-2.8541,-2.9392,-2.8453,-2.7546,0.0,0.0,-2.6595,-2.5904,-2.5372,-2.481,-2.4085,-2.3979,-2.3966,0.0,0.0,0.0,0.0,0.0,0.0,-2.2962,-2.2241,-2.1611,-2.1213,-2.1773,-2.1969,-2.1664,-2.2887,-2.3622,-2.3743,-2.5128,-2.5684,-2.5451,-2.5123,-2.4953,-2.4926,-2.436,-2.4413,-2.4926,-2.4347,-2.4083,-2.4083,-2.4083,-2.4083,-2.4083,-2.4083,-2.4447,-2.4977,-2.4977,-2.537,-2.5866,0.0,0.0,0.0,0.0,0.0,0.0,0.0,0.0,0.0,0.0,0.0,0.0,0.0,0.0,0.0,0.0,0.0,0.0,0.0,0.0,0.0,0.0,0.0,0.0,0.0,0.0,0.0,0.0,0.0,0.0,0.0,0.0,0.0,0.0,0.0,0.0,0.0,0.0,0.0,0.0,0.0,0.0,-2.5848,0.0,0.0,0.0,0.0,0.0,0.0,0.0,0.0,0.0,0.0,0.0,-2.5587,0.0,0.0,-2.5932,-2.6129,-2.644,-2.6848,-2.7399,-2.7264,-2.7408,-2.8925,-2.8731,-2.8419,-2.9149,-2.8328,-2.7484,0.0,0.0,0.0,-2.5904,-2.5688,0.0,-2.4148,-2.3548,0.0,-2.3941,0.0,-2.3979,-2.3981,-2.3254,0.0,0.0,-2.2062,-2.201,-2.2482,-2.2357,-2.2278,-2.2355,-2.2785,-2.3079,-2.32,-2.4242,-2.4833,-2.4908,-2.4519,-2.4334,-2.4321,-2.4178,-2.4191,-2.4321,-2.4178,-2.4083,-2.4083,-2.4083,-2.4083,-2.4083,-2.4083,-2.4319,-2.4666,-2.4907,-2.5244,-2.5619,0.0,0.0,0.0,0.0,0.0,0.0,0.0,0.0,0.0,0.0,0.0,0.0,0.0,0.0,0.0,0.0,0.0,0.0,0.0,0.0,0.0,0.0,0.0,0.0,0.0,0.0,0.0,0.0,0.0,0.0,0.0,0.0,0.0,0.0,0.0,0.0,0.0,0.0,0.0,0.0,0.0,0.0,0.0,0.0,0.0,0.0,0.0,0.0,0.0,0.0,0.0,-2.6403,-2.5992,-2.6012,-2.6026,-2.5308,0.0,-2.5807,-2.5807,-2.5919,-2.6109,-2.6386,-2.6467,-2.6824,-2.8142,-2.8211,-2.8208,-2.9003,-2.7992,0.0,0.0,0.0,0.0,0.0,0.0,0.0,-2.4223,-2.3423,-2.3142,0.0,-2.3263,0.0,-2.3425,-2.245,-2.1854,0.0,-2.148,-2.1381,-2.1811,-2.1721,-2.1476,-2.1062,-2.173,-2.243,-2.3218,-2.3851,-2.4395,-2.4823,-2.4327,-2.4083,-2.4083,-2.4083,-2.4083,-2.4083,-2.4083,-2.4083,-2.4083,-2.4083,-2.4083,-2.4083,-2.4083,-2.4261,-2.4551,-2.4878,-2.5216,-2.5578,0.0,0.0,0.0,0.0,0.0,0.0,0.0,0.0,0.0,0.0,0.0,0.0,0.0,0.0,0.0,0.0,0.0,0.0,0.0,0.0,0.0,0.0,0.0,0.0,0.0,0.0,0.0,0.0,0.0,0.0,0.0,0.0,0.0,0.0,0.0,0.0,0.0,0.0,0.0,0.0,0.0,0.0,0.0,0.0,0.0,0.0,0.0,0.0,0.0,0.0,-2.6857,-2.7095,-2.7038,-2.6842,-2.6534,-2.588,-2.5677,-2.5637,-2.5637,-2.5675,-2.5694,-2.5656,-2.6127,-2.6792,-2.7413,-2.764,-2.7899,-2.8643,0.0,-2.6451,-2.6462,0.0,-2.6854,-2.5089,0.0,-2.6109,-2.4241,-2.3534,-2.3195,-2.3108,-2.2525,-2.2262,-2.2711,-2.1515,-2.0892,-2.1348,-2.0663,-2.0296,-2.0385,-2.0639,-2.0238,-1.9119,-2.0516,-2.1902,-2.3222,-2.3692,-2.4226,-2.4874,-2.4347,-2.4083,-2.4083,-2.4083,-2.4083,-2.4083,-2.4083,-2.4083,-2.4083,-2.4083,-2.4083,-2.4083,-2.4083,-2.4232,-2.4494,-2.4863,-2.5216,-2.5619,0.0,0.0,0.0,0.0,0.0,0.0,0.0,0.0,0.0,0.0,-2.2801,-2.2751,0.0,0.0,0.0,0.0,0.0,0.0,0.0,0.0,0.0,0.0,0.0,0.0,0.0,0.0,0.0,0.0,0.0,0.0,0.0,0.0,0.0,0.0,0.0,0.0,0.0,0.0,0.0,0.0,0.0,0.0,0.0,0.0,0.0,0.0,0.0,0.0,0.0,0.0,-2.7284,-2.7038,-2.6636,-2.6234,-2.5863,-2.5733,-2.5809,-2.5936,-2.5936,-2.61,-2.6207,-2.599,-2.6034,-2.6239,-2.676,-2.73,0.0,0.0,0.0,-2.6895,-2.588,-2.5938,0.0,-2.4953,0.0,0.0,0.0,0.0,-2.3665,0.0,0.0,0.0,0.0,0.0,0.0,0.0,-1.9622,-1.9634,-2.0343,-2.0454,-2.0063,-1.9129,-2.1101,-2.2099,-2.1945,-2.3248,-2.4031,-2.4256,-2.4164,-2.4083,-2.4083,-2.4083,-2.4083,-2.4083,-2.4083,-2.4083,-2.4083,-2.4083,-2.4083,-2.4083,-2.4083,-2.4141,-2.4245,-2.4778,-2.5244,-2.566,0.0,0.0,0.0,0.0,0.0,0.0,0.0,-2.3418,-2.3534,-2.3853,-2.3896,-2.3627,-2.296,-2.2888,0.0,0.0,0.0,0.0,0.0,0.0,0.0,0.0,0.0,0.0,0.0,0.0,0.0,0.0,0.0,0.0,0.0,0.0,0.0,0.0,0.0,0.0,0.0,0.0,0.0,0.0,0.0,0.0,0.0,0.0,0.0,0.0,0.0,0.0,0.0,0.0,-2.6457,-2.6546,-2.6657,-2.629,-2.5766,-2.5548,-2.5769,-2.6056,-2.5847,-2.6159,-2.643,-2.5924,-2.5624,-2.5554,-2.6018,0.0,0.0,0.0,0.0,-2.6206,-2.6099,0.0,0.0,0.0,0.0,0.0,0.0,0.0,0.0,0.0,0.0,0.0,0.0,0.0,-1.9547,-1.9453,-1.945,-1.9658,-2.0058,-1.9851,-1.9622,-1.9351,-2.108,-2.1928,-2.1865,-2.3275,-2.4037,-2.4083,-2.4083,-2.4083,-2.4083,-2.4083,-2.4083,-2.4083,-2.4083,-2.4083,-2.4083,-2.4083,-2.4083,-2.4083,-2.4083,-2.4083,-2.4141,-2.4565,-2.5105,-2.5701,0.0,0.0,0.0,0.0,0.0,0.0,0.0,-2.3775,-2.392,-2.4534,-2.4607,-2.423,-2.3229,-2.3113,-2.307,0.0,0.0,0.0,0.0,0.0,0.0,0.0,0.0,0.0,0.0,0.0,0.0,0.0,0.0,0.0,0.0,0.0,0.0,0.0,0.0,0.0,0.0,0.0,0.0,0.0,0.0,0.0,0.0,0.0,0.0,0.0,0.0,0.0,0.0,0.0,-2.5647,-2.5932,-2.6375,-2.6099,-2.5564,-2.5227,-2.554,-2.5928,-2.5607,-2.5942,-2.6246,-2.5666,-2.5203,-2.4977,-2.5259,-2.5238,0.0,0.0,-2.5466,-2.5439,-2.5916,0.0,0.0,0.0,0.0,0.0,0.0,0.0,0.0,0.0,0.0,0.0,0.0,0.0,0.0,-1.9108,-1.944,-1.9689,-1.9793,-1.9357,-1.9241,-1.9572,-2.089,-2.1772,-2.2101,-2.3424,-2.4083,-2.4083,-2.4083,-2.4083,-2.4083,-2.4083,-2.4083,-2.4083,-2.4083,-2.4083,-2.4083,-2.4083,-2.4083,-2.4083,-2.4083,-2.4083,-2.4141,-2.4478,-2.5063,-2.5823,0.0,0.0,0.0,0.0,0.0,0.0,0.0,-2.3374,-2.3229,-2.3891,-2.3978,-2.3934,-2.3818,-2.3804,-2.3572,0.0,0.0,0.0,0.0,0.0,0.0,0.0,0.0,0.0,0.0,0.0,0.0,0.0,0.0,0.0,0.0,0.0,0.0,0.0,0.0,0.0,0.0,0.0,0.0,0.0,0.0,0.0,0.0,0.0,0.0,0.0,0.0,0.0,0.0,0.0,0.0,-2.5376,-2.4956,-2.4768,-2.4701,-2.4695,0.0,0.0,-2.5244,-2.5296,-2.5327,-2.5244,-2.5056,-2.4819,-2.4487,0.0,0.0,0.0,-2.5175,-2.5269,-2.4326,-2.412,0.0,0.0,0.0,0.0,0.0,0.0,0.0,0.0,0.0,0.0,0.0,0.0,-1.9108,-1.9108,-1.9139,-1.9347,-1.9772,-1.9357,-1.9241,-1.9572,-2.089,-2.1772,-2.2101,-2.3424,-2.4083,-2.4083,-2.4083,-2.4083,-2.4083,-2.4083,-2.4083,-2.4083,-2.4083,-2.4083,-2.4083,-2.4083,-2.4083,-2.4083,-2.4083,-2.4083,-2.4171,-2.475,-2.5467,-2.624,0.0,0.0,0.0,0.0,0.0,0.0,-2.3789,-2.3673,-2.3876,-2.4907,-2.4689,-2.4602,-2.4994,-2.4718,-2.4384,0.0,0.0,0.0,0.0,0.0,0.0,0.0,0.0,0.0,0.0,0.0,0.0,0.0,0.0,0.0,0.0,0.0,0.0,0.0,0.0,0.0,0.0,0.0,0.0,0.0,0.0,0.0,0.0,0.0,0.0,0.0,0.0,0.0,0.0,0.0,0.0,0.0,-2.4177,-2.3971,0.0,0.0,-2.4955,-2.5542,-2.4887,-2.5278,-2.5665,-2.4866,-2.4388,-2.4152,-2.4281,0.0,0.0,-2.4064,-2.4208,-2.4279,-2.3978,-2.3598,-2.3432,0.0,0.0,0.0,0.0,0.0,0.0,0.0,0.0,0.0,0.0,0.0,-1.9108,-1.9108,-1.9108,-1.9258,-1.9647,-1.9302,-1.9215,-1.949,-2.0583,-2.1432,-2.1957,-2.3124,-2.3819,-2.4083,-2.4083,-2.4083,-2.4083,-2.4083,-2.4083,-2.4083,-2.4083,-2.4083,-2.4083,-2.4083,-2.4083,-2.4083,-2.4083,-2.4083,-2.4141,-2.4536,-2.5329,-2.6267,0.0,0.0,0.0,0.0,0.0,-2.3476,-2.4326,-2.4283,-2.4559,-2.5672,-2.54,-2.5187,-2.5473,-2.5473,-2.5357,-2.5114,0.0,0.0,0.0,0.0,0.0,0.0,0.0,0.0,0.0,0.0,0.0,0.0,0.0,0.0,0.0,0.0,0.0,0.0,0.0,0.0,0.0,0.0,0.0,0.0,0.0,0.0,0.0,0.0,0.0,0.0,0.0,0.0,0.0,0.0,0.0,0.0,0.0,0.0,0.0,0.0,-2.4618,-2.5311,-2.4712,-2.5189,-2.5629,-2.4684,-2.4168,-2.3893,0.0,0.0,0.0,-2.3481,-2.356,-2.3676,-2.3656,-2.3311,-2.3132,0.0,0.0,0.0,0.0,0.0,0.0,0.0,0.0,0.0,0.0,-1.9181,-1.9108,-1.9108,-1.9198,-1.9341,-1.9572,-1.9462,-1.9511,-1.9764,-2.0592,-2.1315,-2.1884,-2.289,-2.3582,-2.3878,-2.4024,-2.4083,-2.4083,-2.4083,-2.4083,-2.4083,-2.4083,-2.4083,-2.4083,-2.4083,-2.4083,-2.4083,-2.4083,-2.4083,-2.4141,-2.4507,-2.5301,-2.6267,0.0,0.0,0.0,0.0,0.0,0.0,-2.56,-2.5226,-2.5027,-2.5705,-2.5778,-2.5531,-2.4882,-2.5995,-2.6515,-2.5861,0.0,0.0,0.0,0.0,0.0,0.0,0.0,0.0,0.0,0.0,-2.5093,-2.5694,-2.6153,-2.6364,0.0,0.0,0.0,0.0,0.0,0.0,0.0,0.0,0.0,0.0,0.0,0.0,0.0,0.0,0.0,0.0,0.0,0.0,0.0,0.0,0.0,0.0,0.0,0.0,0.0,0.0,-2.3679,-2.4239,-2.4738,-2.4849,-2.481,-2.4795,-2.4696,-2.429,0.0,0.0,0.0,-2.3229,-2.3473,-2.3727,-2.3204,-2.3098,-2.2866,-2.2232,0.0,0.0,0.0,0.0,0.0,0.0,0.0,0.0,-1.9834,-1.9378,-1.9108,-1.9108,-1.9407,-1.9605,-1.9605,-1.9911,-2.0237,-2.0571,-2.1103,-2.1577,-2.1908,-2.2896,-2.3403,-2.3403,-2.3878,-2.4083,-2.4083,-2.4083,-2.4083,-2.4083,-2.4083,-2.4083,-2.4083,-2.4083,-2.4083,-2.4083,-2.4083,-2.4083,-2.4171,-2.4778,-2.5522,-2.6293,0.0,0.0,0.0,0.0,0.0,0.0,0.0,-2.494,-2.5042,-2.5705,-2.5454,-2.5429,-2.6097,-2.6126,-2.6373,-2.7055,0.0,0.0,0.0,0.0,0.0,0.0,0.0,0.0,0.0,0.0,-2.5071,-2.5771,-2.5925,-2.6123,-2.6402,-2.6626,0.0,0.0,0.0,0.0,0.0,0.0,0.0,0.0,0.0,0.0,0.0,0.0,0.0,0.0,0.0,0.0,0.0,0.0,0.0,0.0,0.0,0.0,0.0,0.0,0.0,0.0,-2.4037,-2.4341,-2.4687,-2.5043,-2.4412,-2.3634,-2.3376,0.0,0.0,-2.268,-2.3073,-2.3402,-2.3134,-2.3111,-2.2879,-2.2201,0.0,0.0,0.0,0.0,0.0,0.0,0.0,0.0,0.0,0.0,-1.9108,-1.9108,-1.9208,-1.9462,-1.9911,-2.0042,-2.0115,-2.01,-2.0615,-2.0994,-2.1354,-2.2341,-2.2835,-2.2807,-2.3683,-2.3874,-2.3469,-2.3469,-2.3704,-2.4099,-2.3652,-2.3704,-2.4083,-2.4083,-2.4083,-2.4083,-2.4083,-2.4332,-2.4778,-2.5231,-2.6,-2.6901,0.0,0.0,0.0,0.0,0.0,0.0,0.0,-2.5535,-2.5705,-2.6112,-2.6054,-2.617,-2.6747,-2.6864,-2.7099,-2.7652,0.0,0.0,0.0,0.0,0.0,0.0,0.0,0.0,0.0,-2.5472,-2.5957,-2.6925,-2.707,-2.7413,-2.7919,-2.8088,-2.7934,-2.7534,0.0,0.0,0.0,0.0,0.0,0.0,0.0,0.0,-2.8559,0.0,0.0,0.0,0.0,0.0,0.0,0.0,0.0,0.0,0.0,0.0,0.0,0.0,0.0,0.0,0.0,-2.4258,-2.4581,-2.4923,-2.4319,0.0,0.0,0.0,0.0,0.0,0.0,-2.3509,-2.3157,-2.3039,-2.276,-2.2103,0.0,0.0,0.0,0.0,0.0,0.0,0.0,0.0,0.0,-1.9202,-1.9142,-1.9274,-1.9396,-1.9715,-2.0269,-2.0431,-2.049,-2.0407,-2.0669,-2.0934,-2.1139,-2.2098,-2.2484,-2.2251,-2.3505,-2.377,-2.3195,-2.3459,-2.3613,-2.3744,-2.3587,-2.3613,0.0,-2.3992,-2.4083,-2.4083,-2.4083,-2.4476,-2.5061,-2.5439,-2.6242,-2.7174,0.0,0.0,0.0,0.0,0.0,0.0,0.0,0.0,-2.6806,-2.6806,-2.7345,-2.7478,-2.6924,-2.7968,-2.8463,-2.7884,0.0,0.0,0.0,0.0,0.0,0.0,0.0,0.0,0.0,-2.6807,-2.7485,-2.8819,-2.9195,-2.9695,-3.0293,-2.9664,-2.9373,-2.9357,-2.8682,0.0,0.0,0.0,0.0,0.0,0.0,-2.7981,0.0,0.0,0.0,0.0,0.0,0.0,0.0,0.0,0.0,0.0,0.0,0.0,0.0,0.0,0.0,0.0,0.0,0.0,0.0,0.0,0.0,0.0,0.0,0.0,0.0,0.0,0.0,0.0,0.0,0.0,0.0,-2.1848,0.0,0.0,0.0,0.0,0.0,0.0,0.0,0.0,-1.9741,-1.9357,-1.9264,-1.9605,-1.9911,-2.0237,-2.0571,-2.0967,-2.1158,-2.119,-2.119,-2.1233,-2.1253,-2.2156,-2.2346,-2.1871,-2.3389,-2.377,-2.3208,-2.3731,-2.3678,-2.3221,-2.3744,-2.3665,-2.3263,-2.3835,-2.4083,-2.4083,-2.4141,-2.4534,-2.5118,-2.555,-2.6322,-2.724,0.0,0.0,0.0,0.0,0.0,0.0,0.0,0.0,0.0,0.0,-2.7345,-2.7652,-2.7492,-2.8202,-2.8811,0.0,0.0,0.0,0.0,0.0,0.0,0.0,0.0,0.0,0.0,-2.7234,-2.7822,-2.8944,-2.9067,-2.9169,-2.9344,-2.9154,-2.9094,-2.9065,-2.8438,-2.798,0.0,0.0,0.0,0.0,-2.849,-2.8441,0.0,0.0,0.0,0.0,-2.7602,-2.7557,0.0,0.0,0.0,0.0,0.0,0.0,0.0,0.0,-2.5498,0.0,0.0,0.0,0.0,0.0,0.0,0.0,0.0,0.0,0.0,0.0,0.0,0.0,0.0,0.0,0.0,0.0,0.0,0.0,0.0,0.0,0.0,0.0,-1.9853,-1.9613,-1.9072,-1.9327,-1.9638,-1.9944,-2.0074,-2.0237,-2.0571,-2.07,-2.0871,-2.119,-2.119,-2.1368,-2.1733,-2.2298,-2.2513,-2.2355,-2.3535,-2.377,-2.3182,-2.2908,-2.2962,-2.3197,-2.2924,-2.2936,-2.3263,-2.3835,-2.4083,-2.4141,-2.462,-2.5132,-2.5687,-2.6349,-2.7097,-2.7815,0.0,0.0,0.0,0.0,0.0,0.0,0.0,0.0,0.0,0.0,0.0,0.0,0.0,0.0,0.0,0.0,0.0,0.0,0.0,0.0,0.0,0.0,0.0,0.0,-2.7837,-2.8032,-2.8573,-2.9456,-2.9456,-2.9631,-2.9925,-2.9925,-2.9763,-2.9426,-2.8807,-2.8128,-2.7456,-2.7582,-2.7706,-2.781,-2.8052,0.0,0.0,0.0,0.0,0.0,-2.756,-2.7544,0.0,-2.717,-2.7066,-2.7013,0.0,0.0,0.0,0.0,-2.6216,0.0,0.0,0.0,0.0,0.0,0.0,0.0,0.0,0.0,0.0,0.0,0.0,0.0,0.0,0.0,0.0,0.0,0.0,0.0,0.0,0.0,0.0,0.0,-1.9682,-1.9541,-1.9497,-1.9711,-1.9987,-2.0302,-2.0334,-2.0506,-2.0871,-2.0871,-2.0967,-2.119,-2.119,-2.1443,-2.1908,-2.2359,-2.2586,-2.2499,-2.3321,-2.3393,-2.2818,-2.2518,-2.24,-2.2426,-2.2414,-2.2571,-2.2871,-2.3459,-2.3835,-2.4171,-2.475,-2.5314,-2.5892,-2.664,-2.7367,-2.8005,0.0,0.0,0.0,0.0,0.0,0.0,0.0,0.0,0.0,0.0,0.0,0.0,0.0,0.0,0.0,0.0,0.0,0.0,0.0,0.0,0.0,0.0,0.0,-2.8469,-2.8441,-2.8768,-2.9287,-2.9958,-2.9856,-3.0134,-3.0777,-3.069,-3.0324,-2.9697,-2.9086,-2.8268,-2.7387,-2.7864,-2.7593,-2.6844,-2.734,0.0,0.0,0.0,0.0,0.0,0.0,0.0,0.0,-2.749,-2.749,-2.749,-2.749,0.0,0.0,0.0,0.0,0.0,0.0,0.0,0.0,0.0,0.0,0.0,0.0,0.0,0.0,0.0,0.0,0.0,0.0,0.0,0.0,0.0,0.0,0.0,0.0,0.0,0.0,0.0,-1.9849,0.0,-2.0167,-2.0182,-2.0302,-2.0667,-2.07,-2.0839,-2.119,-2.119,-2.119,-2.119,-2.1285,-2.1526,-2.2002,-2.239,-2.2653,-2.2754,-2.3052,-2.2962,-2.2519,-2.2336,-2.2035,-2.1668,-2.2087,-2.231,-2.2427,-2.2975,-2.3483,-2.404,-2.4823,-2.5398,-2.5892,-2.6718,-2.7433,-2.8005,0.0,0.0,0.0,0.0,0.0,0.0,0.0,0.0,0.0,0.0,0.0,0.0,0.0,0.0,0.0,0.0,0.0,0.0,0.0,0.0,0.0,0.0,-2.8413,-2.8162,-2.8655,-2.8714,-2.9056,-2.9664,-2.9155,-2.9211,-2.9806,-2.9282,-2.8864,-2.8463,-2.8049,-2.7608,-2.7153,-2.7006,-2.7111,-2.7372,-2.7464,0.0,0.0,0.0,0.0,0.0,0.0,0.0,0.0,-2.749,-2.749,-2.749,-2.749,0.0,0.0,0.0,0.0,0.0,-2.7255,0.0,0.0,0.0,0.0,0.0,0.0,0.0,0.0,0.0,0.0,0.0,0.0,0.0,0.0,0.0,0.0,0.0,0.0,0.0,0.0,-2.0791,0.0,-2.0385,-1.9921,-2.027,-2.07,-2.1094,-2.1094,-2.1126,-2.119,-2.119,-2.119,-2.119,-2.1588,-2.2032,-2.2482,-2.2561,-2.3032,-2.3852,-2.3402,-2.3171,-2.3054,-2.2086,-2.1864,-2.2231,-2.1812,-2.1917,-2.2427,-2.2975,-2.3234,-2.3478,-2.5067,-2.5742,-2.5946,-2.7071,-2.77,-2.8044,0.0,0.0,0.0,0.0,0.0,0.0,0.0,0.0,0.0,0.0,0.0,0.0,0.0,0.0,0.0,0.0,0.0,0.0,0.0,0.0,0.0,-2.9602,-2.9069,-2.89,-2.9181,-2.9195,-2.9167,-2.9111,-2.883,-2.883,-2.9111,-2.8982,-2.8747,-2.8402,-2.8275,-2.7975,-2.7634,-2.7504,-2.7453,-2.749,0.0,0.0,0.0,0.0,0.0,0.0,0.0,0.0,0.0,0.0,-2.7108,-2.6735,-2.7323,0.0,0.0,0.0,0.0,0.0,-2.662,-2.662,0.0,0.0,0.0,0.0,0.0,0.0,0.0,0.0,0.0,0.0,0.0,0.0,0.0,0.0,0.0,0.0,0.0,-2.245,-2.1817,0.0,-2.061,-2.0595,-2.0599,-2.0792,-2.0999,-2.119,-2.119,-2.119,-2.119,-2.119,-2.1316,-2.1577,-2.1796,-2.2116,-2.2543,-2.2543,-2.306,-2.4083,-2.3184,-2.2766,-2.274,-2.1577,-2.1223,-2.1485,-2.1184,-2.1394,-2.1956,-2.2485,-2.2884,-2.3312,-2.5066,-2.5754,-2.5902,-2.7223,-2.7815,-2.8029,0.0,0.0,0.0,0.0,0.0,0.0,0.0,0.0,0.0,0.0,0.0,0.0,0.0,0.0,0.0,0.0,0.0,0.0,0.0,0.0,-2.9713,-2.9602,-2.9602,-2.9602,-2.9602,-2.9602,-2.9307,-2.8689,-2.8629,-2.8538,-2.8446,-2.8809,-2.8812,-2.8471,-2.8471,-2.8308,-2.7947,-2.7947,-2.7703,-2.7323,0.0,0.0,0.0,0.0,0.0,0.0,0.0,0.0,0.0,0.0,0.0,0.0,0.0,0.0,0.0,0.0,-2.622,-2.5896,-2.5896,-2.5896,0.0,0.0,0.0,0.0,0.0,0.0,0.0,0.0,0.0,0.0,0.0,0.0,0.0,0.0,0.0,-2.3431,-2.2574,-2.2241,-2.1764,-2.096,-2.0685,-2.0786,-2.124,-2.1227,-2.119,-2.119,-2.119,-2.119,-2.119,-2.119,-2.1411,-2.1877,-2.2002,-2.2207,-2.2499,-2.2614,-2.2997,-2.3694,-2.2662,-2.2178,-2.2165,-2.1158,-2.0777,-2.0895,-2.0876,-2.1178,-2.1732,-2.2241,-2.2715,-2.3231,-2.4829,-2.5679,-2.6084,-2.7205,-2.7794,-2.8079,0.0,0.0,0.0,0.0,0.0,0.0,0.0,0.0,0.0,0.0,0.0,0.0,0.0,0.0,0.0,0.0,0.0,0.0,0.0,0.0,-2.9602,-2.9602,-2.9602,-2.9602,-2.9602,-2.9602,-2.9307,-2.8689,-2.8385,-2.802,-2.7709,-2.8334,-2.8471,-2.8145,-2.8145,-2.7914,-2.7523,-2.7523,-2.7222,-2.6748,-2.6748,0.0,0.0,0.0,0.0,0.0,0.0,0.0,0.0,0.0,0.0,0.0,0.0,0.0,0.0,0.0,0.0,-2.5896,-2.5896,-2.5896,0.0,0.0,0.0,0.0,0.0,0.0,0.0,0.0,0.0,0.0,0.0,0.0,0.0,0.0,0.0,-2.365,-2.4062,0.0,-2.1961,-2.1894,-2.1439,-2.1152,-2.1215,-2.1213,-2.119,-2.119,-2.119,-2.119,-2.119,-2.119,-2.1411,-2.1877,-2.2329,-2.2526,-2.2499,-2.2928,-2.2947,-2.2506,-2.1864,-2.1577,-2.1564,-2.0962,-2.0975,-2.1446,-2.1372,-2.1688,-2.228,-2.2737,-2.2972,-2.3119,-2.4296,-2.557,-2.6748,-2.697,-2.754,-2.821,0.0,0.0,0.0,0.0,0.0,0.0,0.0,0.0,0.0,0.0,0.0,0.0,0.0,0.0,0.0,0.0,0.0,0.0,0.0,0.0,-2.9602,-2.9602,-2.9602,-2.9602,-2.9602,-2.9982,-2.9687,-2.8689,-2.8355,-2.7878,-2.73,-2.7994,-2.8079,-2.7703,-2.7369,-2.7121,-2.6985,-2.6667,-2.638,-2.6208,-2.6208,-2.607,0.0,0.0,0.0,0.0,0.0,0.0,0.0,0.0,0.0,0.0,0.0,0.0,0.0,0.0,0.0,-2.485,-2.485,-2.485,0.0,0.0,0.0,0.0,0.0,0.0,0.0,0.0,0.0,0.0,0.0,0.0,0.0,0.0,0.0,-2.3273,-2.2889,-2.2605,-2.2207,-2.1582,-2.1335,-2.119,-2.119,-2.119,-2.119,-2.119,-2.0902,-2.0868,-2.1178,-2.116,-2.1341,-2.1837,-2.2303,-2.2344,-2.1895,-2.2044,-2.1864,-2.1354,-2.1446,-2.1511,-2.1498,-2.0949,-2.0805,-2.1013,-2.1274,-2.1521,-2.1798,-2.2612,-2.2939,-2.3086,-2.4661,-2.6162,-2.7414,-2.7488,-2.7801,-2.821,0.0,0.0,0.0,0.0,0.0,0.0,0.0,0.0,0.0,0.0,0.0,0.0,0.0,0.0,0.0,0.0,0.0,0.0,0.0,-2.9651,-2.9602,-2.9602,-2.9602,-2.9602,-2.9602,-3.0079,-2.9768,-2.8538,-2.8064,-2.7647,-2.7227,-2.7519,-2.7503,-2.7222,-2.6679,-2.644,-2.6427,-2.607,-2.5791,-2.5616,-2.5616,-2.5511,0.0,0.0,0.0,0.0,0.0,0.0,0.0,0.0,0.0,0.0,0.0,0.0,0.0,0.0,0.0,0.0,-2.42,-2.42,0.0,0.0,0.0,0.0,0.0,0.0,0.0,0.0,0.0,0.0,0.0,0.0,0.0,0.0,-2.2846,-2.2685,-2.1997,-2.2088,-2.1971,-2.127,-2.119,-2.119,-2.119,-2.119,-2.1132,-2.0971,-2.0607,-2.0542,-2.0912,-2.0877,-2.1121,-2.1716,-2.2049,-2.1999,-2.1485,-2.159,-2.1352,-2.0812,-2.1244,-2.1391,-2.1224,-2.0857,-2.0699,-2.0724,-2.1361,-2.1612,-2.1708,-2.2694,-2.3157,-2.3341,-2.4783,-2.6154,-2.7309,-2.7521,-2.7881,-2.8259,0.0,0.0,0.0,0.0,0.0,0.0,0.0,0.0,0.0,0.0,0.0,0.0,0.0,0.0,0.0,0.0,0.0,0.0,-2.9602,-2.9602,-2.9602,-2.9602,-2.9602,-2.9602,-2.9602,-2.9841,-2.9417,-2.8215,-2.7472,-2.7254,-2.7503,-2.6952,-2.6679,-2.6679,-2.6151,-2.5896,-2.5896,-2.5896,-2.5534,-2.4981,-2.5016,-2.4671,-2.42,0.0,0.0,0.0,0.0,0.0,0.0,0.0,0.0,0.0,0.0,0.0,0.0,0.0,0.0,-2.42,-2.42,0.0,0.0,0.0,0.0,0.0,0.0,0.0,0.0,0.0,0.0,0.0,0.0,0.0,0.0,-2.2742,-2.2249,-2.1883,-2.1883,-2.1479,-2.119,-2.119,-2.119,-2.119,-2.119,-2.119,-2.0971,-2.0446,-2.04,-2.0382,-2.0315,-2.032,-2.071,-2.1569,-2.1597,-2.1562,-2.1511,-2.1744,-2.158,-2.1021,-2.1277,-2.1155,-2.0699,-2.0699,-2.0699,-2.0749,-2.1694,-2.2105,-2.2198,-2.3187,-2.3674,-2.3894,-2.4557,-2.5394,-2.6298,-2.6971,-2.7716,-2.8411,0.0,0.0,0.0,0.0,0.0,0.0,0.0,0.0,0.0,0.0,0.0,0.0,0.0,0.0,0.0,0.0,0.0,0.0,-2.9602,-2.9602,-2.9602,-2.9602,-2.9602,-2.9602,-2.9602,-2.882,-2.8517,-2.8756,-2.8111,-2.7499,-2.6918,-2.6782,-2.6508,-2.6104,-2.5546,-2.5252,-2.5252,-2.485,-2.4611,-2.4465,-2.4813,-2.4842,-2.4694,0.0,0.0,0.0,0.0,0.0,0.0,0.0,0.0,0.0,0.0,0.0,0.0,0.0,-2.42,-2.42,-2.42,0.0,0.0,0.0,0.0,0.0,0.0,0.0,0.0,0.0,0.0,0.0,0.0,0.0,0.0,-2.173,-2.1523,-2.142,-2.142,-2.1293,-2.119,-2.119,-2.119,-2.1052,-2.0664,-2.0641,-2.0534,-2.034,-1.9994,-2.0049,-2.0698,-2.0721,-2.0824,-2.1026,-2.1375,-2.1394,-2.1149,-2.1224,-2.128,-2.1277,-2.135,-2.1229,-2.0923,-2.1302,-2.1375,-2.1253,-2.2235,-2.2649,-2.2717,-2.3334,-2.3959,-2.4558,-2.5244,-2.6084,-2.6987,-2.766,-2.8115,-2.8411,0.0,0.0,0.0,0.0,0.0,0.0,0.0,0.0,0.0,0.0,0.0,0.0,0.0,0.0,0.0,0.0,0.0,0.0,0.0,0.0,-2.9602,-2.9602,-2.9477,-2.9149,-2.8643,-2.814,-2.7821,-2.776,-2.7411,-2.6939,-2.6371,-2.6352,-2.617,-2.5839,-2.5217,-2.4964,-2.4916,-2.4415,-2.4303,-2.4499,-2.4797,-2.4912,-2.4912,0.0,0.0,0.0,0.0,0.0,0.0,0.0,0.0,0.0,0.0,0.0,0.0,0.0,-2.42,-2.42,0.0,0.0,0.0,0.0,0.0,0.0,0.0,0.0,0.0,0.0,0.0,0.0,0.0,-2.1894,0.0,-2.1282,-2.119,-2.119,-2.119,-2.119,-2.1121,-2.0914,-2.0891,-2.0757,-2.0377,-2.0361,-2.0329,-2.0257,-1.9949,-1.9998,-2.0506,-2.0529,-2.0654,-2.0875,-2.1159,-2.1255,-2.1169,-2.1253,-2.1399,-2.1568,-2.1688,-2.165,-2.1516,-2.1769,-2.1793,-2.1698,-2.2626,-2.3135,-2.337,-2.3653,-2.4232,-2.5031,-2.5697,-2.6504,-2.7363,-2.8038,-2.8323,-2.8411,0.0,0.0,0.0,0.0,0.0,0.0,0.0,0.0,0.0,0.0,0.0,0.0,0.0,0.0,0.0,0.0,0.0,0.0,0.0,0.0,-2.9401,-2.9401,-2.914,-2.846,-2.727,-2.77,-2.7259,-2.59,-2.5886,-2.5861,-2.5838,-2.5745,-2.5716,-2.5678,-2.5101,-2.4866,-2.4889,-2.4395,-2.4453,-2.4855,-2.49,-2.4912,-2.4912,-2.4912,0.0,0.0,0.0,0.0,0.0,0.0,0.0,0.0,0.0,0.0,0.0,-2.42,0.0,0.0,0.0,0.0,0.0,0.0,0.0,0.0,0.0,0.0,0.0,0.0,0.0,0.0,0.0,-2.1825,-2.1709,-2.127,-2.119,-2.119,-2.119,-2.1155,-2.096,-2.0469,-2.0396,-2.0347,-2.025,-2.0277,-2.0261,-2.0195,-2.0173,-2.0138,-2.008,-2.0067,-2.0384,-2.0997,-2.1008,-2.118,-2.1482,-2.1722,-2.1888,-2.1935,-2.217,-2.2333,-2.2397,-2.218,-2.2123,-2.2217,-2.2965,-2.3551,-2.4003,-2.4003,-2.4463,-2.5273,-2.5946,-2.6688,-2.7473,-2.815,-2.8411,-2.8411,0.0,0.0,0.0,0.0,0.0,0.0,0.0,0.0,0.0,0.0,0.0,0.0,0.0,0.0,0.0,0.0,0.0,0.0,0.0,0.0,-2.7947,-2.7947,-2.8071,-2.8023,-2.7778,-2.7047,-2.6395,-2.5804,-2.5859,-2.5652,-2.5194,-2.5171,-2.5155,-2.5087,-2.4558,-2.4568,-2.4889,-2.4395,-2.4258,-2.4384,-2.4763,-2.4912,-2.4912,-2.4912,-2.4912,0.0,0.0,0.0,0.0,0.0,0.0,0.0,0.0,-2.42,-2.42,-2.42,0.0,0.0,0.0,0.0,0.0,0.0,0.0,0.0,0.0,0.0,0.0,0.0,0.0,0.0,-2.1374,-2.1362,-2.1316,-2.1213,-2.119,-2.119,-2.119,-2.0856,-2.0527,-2.0423,-2.0344,-2.0151,-1.9705,-2.0004,-2.0185,-2.0038,-2.0052,-2.0182,-2.0524,-2.0711,-2.086,-2.0997,-2.1204,-2.1578,-2.2095,-2.2165,-2.2443,-2.2971,-2.3053,-2.3061,-2.3083,-2.2926,-2.3127,-2.3566,-2.3754,-2.3882,-2.4003,-2.4003,-2.4463,-2.5273,-2.5946,-2.6688,-2.7473,-2.815,-2.8411,-2.8411,0.0,0.0,0.0,0.0,0.0,0.0,0.0,0.0,0.0,0.0,0.0,0.0,0.0,0.0,0.0,0.0,0.0,0.0,0.0,0.0,0.0,-2.7434,-2.787,-2.7727,-2.6895,-2.6577,-2.5969,-2.502,-2.5063,0.0,0.0,0.0,0.0,-2.49,-2.4648,-2.4682,-2.4889,-2.4395,-2.4326,-2.4568,-2.4809,-2.4912,-2.4912,-2.4912,-2.4912,-2.4889,-2.4659,0.0,0.0,0.0,0.0,0.0,0.0,0.0,-2.42,-2.42,0.0,0.0,0.0,0.0,0.0,0.0,0.0,0.0,0.0,0.0,0.0,0.0,0.0,-2.1537,-2.1537,-2.1537,-2.1445,-2.1236,-2.119,-2.1109,-2.0836,-2.0572,-2.0289,-1.9988,-1.9946,-1.9877,-1.9743,-1.9973,-2.0203,-2.046,-2.0498,-2.0648,-2.1008,-2.1131,-2.1253,-2.1375,-2.166,-2.2049,-2.2489,-2.2672,-2.2957,-2.3297,-2.3297,-2.3385,-2.3538,-2.3458,-2.3696,-2.4151,-2.4151,-2.4151,-2.4151,-2.4151,-2.4591,-2.5277,-2.563,-2.6442,-2.7442,-2.7796,-2.8119,-2.8411,0.0,0.0,0.0,0.0,0.0,0.0,0.0,0.0,0.0,0.0,0.0,0.0,0.0,0.0,0.0,0.0,0.0,0.0,0.0,0.0,0.0,0.0,-2.7513,-2.7127,-2.5831,-2.6127,-2.5644,-2.4315,0.0,0.0,0.0,0.0,0.0,-2.4912,0.0,0.0,0.0,0.0,0.0,0.0,-2.4637,-2.4674,-2.4748,-2.4637,-2.4674,-2.4751,-2.443,-2.4522,-2.474,-2.443,0.0,0.0,0.0,0.0,-2.42,0.0,0.0,0.0,0.0,0.0,0.0,0.0,0.0,0.0,0.0,0.0,0.0,0.0,0.0,-2.1997,-2.1906,-2.1894,-2.1766,-2.1282,-2.119,-2.1017,-2.0481,-2.0392,-2.0168,-1.957,-1.9547,-1.9714,-2.0042,-2.0131,-2.0409,-2.1008,-2.1057,-2.118,-2.1399,-2.1447,-2.1616,-2.1888,-2.2189,-2.2535,-2.2889,-2.3216,-2.3429,-2.3458,-2.3458,-2.3625,-2.3882,-2.3882,-2.4051,-2.4302,-2.4302,-2.4302,-2.4302,-2.4302,-2.4697,-2.5312,-2.5419,-2.625,-2.7411,-2.7519,-2.7919,-2.8411,0.0,0.0,0.0,0.0,0.0,0.0,0.0,0.0,0.0,0.0,0.0,0.0,0.0,0.0,0.0,0.0,0.0,0.0,0.0,0.0,0.0,0.0,-2.5577,-2.5651,-2.5716,-2.5335,-2.5021,-2.482,0.0,0.0,0.0,0.0,0.0,-2.4889,0.0,0.0,0.0,0.0,0.0,0.0,0.0,-2.3657,-2.4219,-2.3509,-2.3694,-2.4338,-2.4694,-2.459,-2.4349,-2.4694,-2.4545,0.0,0.0,0.0,-2.42,0.0,0.0,0.0,0.0,0.0,0.0,0.0,0.0,0.0,0.0,0.0,0.0,0.0,-2.3236,-2.2444,-2.1974,-2.1894,-2.1766,-2.1282,-2.119,-2.1017,-2.0481,-2.0339,-2.0126,-1.9562,-1.9765,-2.0054,-2.0321,-2.0648,-2.1008,-2.1326,-2.135,-2.135,-2.1399,-2.1616,-2.1912,-2.2235,-2.2512,-2.2965,-2.3653,-2.3711,-2.3882,-2.4177,-2.4177,-2.4198,-2.4219,-2.4219,-2.4261,-2.4302,-2.4302,-2.4302,-2.4302,-2.4302,-2.4697,-2.5358,-2.5942,-2.6688,-2.7473,-2.8057,-2.8319,-2.8411,0.0,0.0,0.0,0.0,0.0,0.0,0.0,0.0,0.0,0.0,0.0,0.0,0.0,0.0,0.0,0.0,0.0,0.0,0.0,0.0,0.0,0.0,-2.5185,-2.5214,-2.5256,-2.5038,-2.4786,0.0,0.0,0.0,0.0,-2.42,-2.4315,0.0,0.0,0.0,0.0,0.0,0.0,0.0,0.0,0.0,0.0,-2.3824,-2.3897,-2.4223,-2.443,-2.4372,-2.4235,-2.4441,-2.4372,-2.42,-2.42,0.0,0.0,0.0,0.0,0.0,0.0,0.0,0.0,0.0,0.0,0.0,0.0,0.0,0.0,0.0,-2.3844,-2.3293,-2.2501,-2.2352,-2.2088,-2.1328,-2.119,-2.1112,-2.0824,-2.0506,-2.0346,-2.0488,-2.0333,-2.0409,-2.0921,-2.1131,-2.135,-2.1616,-2.1616,-2.1769,-2.2109,-2.2249,-2.248,-2.2844,-2.3157,-2.3465,-2.3797,-2.3988,-2.4156,-2.4302,-2.4302,-2.4302,-2.4302,-2.4302,-2.4302,-2.4302,-2.4302,-2.4302,-2.4302,-2.4302,-2.4466,-2.4804,-2.5481,-2.6195,-2.6919,-2.758,-2.8088,-2.8411,0.0,0.0,0.0,0.0,0.0,0.0,0.0,0.0,0.0,0.0,0.0,0.0,0.0,0.0,0.0,0.0,0.0,0.0,0.0,0.0,0.0,0.0,0.0,-2.4888,-2.4728,-2.4728,0.0,0.0,0.0,0.0,-2.42,-2.42,-2.42,0.0,-2.42,0.0,0.0,0.0,0.0,0.0,0.0,0.0,0.0,0.0,-2.3849,-2.42,-2.42,-2.42,-2.42,-2.42,-2.42,-2.42,-2.42,-2.42,0.0,0.0,0.0,0.0,0.0,0.0,0.0,0.0,0.0,0.0,0.0,0.0,0.0,0.0,-2.42,-2.3925,-2.3029,-2.288,-2.2581,-2.1719,-2.1562,-2.1549,-2.1427,-2.1167,-2.1098,-2.1367,-2.125,-2.1227,-2.1474,-2.1632,-2.1766,-2.1878,-2.1983,-2.2226,-2.2686,-2.2799,-2.3024,-2.3414,-2.3668,-2.3839,-2.3925,-2.4177,-2.4302,-2.4302,-2.4302,-2.4302,-2.4302,-2.4302,-2.4302,-2.4302,-2.4302,-2.4302,-2.4302,-2.4302,-2.4302,-2.4374,-2.5219,-2.5903,-2.651,-2.7334,-2.798,-2.8411,0.0,0.0,0.0,0.0,0.0,0.0,0.0,0.0,0.0,0.0,0.0,0.0,0.0,0.0,0.0,0.0,0.0,0.0,0.0,0.0,0.0,0.0,0.0,0.0,0.0,0.0,0.0,0.0,0.0,0.0,-2.42,-2.42,-2.42,-2.42,-2.42,-2.42,-2.42,0.0,0.0,0.0,0.0,0.0,0.0,0.0,0.0,-2.42,-2.42,-2.42,-2.42,-2.42,-2.42,-2.42,-2.42,-2.42,-2.42,0.0,0.0,0.0,0.0,0.0,0.0,0.0,0.0,0.0,0.0,0.0,0.0,0.0,-2.42,-2.4028,-2.3465,-2.3361,-2.3189,-2.2685,-2.2634,-2.2568,-2.2347,-2.2657,-2.2559,-2.1772,-2.2547,-2.2787,-2.187,-2.2294,-2.2512,-2.2203,-2.2457,-2.2686,-2.2694,-2.3061,-2.3429,-2.376,-2.3797,-2.3946,-2.4261,-2.4281,-2.4302,-2.4302,-2.4302,-2.4302,-2.4302,-2.4302,-2.4302,-2.4302,-2.4302,-2.4302,-2.4302,-2.4302,-2.4302,-2.4441,-2.5742,-2.6296,-2.6549,-2.7873,-2.8381,-2.8411,0.0,0.0,0.0,0.0,0.0,0.0,0.0,0.0,0.0,0.0,0.0,0.0,0.0,-2.5823,-2.5087,-2.4646,-2.4418,0.0,0.0,0.0,0.0,0.0,0.0,0.0,0.0,0.0,0.0,0.0,0.0,-2.42,-2.42,-2.42,-2.42,-2.42,-2.42,-2.42,-2.42,-2.42,0.0,0.0,0.0,0.0,0.0,0.0,0.0,-2.42,-2.42,-2.42,-2.42,-2.42,-2.42,-2.42,-2.42,-2.42,-2.42,0.0,0.0,0.0,0.0,0.0,0.0,0.0,0.0,0.0,0.0,0.0,0.0,-2.4381,-2.4381,-2.4492,-2.486,-2.4178,-2.3583,-2.354,-2.3631,-2.3843,-2.4149,-2.4367,-2.4397,-2.4177,-2.449,-2.4624,-2.4445,-2.4275,-2.4233,-2.4369,-2.4115,-2.3996,-2.4052,-2.4171,-2.4212,-2.413,-2.4114,-2.4177,-2.4302,-2.4302,-2.4302,-2.4302,-2.4302,-2.4302,-2.4302,-2.4302,-2.4302,-2.4302,-2.4302,-2.4302,-2.4302,-2.4302,-2.4564,-2.5035,-2.5995,-2.6641,-2.7149,-2.8057,-2.8411,-2.8411,0.0,0.0,0.0,0.0,0.0,0.0,0.0,0.0,0.0,-2.8178,0.0,0.0,0.0,0.0,-2.461,-2.4418,-2.4273,-2.42,-2.42,0.0,0.0,0.0,0.0,0.0,0.0,0.0,0.0,0.0,0.0,0.0,0.0,-2.42,-2.42,-2.42,-2.4361,-2.4349,0.0,0.0,0.0,-2.3038,0.0,0.0,-2.3075,0.0,0.0,-2.42,-2.42,-2.42,-2.4212,-2.4384,-2.4326,-2.4223,-2.4384,-2.4326,-2.42,0.0,0.0,0.0,0.0,0.0,0.0,0.0,0.0,0.0,0.0,0.0,0.0,-2.4454,-2.4562,-2.4838,-2.565,-2.5092,-2.4604,-2.4913,-2.5109,-2.5352,-2.5831,-2.5952,-2.5955,-2.5938,-2.6148,-2.6162,-2.5908,-2.5648,-2.5519,-2.5589,-2.5281,-2.4997,-2.4806,-2.4909,-2.4759,-2.4312,-2.4302,-2.4302,-2.4302,-2.4302,-2.4302,-2.4302,-2.4302,-2.4302,-2.4302,-2.4302,-2.4302,-2.4302,-2.4302,-2.4302,-2.4302,-2.4302,-2.4697,-2.5358,-2.6087,-2.6795,-2.7473,-2.815,-2.8411,-2.8411,0.0,0.0,0.0,0.0,0.0,0.0,0.0,0.0,0.0,-2.5946,0.0,0.0,0.0,0.0,0.0,-2.4189,-2.42,-2.42,-2.4175,-2.4223,0.0,0.0,0.0,0.0,0.0,0.0,0.0,0.0,0.0,0.0,0.0,0.0,-2.4235,0.0,-2.4728,-2.4671,-2.4212,0.0,-2.3737,-2.2964,0.0,-2.3023,-2.2964,0.0,0.0,0.0,-2.42,-2.42,-2.4269,-2.474,-2.4579,-2.4281,0.0,0.0,0.0,0.0,0.0,0.0,0.0,0.0,0.0,0.0,0.0,0.0,0.0,0.0,0.0,-2.4549,-2.4729,-2.5052,-2.5755,-2.6032,-2.6343,-2.6883,-2.6974,-2.7051,-2.731,-2.7376,-2.723,-2.6919,-2.7439,-2.7383,-2.6118,-2.637,-2.6337,-2.573,-2.5818,-2.5583,-2.4911,-2.5138,-2.4989,-2.4333,-2.4302,-2.4302,-2.4302,-2.4302,-2.4302,-2.4302,-2.4302,-2.4302,-2.4302,-2.4302,-2.4302,-2.4302,-2.4302,-2.4302,-2.4302,-2.4333,-2.4712,-2.5389,-2.6065,-2.6773,-2.7503,-2.8165,-2.8411,-2.8411,0.0,0.0,0.0,0.0,0.0,0.0,0.0,0.0,-2.5505,0.0,0.0,0.0,-2.4549,-2.4381,-2.4018,-2.3372,-2.3861,-2.4118,-2.3849,-2.437,-2.4717,-2.4717,-2.4717,0.0,0.0,0.0,0.0,0.0,0.0,0.0,0.0,0.0,0.0,0.0,-2.5429,-2.5199,-2.474,-2.513,0.0,-2.2283,-2.4176,-2.3803,0.0,0.0,0.0,0.0,-2.42,-2.42,-2.4212,-2.4349,-2.4303,-2.4212,-2.4349,0.0,0.0,0.0,0.0,0.0,-2.42,0.0,0.0,0.0,0.0,0.0,0.0,0.0,0.0,-2.6081,-2.5955,-2.6148,-2.7485,-2.7795,-2.8071,-2.8744,-2.8402,-2.8112,-2.829,-2.87,-2.8766,-2.824,-2.8717,-2.8956,-2.8619,-2.8596,-2.8466,-2.8088,-2.7995,-2.7591,-2.6734,-2.579,-2.4989,-2.4333,-2.4302,-2.4302,-2.4302,-2.4302,-2.4302,-2.4302,-2.4302,-2.4302,-2.4302,-2.4302,-2.4302,-2.4302,-2.4302,-2.4302,-2.4348,-2.482,-2.5419,-2.6096,-2.6803,-2.7519,-2.815,-2.8334,-2.8411,-2.8411,0.0,0.0,0.0,0.0,0.0,0.0,0.0,0.0,-2.4682,0.0,0.0,0.0,-2.3934,-2.3471,-2.3016,-2.2531,-2.2942,-2.3126,-2.2906,-2.3658,-2.4119,-2.4119,-2.4611,-2.4786,0.0,0.0,0.0,0.0,0.0,0.0,0.0,0.0,0.0,0.0,0.0,0.0,0.0,0.0,0.0,0.0,-2.4626,0.0,0.0,-2.4086,-2.4441,0.0,0.0,-2.42,-2.4223,-2.443,-2.4499,-2.4499,-2.4499,0.0,0.0,0.0,0.0,0.0,0.0,0.0,0.0,0.0,0.0,0.0,-2.5722,-2.5812,-2.6009,-2.6834,-2.6844,-2.7056,-2.8266,-2.8492,-2.873,-2.9477,-2.923,-2.8996,-2.9049,-2.9378,-2.9476,-2.9125,-2.9392,-2.9665,-2.9867,-2.975,-2.9535,-2.9307,-2.9147,-2.8564,-2.7473,-2.6072,-2.5112,-2.4733,-2.4456,-2.4302,-2.4302,-2.4302,-2.4302,-2.4302,-2.4302,-2.4302,-2.4302,-2.4302,-2.4302,-2.4302,-2.4302,-2.4471,-2.4758,-2.5435,-2.5958,-2.6373,-2.7119,-2.7811,-2.8411,-2.8411,-2.8411,-2.8411,0.0,0.0,0.0,0.0,0.0,0.0,0.0,0.0,-2.4345,0.0,-2.4116,-2.3666,-2.2953,-2.222,-2.1756,-2.1642,-2.1756,-2.1787,-2.1752,-2.2569,-2.3078,-2.3078,-2.4329,-2.4946,0.0,0.0,0.0,0.0,0.0,0.0,0.0,0.0,0.0,0.0,0.0,0.0,0.0,0.0,0.0,-2.4007,-2.4759,-2.4513,0.0,0.0,-2.4246,-2.42,-2.42,-2.42,-2.4258,-2.4694,-2.4866,-2.4912,-2.4912,-2.4659,0.0,0.0,-2.4625,0.0,0.0,0.0,0.0,0.0,-2.5038,0.0,-2.5792,-2.6259,-2.6859,-2.7441,-2.7635,-2.7914,-2.8519,-2.8634,-2.8839,-2.9509,-2.9602,-2.9602,-2.9602,-2.9602,-2.9602,-2.9602,-2.9602,-2.9758,-3.0174,-3.0148,-2.9977,-2.9648,-2.9424,-2.875,-2.7457,-2.6149,-2.5373,-2.5296,-2.4656,-2.4302,-2.4302,-2.4302,-2.4302,-2.4302,-2.4302,-2.4302,-2.4302,-2.4302,-2.4302,-2.4302,-2.4302,-2.4687,-2.5342,-2.6019,-2.6357,-2.6496,-2.7226,-2.7873,-2.8411,-2.8411,-2.8411,-2.8411,0.0,0.0,0.0,0.0,0.0,0.0,0.0,0.0,0.0,-2.3298,-2.2681,-2.222,-2.2069,-2.188,-2.1527,-2.0808,-2.1423,-2.1681,-2.1421,-2.2769,-2.3547,-2.3547,-2.4849,-2.5164,-2.4349,0.0,0.0,0.0,0.0,0.0,0.0,0.0,0.0,0.0,0.0,0.0,0.0,0.0,0.0,-2.5358,-2.5963,0.0,-2.3793,-2.4498,-2.4533,-2.42,-2.42,-2.42,-2.4212,-2.4303,-2.459,-2.4912,-2.4912,-2.5142,-2.5325,-2.49,0.0,0.0,0.0,0.0,-2.5658,-2.5463,-2.5566,0.0,-2.7442,-2.752,-2.7784,-2.9382,-2.939,-2.9168,-2.9358,-2.9401,-2.9432,-2.9571,-2.9602,-2.9602,-2.9602,-2.9602,-2.9602,-2.9602,-2.9602,-2.9634,-2.9727,-3.0377,-3.035,-2.9214,-2.8819,-2.8258,-2.7442,-2.6573,-2.5865,-2.5312,-2.4656,-2.4302,-2.4302,-2.4302,-2.4302,-2.4302,-2.4302,-2.4302,-2.4302,-2.4302,-2.4302,-2.4302,-2.4302,-2.4687,-2.5342,-2.6019,-2.6634,-2.7257,-2.7934,-2.8288,-2.8411,-2.8411,-2.8411,-2.8411,0.0,0.0,0.0,0.0,0.0,0.0,0.0,0.0,0.0,-2.3001,-2.1918,-2.1155,-2.1155,-2.0798,-2.0382,-1.9923,-2.0304,-2.0469,-2.0296,-2.1438,-2.229,-2.2711,-2.426,-2.5068,-2.4969,0.0,0.0,0.0,0.0,0.0,0.0,0.0,0.0,0.0,0.0,0.0,0.0,0.0,-2.5716,-2.5739,-2.5991,0.0,-2.5071,-2.4956,-2.4935,-2.4889,-2.4372,-2.42,-2.4281,-2.4786,-2.4774,-2.4648,-2.5153,-2.5153,-2.4958,-2.4923,-2.5291,-2.5658,0.0,-2.5693,-2.6026,-2.5773,-2.5977,0.0,0.0,-2.8058,-2.8392,-2.9329,-2.9541,-2.9572,-2.9596,-2.9855,-3.0066,-3.0066,-3.0066,-2.9954,-2.9645,-2.9602,-2.9602,-2.9602,-2.982,-3.0052,-3.0296,-3.094,-3.0899,-2.9774,-2.9195,-2.8611,-2.7934,-2.7242,-2.6549,-2.5872,-2.5179,-2.4656,-2.4302,-2.4302,-2.4302,-2.4302,-2.4302,-2.4302,-2.4302,-2.4302,-2.4302,-2.4317,-2.4656,-2.521,-2.5903,-2.658,-2.7272,-2.7934,-2.8273,-2.8411,-2.8411,-2.8411,-2.8411,-2.8482,0.0,0.0,0.0,0.0,0.0,0.0,0.0,0.0,0.0,0.0,-2.1116,-2.0265,-2.0265,-1.9687,-1.9301,-1.9301,-1.9301,-1.9301,-1.9301,-2.004,-2.0808,-2.1527,-2.3373,-2.4626,-2.5188,-2.6428,0.0,0.0,0.0,0.0,0.0,0.0,0.0,0.0,0.0,0.0,0.0,0.0,0.0,-2.5716,0.0,-2.6106,-2.6398,-2.5417,-2.5268,-2.544,-2.4522,-2.42,-2.4315,-2.5142,-2.4935,-2.4476,-2.5302,-2.5073,0.0,-2.4832,-2.536,-2.583,-2.5739,-2.6269,-2.6683,-2.6174,-2.6555,-2.7272,0.0,0.0,0.0,-2.9219,0.0,0.0,0.0,0.0,0.0,-3.0161,0.0,0.0,0.0,-2.9532,-2.9602,-2.9602,-3.0021,-3.0433,-3.0822,-3.126,-3.12,-3.0468,-2.9771,-2.9095,-2.8442,-2.7765,-2.7149,-2.6595,-2.5887,-2.5158,-2.4502,-2.4502,-2.4441,-2.4302,-2.4302,-2.4302,-2.4302,-2.4302,-2.4302,-2.4348,-2.5004,-2.5718,-2.6464,-2.7119,-2.7796,-2.8411,-2.8411,-2.8411,-2.8411,-2.8411,-2.8488,-2.8697,-2.4454,-2.4345,0.0,0.0,0.0,0.0,0.0,0.0,0.0,0.0,0.0,0.0,0.0,0.0,0.0,0.0,0.0,-1.9301,-1.9301,-2.004,-2.0537,-2.0653,0.0,-2.3656,-2.3326,-2.5446,0.0,0.0,0.0,0.0,0.0,0.0,0.0,0.0,-2.6467,0.0,0.0,0.0,-2.5716,0.0,-2.6198,-2.6455,0.0,-2.5842,-2.536,-2.4935,-2.4395,-2.42,-2.4212,-2.4326,-2.4579,-2.4855,-2.4969,-2.5245,-2.5463,-2.5038,0.0,0.0,-2.583,-2.6839,-2.7885,-2.7364,-2.7671,-2.8461,-2.979,0.0,-3.0388,-3.1037,0.0,0.0,0.0,0.0,0.0,-2.8984,-2.935,-2.949,-2.8886,-2.9265,-2.9602,-2.9602,-3.0021,-3.0312,-3.0372,-3.0642,-3.07,-3.0422,-2.9771,-2.9095,-2.8442,-2.7765,-2.7365,-2.7288,-2.6557,-2.5865,-2.5189,-2.5189,-2.4881,-2.4302,-2.4302,-2.4302,-2.4302,-2.4302,-2.4302,-2.4348,-2.5004,-2.5718,-2.6464,-2.7119,-2.7796,-2.8411,-2.8411,-2.8411,-2.8411,-2.8411,-2.8781,-2.9329,-2.4309,-2.4273,0.0,0.0,0.0,0.0,0.0,0.0,0.0,0.0,0.0,0.0,0.0,0.0,0.0,0.0,0.0,-1.9301,-1.9301,-1.9618,-1.9991,0.0,0.0,0.0,0.0,-2.5147,-2.5819,0.0,-2.5819,0.0,0.0,0.0,0.0,0.0,-2.6152,0.0,-2.5693,0.0,-2.5245,0.0,0.0,0.0,0.0,-2.6117,-2.5635,-2.4889,-2.4682,-2.443,-2.4235,-2.4522,-2.4568,-2.4545,-2.482,-2.4877,0.0,-2.49,0.0,0.0,-2.6156,-2.6907,-2.7777,-2.7861,-2.791,-2.8226,-2.9225,-2.9464,-2.9495,-2.9573,0.0,0.0,0.0,0.0,0.0,0.0,-2.9968,-2.9926,-2.9307,0.0,-2.9602,-2.9602,-3.0021,-3.0348,-3.0527,-3.1242,-3.1248,-3.0128,-3.0148,-2.9803,-2.8873,-2.8389,-2.7977,-2.7589,-2.7279,-2.653,-2.5312,-2.5447,-2.5128,-2.4302,-2.4302,-2.4302,-2.4302,-2.4302,-2.4518,-2.4933,-2.5588,-2.6318,-2.7026,-2.7703,-2.815,-2.8411,-2.8411,-2.8411,-2.8458,-2.8842,-2.9265,-2.9779,0.0,0.0,0.0,0.0,0.0,0.0,0.0,0.0,0.0,0.0,0.0,0.0,-1.9301,-1.9301,0.0,0.0,-1.9301,-1.9301,-1.9301,-1.9301,-1.9569,0.0,0.0,0.0,0.0,0.0,-2.5429,0.0,0.0,0.0,0.0,0.0,0.0,0.0,0.0,-2.5922,-2.5888,0.0,-2.5038,-2.4958,-2.5497,-2.5716,-2.5739,-2.5957,-2.5566,-2.4877,-2.4602,-2.4292,-2.4016,-2.4235,-2.4074,-2.3844,-2.4189,-2.4062,-2.3879,0.0,0.0,0.0,-2.6166,-2.6953,-2.773,-2.8126,-2.8188,-2.8339,-2.9067,-2.9244,-2.9167,-2.8906,-2.9708,0.0,0.0,0.0,-3.0769,-3.0122,0.0,-3.0052,-2.9448,-2.9504,-2.9602,-2.9602,-3.0144,-3.0631,-3.0949,-3.183,-3.1751,-3.0205,-3.0526,-3.0297,-2.9154,-2.8912,-2.8584,-2.8106,-2.8022,-2.7331,-2.5975,-2.6106,-2.5629,-2.4558,-2.4558,-2.4487,-2.4317,-2.4502,-2.4835,-2.5342,-2.6219,-2.6919,-2.7442,-2.8119,-2.8411,-2.8411,-2.8468,-2.8601,-2.8857,-2.9326,-2.9928,-3.0669,-2.1355,-2.2232,0.0,0.0,0.0,0.0,0.0,0.0,0.0,0.0,0.0,0.0,0.0,0.0,0.0,0.0,0.0,-1.9301,-1.9301,0.0,-1.9301,0.0,0.0,-2.1825,0.0,0.0,0.0,0.0,0.0,0.0,0.0,0.0,0.0,0.0,0.0,-2.6478,-2.6444,-2.5899,-2.5383,-2.4958,-2.5497,-2.5716,-2.5658,-2.5153,-2.4946,-2.4786,-2.3797,-2.3442,-2.3361,-2.2914,-2.2776,-2.2765,-2.2776,-2.2776,-2.2823,-2.3304,-2.4201,-2.5159,-2.5669,-2.7029,-2.8279,-2.8292,-2.8774,-2.9451,-3.0192,-3.0351,-3.0351,-3.0438,-3.0469,-3.0315,-2.9715,-2.9645,-2.9462,-2.8858,-2.9251,0.0,0.0,-2.9237,-2.9602,-2.9602,-3.0403,-3.116,-3.1608,-3.2104,-3.1963,-3.0844,-3.0791,-3.0297,-2.9154,-2.9075,-2.9075,-2.9044,-2.8795,-2.8334,-2.7633,-2.7435,-2.6641,-2.5266,-2.5266,-2.4927,-2.4333,-2.4958,-2.5266,-2.5373,-2.6765,-2.738,-2.7442,-2.8119,-2.8411,-2.842,-2.8605,-2.9129,-2.977,-2.9786,-3.082,-3.2254,0.0,0.0,0.0,0.0,0.0,0.0,0.0,-1.946,0.0,0.0,-1.9301,0.0,0.0,-1.9301,-1.9301,0.0,0.0,-1.9301,-1.9301,-1.9301,0.0,-2.0079,-2.1183,-2.2069,0.0,0.0,0.0,0.0,0.0,0.0,0.0,0.0,0.0,0.0,0.0,-2.544,0.0,0.0,0.0,0.0,0.0,-2.451,-2.4198,-2.4384,-2.4441,-2.4315,-2.3305,-2.2937,-2.2903,-2.2731,-2.2719,-2.2719,-2.2719,-2.2719,-2.2776,-2.3279,-2.3895,-2.4688,-2.5546,-2.6506,-2.7483,-2.8464,-2.8591,-2.8738,-2.9558,-2.9654,-2.9554,-2.9572,-3.0075,-3.0315,-2.9715,-2.994,-3.001,-2.9392,-2.9476,-2.9532,0.0,-2.9476,-2.9602,-2.9602,-3.0433,0.0,-3.1037,-3.1448,-3.1336,-3.042,-3.0335,-3.0133,-2.9663,-2.9464,-2.9266,-2.9098,-2.9006,-2.849,-2.7496,-2.7573,-2.6831,-2.5296,-2.5795,-2.5656,-2.4989,-2.5703,-2.6272,-2.6718,-2.7196,-2.7642,-2.8088,-2.8456,-2.8605,-2.8676,-2.9406,-3.0227,-3.0965,-3.0786,-3.1494,-3.2684,-1.9784,0.0,0.0,0.0,0.0,0.0,0.0,0.0,0.0,0.0,-1.9301,0.0,-1.9301,0.0,-1.9301,0.0,-1.9301,-1.942,-1.9726,-1.9726,0.0,-2.0924,-2.1766,-2.2456,0.0,0.0,0.0,0.0,0.0,-2.4281,0.0,0.0,0.0,0.0,0.0,0.0,-2.4648,0.0,-2.4349,0.0,0.0,-2.4005,0.0,-2.3672,-2.3661,-2.3546,-2.2719,-2.2409,-2.2386,-2.2236,-2.2167,-2.2212,-2.2354,-2.242,-2.2554,-2.3224,-2.3782,-2.4377,-2.5277,-2.6116,-2.6941,-2.804,-2.8186,-2.8304,-2.9114,-2.9201,-2.9131,-2.9257,-2.9768,-3.008,-2.9673,-2.994,-3.0066,-2.9673,-2.9602,-2.9602,0.0,-2.9602,-2.9727,-3.0052,-3.0847,0.0,0.0,-3.1457,-3.1522,-3.0097,-3.0282,-3.0251,-2.9774,-2.9687,-2.9509,-2.9259,-2.9144,-2.8708,-2.7875,-2.7907,-2.7303,-2.6034,-2.6367,-2.6146,-2.5467,-2.6191,-2.6741,-2.7169,-2.7571,-2.7996,-2.842,-2.8605,-2.8708,-2.881,-2.9911,-3.0871,-3.1614,-3.1715,-3.234,-3.3287,0.0,0.0,0.0,0.0,-1.9301,0.0,0.0,0.0,-1.9301,0.0,-1.9301,-1.9301,-1.9301,-1.9283,-1.9283,-1.9301,-1.9283,-1.959,-2.0382,-2.0459,0.0,0.0,-2.2569,-2.3001,-2.3075,0.0,0.0,0.0,0.0,0.0,0.0,0.0,0.0,0.0,-2.5383,0.0,-2.4189,-2.4694,-2.4636,-2.42,-2.42,-2.4166,-2.4016,-2.3041,-2.2684,-2.2569,-2.2065,-2.186,-2.178,-2.1362,-2.1233,-2.1316,-2.1765,-2.1908,-2.214,-2.3098,-2.3779,-2.4265,-2.4862,-2.5794,-2.6724,-2.7088,-2.7651,-2.8268,-2.8931,-2.9103,-2.9226,-2.954,-2.9602,-2.9602,-2.9602,-2.9588,-2.9574,-2.9602,-2.9602,-2.9602,-2.9602,-2.9602,-2.9915,-3.0807,-3.1514,0.0,0.0,-3.2016,-3.2307,-3.0033,-3.0609,-3.0624,0.0,-2.9835,-2.9851,-2.9541,-2.9307,-2.9029,-2.8747,-2.8493,-2.8033,-2.7372,-2.6916,-2.6378,-2.5785,-2.6423,-2.6723,-2.6817,-2.7911,-2.8387,-2.8396,-2.8653,-2.8732,-2.8881,-3.0155,-3.1094,-3.1798,-3.2512,-3.3319,-3.4101,-1.8962,-1.9164,-1.9301,0.0,-1.9301,-1.9301,0.0,0.0,0.0,0.0,-1.9301,-1.9301,-1.9301,-1.9036,-1.8981,-1.9274,-1.9036,0.0,0.0,0.0,0.0,-2.1756,-2.2569,-2.3298,-2.3897,-2.408,-2.42,-2.42,0.0,0.0,-2.3786,0.0,0.0,0.0,0.0,0.0,-2.3659,-2.4545,-2.4636,-2.42,-2.42,-2.3741,-2.3075,-2.2811,-2.2247,-2.1569,-2.1431,-2.1385,-2.1374,-2.1236,-2.1431,-2.1733,-2.1846,-2.2144,-2.2549,-2.3223,-2.3485,-2.3811,-2.4753,-2.5196,-2.5652,-2.6647,-2.7367,-2.7971,-2.8639,-2.9156,-2.9509,-2.9571,-2.9602,-2.9602,-2.9602,-2.9237,-2.9083,-2.9532,-2.9602,-2.9602,-2.9602,-2.9602,-2.9636,-2.9737,-3.0646,-3.1396,-3.1736,-3.1416,-3.1073,-3.0797,-3.0558,-3.0243,-2.9819,-3.0856,-3.1001,-2.9974,-3.0107,-2.9888,-2.9225,-2.8538,-2.7731,-2.6886,-2.6952,-2.6808,-2.6462,-2.6827,-2.719,-2.7534,-2.7981,-2.818,-2.8238,-2.899,-2.9289,-2.9462,-3.1026,-3.2385,-3.3467,-3.3661,-3.3889,-3.4101,-1.8999,0.0,0.0,-1.9246,0.0,0.0,-1.9246,-1.9301,0.0,-1.9301,-1.9155,0.0,-1.9045,-1.8687,-1.855,-1.877,-1.8586,0.0,-1.925,0.0,0.0,-2.1644,-2.2371,-2.3086,-2.3831,-2.3867,0.0,-2.42,0.0,0.0,-2.3407,0.0,0.0,0.0,0.0,-2.358,0.0,-2.4177,-2.4441,-2.42,-2.42,-2.3718,0.0,-2.2765,-2.2357,-2.1821,-2.1576,-2.1368,-2.1221,-2.1431,-2.1671,-2.197,-2.2414,-2.275,-2.3065,-2.3569,-2.37,-2.3824,-2.4445,-2.4809,-2.5222,-2.6158,-2.6867,-2.7499,-2.8162,-2.8759,-2.9209,-2.9209,-2.9209,-2.9209,-2.9209,-2.8703,-2.8493,-2.9111,-2.9434,-2.9665,-2.9867,-2.9898,-2.9954,-3.003,-3.0382,-3.0922,-3.1707,-3.1324,-3.0954,-3.0807,-3.0681,-3.0426,-3.0028,-3.1014,-3.1214,-3.0347,-3.0672,-3.0359,-2.9306,-2.8832,-2.8035,-2.7021,-2.696,-2.6894,-2.6832,-2.6883,-2.724,-2.776,-2.7993,-2.8271,-2.8598,-2.9227,-2.9685,-3.0156,-3.182,-3.3145,-3.4101,-3.4101,-3.4101,-3.4101,0.0,0.0,0.0,0.0,0.0,0.0,-1.9191,-1.9219,-1.9164,-1.9219,-1.888,-1.8641,-1.8641,-1.8246,-1.8027,-1.8081,-1.8036,-1.8378,-1.9248,-1.9393,-2.0104,-2.1503,-2.2119,-2.2706,-2.3304,-2.3316,-2.3522,0.0,0.0,0.0,0.0,0.0,0.0,0.0,0.0,0.0,0.0,-2.3752,-2.4168,-2.4298,-2.4228,-2.393,-2.3456,-2.297,-2.2758,-2.2627,-2.2169,-2.1733,-2.1431,-2.1846,-2.2032,-2.2261,-2.3108,-2.3433,-2.3582,-2.3966,-2.4083,-2.4112,-2.4141,-2.4537,-2.5084,-2.5691,-2.6315,-2.69,-2.7519,-2.8127,-2.8577,-2.8577,-2.8577,-2.8577,-2.8577,-2.8157,-2.796,-2.8366,-2.9087,-2.9692,-3.0045,-3.0254,0.0,-3.0822,-3.0409,0.0,-3.091,-3.1317,-3.1217,-3.0451,-3.0865,-3.0815,-3.0101,-3.0865,-3.113,-3.075,-3.1053,-3.0707,-2.9561,-2.9285,-2.8617,-2.752,-2.7015,-2.6841,-2.6985,-2.6762,-2.7034,-2.7705,-2.7978,-2.8479,-2.9098,-2.9418,-3.0035,-3.094,-3.249,-3.3501,-3.4101,-3.4101,-3.4101,-3.4101,0.0,0.0,0.0,0.0,0.0,-1.9146,-1.9283,-1.8751,-1.8449,-1.877,-1.8429,-1.8229,-1.8229,-1.7862,-1.7743,-1.8054,-1.7807,-1.8069,-1.9165,-1.9853,-2.0603,-2.1479,-2.2227,-2.2697,-2.2811,-2.2811,-2.2857,-2.2949,0.0,0.0,0.0,0.0,0.0,0.0,0.0,0.0,-2.3913,-2.3637,0.0,-2.4803,-2.4366,-2.4133,-2.4004,-2.3462,-2.2992,-2.2616,-2.2506,-2.2421,-2.2359,-2.2451,-2.2781,-2.318,-2.333,-2.3671,-2.3995,-2.4083,-2.4083,-2.4141,-2.4363,-2.4516,-2.474,-2.5408,-2.6018,-2.6574,-2.689,-2.7467,-2.7974,-2.7974,-2.7974,-2.7974,-2.7974,-2.7876,-2.7665,-2.7214,-2.8438,-2.9341,-2.9025,-3.0085,-3.0705,-3.0234,-3.0072,-3.0214,-3.07,-3.0404,-3.0219,-3.0381,-3.0983,-3.0902,-2.9908,-3.1534,-3.2169,-3.1438,-3.1494,-3.1453,-3.1343,-2.9746,-2.871,-2.823,-2.7402,-2.7008,-2.6985,-2.6566,-2.6867,-2.7705,-2.7972,-2.8424,-2.8974,-2.9576,-3.059,-3.1828,-3.2757,-3.3501,-3.4101,-3.4101,-3.4101,-3.4101,0.0,0.0,0.0,0.0,0.0,-1.844,-1.866,-1.7972,-1.7789,-1.8605,-1.8174,-1.7798,-1.7798,-1.7431,-1.7275,-1.7477,-1.7647,-1.7986,-1.8539,-1.9272,-2.0004,-2.0739,-2.1408,-2.1936,-2.2294,-2.2294,-2.2421,-2.2719,-2.219,0.0,0.0,0.0,0.0,0.0,0.0,-2.3137,0.0,0.0,-2.4715,-2.5428,-2.4838,-2.4463,-2.4153,-2.3604,-2.3232,-2.2992,-2.2992,-2.3185,-2.3322,-2.3095,-2.3198,-2.3433,-2.37,-2.3907,-2.4083,-2.4083,-2.4083,-2.4171,-2.4436,-2.4509,-2.4666,-2.5341,-2.573,-2.5993,-2.6273,-2.6821,-2.727,-2.727,-2.727,-2.7186,-2.6863,-2.7244,-2.7414,-2.6891,-2.8225,-2.9173,-2.8653,-2.9973,-3.0543,-2.9375,-2.9429,-2.9617,-2.9653,-2.9341,-2.9584,-3.0669,-3.1178,-3.1078,-3.0204,-3.1706,-3.2353,-3.1806,-3.2078,-3.1977,-3.1484,-3.0231,-2.9022,-2.7925,-2.7173,-2.6841,-2.6896,-2.6826,-2.7261,-2.8036,-2.8376,-2.8865,-2.9489,-3.0555,-3.1607,-3.2643,-3.334,-3.3809,-3.4101,-3.4101,-3.4101,-3.4101,0.0,-1.8926,0.0,0.0,-1.8054,-1.7743,-1.8036,-1.7431,-1.7275,-1.832,-1.7743,-1.7238,-1.7238,-1.6963,-1.678,-1.678,-1.7402,-1.7939,-1.8196,-1.8752,-1.9434,-2.0302,-2.0731,-2.1207,-2.1734,-2.1766,-2.1962,-2.2385,-2.1581,-2.1408,-2.1755,0.0,0.0,0.0,0.0,0.0,-2.3691,-2.4493,-2.5231,-2.5812,-2.5246,-2.4756,-2.4315,-2.376,-2.3558,-2.3552,-2.3552,-2.3789,-2.4024,-2.3671,-2.3552,-2.3611,-2.3966,-2.4083,-2.4083,-2.4083,-2.4083,-2.4157,-2.4494,-2.4609,-2.4751,-2.5425,-2.5605,-2.5647,-2.5839,-2.6273,-2.661,-2.661,-2.661,-2.6469,-2.5992,-2.6548,-2.7013,-2.6778,-2.8054,-2.8915,-2.8479,-2.9837,-3.0318,-2.8811,-2.9147,-2.9283,-2.8719,-2.8769,-2.9345,-3.0488,-3.1033,-3.1047,-3.0441,-3.159,-3.222,-3.2015,-3.24,-3.2276,-3.1561,-3.0665,-2.9407,-2.7829,-2.7217,-2.6866,-2.6806,-2.7174,-2.7685,-2.8312,-2.8748,-2.9391,-3.022,-3.1477,-3.2433,-3.3161,-3.3841,-3.4101,-3.4101,-3.4101,-3.4101,-3.4101,0.0,0.0,0.0,-1.82,-1.8072,-1.8082,-1.8081,-1.7431,-1.7073,-1.755,-1.6917,-1.6398,-1.6398,-1.6395,-1.6376,-1.6376,-1.6916,-1.7757,-1.8847,-1.9147,-1.9807,-2.104,-2.114,-2.1195,-2.1259,-2.127,-2.1282,-2.1339,-2.1236,-2.1224,-2.1259,0.0,0.0,-2.1827,-2.1937,-2.2794,-2.4149,-2.423,-2.4872,-2.5744,-2.5214,-2.4956,-2.4853,-2.4265,-2.4034,-2.4024,-2.4024,-2.4054,-2.4083,-2.4054,-2.4024,-2.4024,-2.4083,-2.4083,-2.4083,-2.4083,-2.4083,-2.4229,-2.4806,-2.4948,-2.5118,-2.5702,-2.5866,-2.5866,-2.5893,-2.5936,-2.5978,-2.5978,-2.5978,-2.5964,-2.5907,-2.5963,-2.6154,-2.6463,-2.7525,-2.8275,-2.8147,-2.9467,-3.0088,-2.9167,-2.9948,-3.0028,-2.8641,-2.9505,-2.9797,-2.8993,-3.0007,-3.0504,-3.0066,-3.1201,-3.1919,-3.2094,-3.1955,-3.215,-3.274,-3.106,-2.9792,-2.8954,-2.8533,-2.7779,-2.6806,-2.7251,-2.7775,-2.8312,-2.885,-2.9731,-3.0872,-3.1665,-3.2433,-3.3161,-3.3841,-3.4101,-3.4101,-3.4101,-3.4101,-3.4101,-1.8339,-1.8319,-1.8155,-1.7504,-1.7394,-1.7229,-1.6734,-1.6386,-1.6239,-1.6386,-1.6138,-1.5936,-1.5936,-1.5936,-1.5936,-1.5936,-1.6889,-1.7692,-1.8184,-1.9049,-1.9878,-2.0687,-2.071,-2.0879,-2.119,-2.119,-2.119,-2.119,-2.119,-2.119,-2.119,-2.119,-2.1431,-2.1939,-2.2549,-2.3337,-2.4236,-2.4906,-2.5409,-2.5775,-2.5568,-2.5299,-2.4926,-2.4334,-2.4083,-2.4083,-2.4083,-2.4083,-2.4083,-2.4083,-2.4083,-2.4083,-2.4083,-2.4083,-2.4083,-2.4083,-2.4083,-2.4229,-2.4835,-2.5005,-2.5146,-2.5757,-2.5893,-2.5893,-2.5893,-2.5893,-2.5893,-2.5893,-2.5893,-2.5893,-2.5893,-2.6096,-2.6231,-2.615,-2.7273,-2.7912,-2.7224,-2.8782,-2.9369,-2.7713,-2.8535,-2.8748,-2.757,-2.8266,-2.8852,-2.9001,-3.0485,-3.0972,-3.0031,-3.1375,-3.2152,-3.2156,-3.1797,-3.1939,-3.2585,-3.1104,-2.9879,-2.8848,-2.8286,-2.7766,-2.7331,-2.7454,-2.7972,-2.8865,-3.025,-3.1098,-3.1616,-3.2368,-3.3064,-3.3728,-3.4003,-3.4101,-3.4101,-3.4101,-3.4101,-3.4101,-1.7908,-1.7844,-1.755,-1.6853,-1.6633,-1.6358,-1.578,-1.5588,-1.5515,-1.5515,-1.5414,-1.5449,-1.5741,-1.5791,-1.5845,-1.6024,-1.7073,-1.7788,-1.7955,-1.8914,-1.9677,-2.0182,-2.0331,-2.0572,-2.0971,-2.1121,-2.119,-2.119,-2.119,-2.1285,-2.14,-2.1557,-2.1858,-2.2384,-2.3078,-2.3785,-2.4474,-2.5239,-2.5576,-2.5576,-2.5576,-2.5236,-2.4704,-2.4269,-2.4083,-2.4083,-2.4083,-2.4083,-2.4083,-2.4083,-2.4083,-2.4083,-2.4083,-2.4083,-2.4083,-2.4083,-2.4083,-2.4229,-2.4835,-2.5005,-2.5146,-2.5757,-2.5893,-2.5893,-2.5893,-2.5893,-2.5893,-2.5893,-2.5893,-2.5893,-2.5893,-2.6123,-2.6285,-2.6096,-2.706,-2.7589,-2.6977,-2.8289,-2.8711,-2.7073,-2.7936,-2.8157,-2.6859,-2.7655,-2.8412,-2.8757,-3.0367,-3.0935,-3.011,-3.1531,-3.2223,-3.1922,-3.1641,-3.1782,-3.2393,-3.1157,-3.0082,-2.921,-2.8576,-2.8159,-2.7984,-2.8219,-2.8913,-3.0027,-3.1402,-3.2125,-3.2368,-3.2886,-3.3485,-3.4101,-3.4101,-3.4101,-3.4101,-3.4101,-3.4101,-3.4101,-1.7587,-1.7193,-1.6798,-1.6395,-1.5982,-1.5698,-1.5689,-1.5359,-1.5111,-1.5111,-1.4772,-1.4902,-1.5885,-1.5984,-1.6247,-1.6826,-1.7448,-1.8034,-1.8561,-1.8784,-1.9137,-1.9677,-2.0159,-2.0412,-2.0423,-2.0937,-2.119,-2.119,-2.119,-2.1431,-2.1908,-2.2359,-2.2871,-2.3373,-2.3403,-2.3979,-2.4992,-2.5005,-2.5005,-2.5005,-2.5005,-2.4635,-2.4096,-2.4083,-2.4083,-2.4083,-2.4083,-2.4083,-2.4083,-2.4083,-2.4083,-2.4083,-2.4083,-2.4083,-2.4083,-2.4083,-2.4083,-2.4229,-2.4835,-2.5005,-2.5146,-2.5757,-2.5893,-2.5893,-2.5893,-2.5893,-2.5893,-2.5893,-2.5893,-2.5893,-2.5893,-2.5893,-2.6056,-2.6431,-2.6852,-2.7265,-2.7715,-2.8143,-2.8266,-2.784,-2.8972,-2.892,-2.6715,-2.826,-2.8963,-2.7898,-2.9137,-2.9997,-3.0179,-3.1516,-3.1955,-3.1224,-3.1383,-3.1804,-3.2393,-3.1204,-3.0558,-3.0475,-2.9869,-2.9276,-2.8722,-2.9781,-3.0889,-3.1956,-3.1996,-3.2417,-3.3105,-3.308,-3.3485,-3.4101,-3.4101,-3.4101,-3.4101,-3.4101,-3.4101,-3.4101,-1.6285,-1.6166,-1.5955,-1.556,-1.5377,-1.5349,-1.5478,-1.5385,-1.5438,-1.587,-1.5809,-1.6,-1.6728,-1.6094,-1.5841,-1.6432,-1.7034,-1.7468,-1.7621,-1.8087,-1.8581,-1.9126,-1.9298,-1.9551,-1.9918,-2.04,-2.0653,-2.0653,-2.1029,-2.1431,-2.1908,-2.239,-2.2902,-2.3403,-2.373,-2.407,-2.4413,-2.4835,-2.4769,-2.4426,-2.4835,-2.4622,-2.4083,-2.4083,-2.4083,-2.4083,-2.4083,-2.4083,-2.4083,-2.4083,-2.3822,-2.3483,-2.3483,-2.3757,-2.4083,-2.4083,-2.4245,-2.445,-2.4892,-2.5159,-2.5425,-2.5825,-2.5893,-2.5893,-2.5893,-2.5893,-2.5893,-2.5893,-2.5893,-2.5893,-2.5893,-2.5893,-2.5948,-2.6069,-2.6431,-2.6837,-2.7265,-2.7418,-2.7469,-2.7342,-2.7469,-2.7176,-2.6206,-2.7013,-2.7904,-2.863,-3.0364,-3.1041,-3.0238,-3.1138,-3.1589,-3.1427,-3.1457,-3.1604,-3.1773,-3.1412,-3.0777,-2.9884,-3.0126,-3.0105,-2.9921,-3.1523,-3.1978,-3.1533,-3.2853,-3.3307,-3.3153,-3.3582,-3.3906,-3.4101,-3.4101,-3.4101,-3.4101,-3.4101,-3.4101,-3.4101,-1.5689,-1.557,-1.5386,-1.5139,-1.4983,-1.4911,-1.5028,-1.5049,-1.5274,-1.5882,-1.5968,-1.6273,-1.7118,-1.6528,-1.6312,-1.6905,-1.7335,-1.7556,-1.7556,-1.7881,-1.826,-1.857,-1.8793,-1.9057,-1.939,-1.9884,-2.0319,-2.0663,-2.159,-2.218,-2.2476,-2.2932,-2.3335,-2.3671,-2.3966,-2.4083,-2.4109,-2.4491,-2.4439,-2.4122,-2.4504,-2.4439,-2.4083,-2.4083,-2.4083,-2.4083,-2.4083,-2.4083,-2.4083,-2.4083,-2.3835,-2.355,-2.3651,-2.3958,-2.4182,-2.3732,-2.3771,-2.4065,-2.4381,-2.4627,-2.4913,-2.5446,-2.5542,-2.5612,-2.5837,-2.5893,-2.5893,-2.5893,-2.5893,-2.5893,-2.5893,-2.5893,-2.5893,-2.5893,-2.6231,-2.6642,-2.7045,-2.7097,-2.7174,-2.7342,-2.7071,-2.668,-2.6177,-2.66,-2.7299,-2.8272,-2.9785,-3.0434,-2.9941,-3.1363,-3.1945,-3.1442,-3.1482,-3.1631,-3.1827,-3.1834,-3.1441,-3.0654,-3.1048,-3.1301,-3.1498,-3.2673,-3.2869,-3.2364,-3.3571,-3.3858,-3.3501,-3.3922,-3.4101,-3.4101,-3.4101,-3.4101,-3.4101,-3.4101,-3.4101,-3.4101,-1.5606,-1.5313,-1.5056,-1.5056,-1.4784,-1.4565,-1.4625,-1.4654,-1.4902,-1.5497,-1.5584,-1.6036,-1.7146,-1.7257,-1.749,-1.8057,-1.8084,-1.8084,-1.8084,-1.8084,-1.8084,-1.8084,-1.8598,-1.8839,-1.8839,-1.9401,-2.0168,-2.1092,-2.2588,-2.33,-2.336,-2.3819,-2.4054,-2.4083,-2.4083,-2.4083,-2.4083,-2.4083,-2.4083,-2.4083,-2.4083,-2.4083,-2.4083,-2.4083,-2.4083,-2.4083,-2.4083,-2.4083,-2.4083,-2.4112,-2.4086,-2.4134,-2.4383,-2.4458,-2.4259,-2.3258,-2.3084,-2.3268,-2.3624,-2.3715,-2.3917,-2.4829,-2.5063,-2.5217,-2.5767,-2.5893,-2.5893,-2.5893,-2.5893,-2.5893,-2.5893,-2.5893,-2.5893,-2.5893,-2.619,-2.6616,-2.6993,-2.7019,-2.7188,-2.765,-2.7519,-2.7133,-2.651,-2.6826,-2.7089,-2.7214,-2.7991,-2.8777,-2.9525,-3.2003,-3.2778,-3.1289,-3.1434,-3.1794,-3.2287,-3.237,-3.2425,-3.2453,-3.2453,-3.2749,-3.3277,-3.3277,-3.3553,-3.4101,-3.4101,-3.4101,-3.4101,-3.4101,-3.4101,-3.4101,-3.4101,-3.4101,-3.4101,-3.4165,-3.4133,-3.4101,-1.479,-1.4717,-1.4653,-1.4653,-1.4938,-1.5323,-1.5806,-1.6244,-1.6793,-1.7374,-1.7457,-1.7567,-1.7854,-1.7881,-1.7936,-1.8084,-1.8084,-1.8084,-1.8084,-1.8084,-1.8084,-1.8084,-1.8226,-1.8295,-1.8295,-1.9218,-2.0174,-2.1194,-2.1892,-2.2433,-2.2798,-2.3318,-2.376,-2.4083,-2.4083,-2.4083,-2.4083,-2.4083,-2.4083,-2.4083,-2.4083,-2.4083,-2.4083,-2.4083,-2.4083,-2.4083,-2.4083,-2.4083,-2.4141,-2.4334,-2.4129,-2.3841,-2.4107,-2.4042,-2.3984,-2.4353,-2.4341,-2.4297,-2.4901,-2.4868,-2.4831,-2.5528,-2.5683,-2.5711,-2.5865,-2.5893,-2.5893,-2.5893,-2.5893,-2.5893,-2.5893,-2.5893,-2.5893,-2.5893,-2.5975,-2.6177,-2.659,-2.6377,-2.6324,-2.6747,-2.6484,-2.6231,-2.6056,-2.6204,-2.6953,-2.8505,-2.9419,-3.0227,-3.0971,-3.2122,-3.2139,-3.0793,-3.169,-3.1794,-3.1029,-3.1936,-3.2629,-3.3013,-3.3013,-3.3319,-3.3908,-3.3908,-3.3958,-3.4101,-3.4101,-3.4101,-3.4101,-3.4101,-3.4101,-3.4101,-3.4101,-3.4101,-3.4165,-3.4716,-3.457,-3.4182,-1.4485,-1.4515,-1.4595,-1.4852,-1.5186,-1.5604,-1.6226,-1.6585,-1.7006,-1.7611,-1.7705,-1.7788,-1.8057,-1.8084,-1.8084,-1.8084,-1.8084,-1.8084,-1.8084,-1.8084,-1.8084,-1.8084,-1.8084,-1.8084,-1.8084,-1.8662,-1.9703,-2.1158,-2.2035,-2.2772,-2.3292,-2.3288,-2.359,-2.4083,-2.4083,-2.4083,-2.4083,-2.4083,-2.4083,-2.4083,-2.4083,-2.4083,-2.4057,-2.3783,-2.3678,-2.3678,-2.3678,-2.3678,-2.3736,-2.401,-2.4096,-2.4032,-2.3919,-2.416,-2.4596,-2.4901,-2.4664,-2.4394,-2.4742,-2.4721,-2.4725,-2.5358,-2.5697,-2.5893,-2.5893,-2.5893,-2.5893,-2.5893,-2.5893,-2.5893,-2.5893,-2.5893,-2.5893,-2.5893,-2.5893,-2.6056,-2.6431,-2.615,-2.6056,-2.6457,-2.615,-2.5893,-2.5893,-2.6084,-2.6651,-2.7733,-2.8943,-2.9789,-3.0186,-3.1364,-3.1722,-3.1043,-3.1908,-3.2076,-3.1437,-3.2312,-3.3055,-3.362,-3.362,-3.3951,-3.4586,-3.4246,-3.4279,-3.457,-3.4246,-3.4101,-3.4101,-3.4101,-3.4101,-3.4101,-3.4101,-3.4101,-3.4149,-3.4538,-3.4441,-3.4165,-1.4565,-1.4536,-1.4684,-1.5294,-1.5468,-1.5719,-1.6226,-1.6454,-1.6765,-1.7268,-1.7341,-1.7529,-1.8057,-1.8084,-1.8084,-1.8084,-1.8084,-1.8084,-1.8084,-1.8084,-1.8084,-1.8084,-1.8084,-1.8084,-1.8084,-1.8246,-1.9238,-2.1113,-2.2339,-2.328,-2.3852,-2.3311,-2.3406,-2.3952,-2.3952,-2.4005,-2.4083,-2.4083,-2.4031,-2.3952,-2.3952,-2.3929,-2.3799,-2.3261,-2.3093,-2.3078,-2.3156,-2.3182,-2.3252,-2.3611,-2.411,-2.4491,-2.4025,-2.4652,-2.5494,-2.5222,-2.4767,-2.4359,-2.4359,-2.4359,-2.4486,-2.5021,-2.5514,-2.5893,-2.5893,-2.5893,-2.5893,-2.5893,-2.5893,-2.5893,-2.5893,-2.5893,-2.5921,-2.602,-2.595,-2.6058,-2.648,-2.6153,-2.6029,-2.6377,-2.6096,-2.5921,-2.5921,-2.6264,-2.6499,-2.6612,-2.8088,-2.8968,-2.8999,-3.0568,-3.1508,-3.1508,-3.2076,-3.2437,-3.252,-3.296,-3.3449,-3.3958,-3.4163,-3.4561,-3.5049,-3.4642,-3.47,-3.5179,-3.4538,-3.4198,-3.4101,-3.4101,-3.4101,-3.4101,-3.4101,-3.4101,-3.4117,-3.4214,-3.4262,-3.4279,-1.4942,-1.4666,-1.4556,-1.5264,-1.5835,-1.6197,-1.6283,-1.7168,-1.7854,-1.7947,-1.7963,-1.8002,-1.8084,-1.8084,-1.8084,-1.8084,-1.8084,-1.8084,-1.8084,-1.8084,-1.8084,-1.8084,-1.8084,-1.8084,-1.8084,-1.8873,-1.9883,-2.1105,-2.1615,-2.2153,-2.2741,-2.26,-2.2833,-2.3326,-2.3326,-2.3613,-2.4083,-2.4083,-2.3825,-2.3326,-2.3326,-2.3067,-2.265,-2.2557,-2.2504,-2.2569,-2.3026,-2.3182,-2.3317,-2.4103,-2.4627,-2.495,-2.5149,-2.5494,-2.5825,-2.5781,-2.5683,-2.5612,-2.5612,-2.5612,-2.5626,-2.5725,-2.5823,-2.5893,-2.5893,-2.5893,-2.5893,-2.5893,-2.5893,-2.5893,-2.5893,-2.5893,-2.6062,-2.6582,-2.6231,-2.6103,-2.6666,-2.6244,-2.5921,-2.6002,-2.5948,-2.5948,-2.6056,-2.673,-2.7438,-2.8109,-2.9438,-3.0243,-3.0308,-3.1057,-3.1508,-3.1508,-3.2076,-3.2614,-3.3066,-3.3172,-3.3251,-3.3345,-3.4494,-3.4822,-3.4467,-3.5492,-3.5671,-3.5195,-3.5082,-3.4667,-3.4101,-3.4101,-3.4101,-3.4101,-3.4101,-3.4101,-3.4182,-3.4797,-3.5033,-3.513,-1.4478,-1.4538,-1.4775,-1.5633,-1.6226,-1.6736,-1.7196,-1.7744,-1.8084,-1.8084,-1.8084,-1.8084,-1.8084,-1.8084,-1.8084,-1.8084,-1.8084,-1.8084,-1.8084,-1.8084,-1.8084,-1.8084,-1.8084,-1.8084,-1.8084,-1.9054,-1.9913,-2.0673,-2.1031,-2.1623,-2.2435,-2.2084,-2.2231,-2.2781,-2.2781,-2.2923,-2.3169,-2.3169,-2.3027,-2.2781,-2.2779,-2.2609,-2.2362,-2.2034,-2.193,-2.1956,-2.2217,-2.2377,-2.2591,-2.3125,-2.3947,-2.4655,-2.4328,-2.4987,-2.5837,-2.55,-2.564,-2.5823,-2.5486,-2.5428,-2.5428,-2.5428,-2.5428,-2.5486,-2.5823,-2.5893,-2.5893,-2.5893,-2.5893,-2.5893,-2.5893,-2.5893,-2.5992,-2.6273,-2.6076,-2.5992,-2.6287,-2.6076,-2.5893,-2.5893,-2.5893,-2.5948,-2.6084,-2.6516,-2.6938,-2.7374,-2.8744,-2.9545,-2.9566,-3.0485,-3.1175,-3.148,-3.2379,-3.2949,-3.3182,-3.3182,-3.3212,-3.3263,-3.4249,-3.4956,-3.5407,-3.6017,-3.6108,-3.5768,-3.5364,-3.5017,-3.4651,-3.4262,-3.4327,-3.4635,-3.4262,-3.4101,-3.4133,-3.4473,-3.4871,-3.526,-1.4121,-1.444,-1.4932,-1.5843,-1.6443,-1.7028,-1.7689,-1.7975,-1.8084,-1.8084,-1.8084,-1.8084,-1.8084,-1.8084,-1.8084,-1.8084,-1.8084,-1.8084,-1.8084,-1.8084,-1.8084,-1.8084,-1.8084,-1.8084,-1.8084,-1.9045,-1.9812,-2.0301,-2.0686,-2.1301,-2.2179,-2.1577,-2.1616,-2.2192,-2.2192,-2.2256,-2.2413,-2.2413,-2.2322,-2.2192,-2.2191,-2.2113,-2.1943,-2.1498,-2.1315,-2.1328,-2.1459,-2.1654,-2.1951,-2.2289,-2.3332,-2.4376,-2.3666,-2.4465,-2.5626,-2.5316,-2.5528,-2.5767,-2.5161,-2.5006,-2.5006,-2.5006,-2.5006,-2.5161,-2.5753,-2.5893,-2.5893,-2.5893,-2.5893,-2.5893,-2.5893,-2.5893,-2.595,-2.609,-2.5992,-2.595,-2.609,-2.5992,-2.5893,-2.5893,-2.5893,-2.5948,-2.6111,-2.6388,-2.6608,-2.6767,-2.8226,-2.9053,-2.8927,-3.0134,-3.1029,-3.1495,-3.2473,-3.3091,-3.3206,-3.3206,-3.3349,-3.3569,-3.4391,-3.53,-3.634,-3.6467,-3.6448,-3.627,-3.5535,-3.5211,-3.5146,-3.4392,-3.4635,-3.5364,-3.4441,-3.4198,-3.436,-3.436,-3.4813,-3.5487,-1.4501,-1.4569,-1.4756,-1.5526,-1.6273,-1.6821,-1.6888,-1.7567,-1.8084,-1.8084,-1.8084,-1.8084,-1.8084,-1.8084,-1.8084,-1.8084,-1.8084,-1.8084,-1.8084,-1.8084,-1.8084,-1.8084,-1.8084,-1.8084,-1.8084,-1.8955,-1.9715,-2.0301,-2.0579,-2.1015,-2.1564,-2.1014,-2.1053,-2.1577,-2.1577,-2.189,-2.2413,-2.2413,-2.2086,-2.1577,-2.1577,-2.1263,-2.083,-2.0791,-2.0764,-2.0818,-2.1315,-2.1654,-2.1992,-2.2565,-2.3541,-2.4488,-2.4418,-2.4686,-2.5175,-2.5669,-2.5865,-2.5767,-2.5161,-2.5006,-2.5006,-2.5006,-2.5006,-2.5161,-2.5753,-2.5893,-2.5893,-2.5893,-2.5893,-2.5893,-2.5893,-2.5893,-2.6076,-2.6652,-2.6259,-2.6104,-2.6666,-2.6245,-2.5893,-2.5893,-2.5893,-2.6002,-2.626,-2.6869,-2.7335,-2.7596,-2.9313,-3.0122,-2.9552,-3.0732,-3.1451,-3.1508,-3.2132,-3.273,-3.3288,-3.3288,-3.3658,-3.4337,-3.5582,-3.6232,-3.6413,-3.695,-3.6902,-3.627,-3.5535,-3.5211,-3.5146,-3.4392,-3.4943,-3.6092,-3.4651,-3.4505,-3.513,-3.513,-3.5574,-3.6319,-1.4697,-1.4795,-1.5001,-1.5777,-1.6389,-1.6853,-1.7011,-1.7507,-1.7849,-1.7849,-1.8014,-1.8084,-1.8084,-1.8084,-1.8084,-1.8084,-1.8084,-1.8084,-1.8084,-1.8084,-1.8084,-1.8084,-1.8084,-1.8084,-1.8084,-1.8437,-1.8854,-1.938,-1.9728,-2.013,-2.0579,-2.0678,-2.0805,-2.1001,-2.1001,-2.1132,-2.1354,-2.1354,-2.121,-2.1001,-2.1001,-2.087,-2.0699,-2.0699,-2.0774,-2.0899,-2.1124,-2.1465,-2.1863,-2.2108,-2.2837,-2.3624,-2.3624,-2.4005,-2.4556,-2.5161,-2.5358,-2.5302,-2.5063,-2.5006,-2.5006,-2.5006,-2.5006,-2.5161,-2.5753,-2.5893,-2.5893,-2.5893,-2.5893,-2.5893,-2.5893,-2.5893,-2.5978,-2.6202,-2.6048,-2.5978,-2.6217,-2.6034,-2.5893,-2.5893,-2.5975,-2.6084,-2.6286,-2.6621,-2.7057,-2.7639,-2.8744,-2.9445,-2.9595,-3.082,-3.135,-3.094,-3.1869,-3.252,-3.2732,-3.3152,-3.3504,-3.3804,-3.5112,-3.5944,-3.6355,-3.7014,-3.715,-3.6875,-3.6189,-3.6125,-3.6416,-3.525,-3.538,-3.6254,-3.5687,-3.5347,-3.526,-3.5704,-3.6319,-3.6939,-1.4834,-1.504,-1.5332,-1.5894,-1.6438,-1.6864,-1.706,-1.734,-1.759,-1.7684,-1.7877,-1.8002,-1.8084,-1.8084,-1.8084,-1.8084,-1.8084,-1.8084,-1.8084,-1.8084,-1.8084,-1.8084,-1.8084,-1.8084,-1.8084,-1.8247,-1.8476,-1.8798,-1.921,-1.9539,-1.9824,-2.0271,-2.0485,-2.0485,-2.0624,-2.0699,-2.0699,-2.0699,-2.0699,-2.0699,-2.0699,-2.0699,-2.0699,-2.0774,-2.0873,-2.1021,-2.1106,-2.1423,-2.1793,-2.1793,-2.2376,-2.3097,-2.3097,-2.3698,-2.443,-2.4655,-2.4992,-2.5288,-2.5288,-2.5288,-2.5246,-2.5063,-2.5006,-2.5119,-2.5514,-2.5612,-2.5612,-2.5612,-2.5612,-2.5669,-2.5865,-2.5893,-2.5893,-2.5893,-2.5893,-2.5893,-2.5893,-2.5893,-2.5893,-2.5893,-2.6029,-2.625,-2.6584,-2.6746,-2.7155,-2.7942,-2.8623,-2.9261,-2.9885,-3.0923,-3.1234,-3.0612,-3.1767,-3.2407,-3.2418,-3.2871,-3.3424,-3.3999,-3.4745,-3.5611,-3.6628,-3.687,-3.7097,-3.7247,-3.6594,-3.6691,-3.7198,-3.6027,-3.6092,-3.6918,-3.6481,-3.6125,-3.5914,-3.6432,-3.6918,-3.7328,-1.4922,-1.5342,-1.5701,-1.5701,-1.6306,-1.6818,-1.6818,-1.7032,-1.7312,-1.7656,-1.7711,-1.7783,-1.8057,-1.8084,-1.8084,-1.8084,-1.8084,-1.8084,-1.8084,-1.8084,-1.8084,-1.8084,-1.8084,-1.8084,-1.8084,-1.8556,-1.8798,-1.8798,-1.9184,-1.9394,-1.9394,-1.9798,-1.9991,-2.0016,-2.0485,-2.0699,-2.0699,-2.0699,-2.0699,-2.0699,-2.0699,-2.0699,-2.0724,-2.0923,-2.0997,-2.1033,-2.1302,-2.1592,-2.1793,-2.1793,-2.2376,-2.3083,-2.3083,-2.3955,-2.4866,-2.4261,-2.495,-2.5879,-2.5893,-2.5893,-2.5753,-2.5161,-2.5021,-2.5021,-2.5021,-2.5021,-2.5021,-2.5021,-2.5021,-2.5203,-2.5781,-2.5893,-2.5893,-2.5893,-2.5893,-2.5893,-2.5893,-2.5893,-2.5893,-2.5893,-2.6029,-2.642,-2.7211,-2.7421,-2.7846,-2.8637,-2.9261,-2.9914,-3.0569,-3.1175,-3.1234,-3.0642,-3.1767,-3.2433,-3.2513,-3.2513,-3.3455,-3.5275,-3.4699,-3.5443,-3.7295,-3.66,-3.6657,-3.7263,-3.661,-3.668,-3.7247,-3.6594,-3.7145,-3.8262,-3.6869,-3.6724,-3.7295,-3.7295,-3.7295,-3.7392,-1.5807,-1.5827,-1.5788,-1.6144,-1.6374,-1.6516,-1.6516,-1.6761,-1.6948,-1.7071,-1.7434,-1.7739,-1.7822,-1.7975,-1.8084,-1.8084,-1.8084,-1.8084,-1.8084,-1.8084,-1.8084,-1.8084,-1.8084,-1.8084,-1.8084,-1.8247,-1.8302,-1.8302,-1.8771,-1.8984,-1.8984,-1.9382,-1.9591,-1.9617,-2.0016,-2.0207,-2.0245,-2.0574,-2.0699,-2.0699,-2.0699,-2.0699,-2.0724,-2.0923,-2.1106,-2.1326,-2.1592,-2.1841,-2.2091,-2.2091,-2.225,-2.2475,-2.2475,-2.3013,-2.3727,-2.4008,-2.4655,-2.5372,-2.5767,-2.5893,-2.5851,-2.5669,-2.5626,-2.5626,-2.5626,-2.5626,-2.5626,-2.5626,-2.5626,-2.5683,-2.5865,-2.5893,-2.5893,-2.5893,-2.5893,-2.5893,-2.5893,-2.5893,-2.5893,-2.5893,-2.6535,-2.687,-2.6613,-2.7675,-2.8449,-2.8694,-2.9682,-3.0409,-3.0598,-3.0777,-3.0981,-3.1221,-3.2061,-3.2689,-3.3115,-3.3608,-3.4346,-3.5313,-3.5588,-3.6282,-3.7295,-3.7097,-3.7371,-3.8035,-3.7323,-3.7154,-3.7345,-3.7097,-3.6977,-3.6975,-3.7544,-3.7598,-3.7344,-3.789,-3.8068,-3.81,-1.599,-1.6058,-1.6058,-1.6355,-1.6413,-1.6413,-1.6413,-1.6545,-1.6676,-1.679,-1.7127,-1.7434,-1.7684,-1.7838,-1.7975,-1.8084,-1.8084,-1.8084,-1.8084,-1.8084,-1.8084,-1.8084,-1.8084,-1.8084,-1.8084,-1.8084,-1.8084,-1.8084,-1.8383,-1.853,-1.853,-1.8946,-1.9158,-1.9184,-1.9578,-1.9759,-1.9773,-2.008,-2.0195,-2.0195,-2.0359,-2.0485,-2.0611,-2.1008,-2.1326,-2.1592,-2.1864,-2.2067,-2.2208,-2.2208,-2.2208,-2.2208,-2.2208,-2.2798,-2.3586,-2.3966,-2.4697,-2.5456,-2.5795,-2.5893,-2.5893,-2.5893,-2.5893,-2.5837,-2.5584,-2.5528,-2.5528,-2.5528,-2.5528,-2.5612,-2.5851,-2.5893,-2.5893,-2.5893,-2.5893,-2.5893,-2.5893,-2.5893,-2.5992,-2.6231,-2.686,-2.7353,-2.7454,-2.8424,-2.916,-2.9435,-3.0162,-3.0598,-3.0598,-3.0814,-3.1119,-3.148,-3.2411,-3.3068,-3.3452,-3.4073,-3.458,-3.4894,-3.5094,-3.5638,-3.6502,-3.654,-3.6932,-3.7576,-3.7134,-3.7139,-3.7415,-3.7352,-3.7246,-3.7221,-3.8072,-3.8132,-3.7792,-3.8246,-3.8391,-3.8391,-1.5701,-1.6087,-1.6413,-1.6413,-1.6413,-1.6413,-1.6413,-1.6413,-1.6488,-1.6733,-1.679,-1.7015,-1.7573,-1.7684,-1.7794,-1.803,-1.8084,-1.8084,-1.8084,-1.8084,-1.8084,-1.8084,-1.8084,-1.8084,-1.8084,-1.8084,-1.8084,-1.8084,-1.8084,-1.8084,-1.8111,-1.853,-1.8744,-1.8771,-1.9158,-1.9342,-1.9342,-1.9394,-1.9394,-1.942,-1.9798,-2.0105,-2.0397,-2.1019,-2.141,-2.1674,-2.2006,-2.21,-2.2123,-2.2184,-2.2208,-2.2208,-2.2264,-2.3122,-2.4092,-2.4149,-2.5006,-2.5893,-2.5893,-2.5893,-2.5893,-2.5893,-2.5893,-2.5753,-2.5217,-2.5091,-2.5091,-2.5091,-2.5091,-2.526,-2.5795,-2.5893,-2.5893,-2.5893,-2.5893,-2.5893,-2.5893,-2.5893,-2.6118,-2.6736,-2.7144,-2.7811,-2.8983,-2.9405,-2.9856,-3.0554,-3.0598,-3.0627,-3.0685,-3.1206,-3.1538,-3.1654,-3.2846,-3.3532,-3.359,-3.4124,-3.4381,-3.4406,-3.39,-3.4278,-3.5415,-3.5451,-3.5834,-3.6415,-3.6415,-3.6707,-3.7222,-3.7282,-3.7623,-3.8148,-3.8262,-3.8307,-3.8307,-3.8363,-3.8391,-3.8391,-1.5614,-1.6087,-1.6413,-1.6413,-1.6413,-1.6413,-1.6413,-1.6413,-1.6431,-1.6488,-1.6676,-1.6846,-1.6987,-1.7434,-1.7711,-1.7794,-1.7975,-1.8084,-1.8084,-1.8084,-1.8084,-1.8084,-1.8084,-1.8084,-1.8084,-1.8084,-1.8084,-1.8084,-1.8084,-1.8084,-1.8084,-1.8193,-1.8247,-1.8275,-1.8744,-1.8931,-1.8958,-1.9263,-1.9394,-1.942,-1.9486,-1.9642,-1.9811,-2.0055,-2.0258,-2.0497,-2.1175,-2.1431,-2.1503,-2.203,-2.2208,-2.2292,-2.2746,-2.3459,-2.4177,-2.4669,-2.533,-2.5893,-2.5893,-2.5893,-2.5893,-2.5893,-2.5893,-2.5865,-2.5725,-2.5697,-2.5697,-2.5697,-2.5697,-2.5725,-2.5879,-2.5893,-2.5893,-2.5893,-2.5893,-2.5893,-2.5893,-2.5893,-2.6118,-2.6736,-2.7414,-2.7968,-2.8237,-2.8986,-2.9768,-3.0524,-3.0598,-3.083,-3.1293,-3.1438,-3.199,-3.3038,-3.3358,-3.3736,-3.4196,-3.4341,-3.464,-3.5157,-3.5019,-3.5399,-3.6168,-3.6198,-3.6259,-3.6415,-3.6415,-3.6166,-3.5866,-3.6384,-3.6384,-3.615,-3.7222,-3.7623,-3.7698,-3.8221,-3.8391,-3.8307,-1.5254,-1.5904,-1.6413,-1.6413,-1.6413,-1.6413,-1.6413,-1.6413,-1.6413,-1.6413,-1.6516,-1.6648,-1.679,-1.7088,-1.7407,-1.7684,-1.7959,-1.8084,-1.8084,-1.8084,-1.8084,-1.8084,-1.8084,-1.8084,-1.8084,-1.8084,-1.8084,-1.8084,-1.8084,-1.8084,-1.8084,-1.8084,-1.8084,-1.8111,-1.8367,-1.8476,-1.8476,-1.8706,-1.8786,-1.8813,-1.9093,-1.933,-1.954,-1.9862,-2.0067,-2.0257,-2.0746,-2.0919,-2.1017,-2.1612,-2.1817,-2.192,-2.2478,-2.3122,-2.3755,-2.4374,-2.5006,-2.5514,-2.5809,-2.5893,-2.5893,-2.5893,-2.5893,-2.5893,-2.5893,-2.5893,-2.5893,-2.5893,-2.5893,-2.5893,-2.5893,-2.5893,-2.5893,-2.5893,-2.5893,-2.5893,-2.5893,-2.5893,-2.6231,-2.7158,-2.7711,-2.8266,-2.8934,-2.9501,-2.9981,-3.0342,-3.0522,-3.0828,-3.1387,-3.1768,-3.2454,-3.3474,-3.3794,-3.408,-3.4414,-3.4414,-3.4568,-3.4938,-3.4938,-3.5121,-3.5464,-3.5464,-3.5464,-3.5464,-3.5464,-3.5432,-3.5432,-3.577,-3.5882,-3.5961,-3.6646,-3.692,-3.6966,-3.7326,-3.746,-3.7401,-1.4893,-1.5643,-1.6288,-1.6288,-1.6288,-1.6288,-1.6288,-1.6288,-1.6316,-1.6384,-1.6413,-1.6488,-1.6705,-1.6761,-1.7043,-1.7656,-1.7904,-1.8057,-1.8084,-1.8084,-1.8084,-1.8084,-1.8084,-1.8084,-1.8084,-1.8084,-1.8084,-1.8084,-1.8084,-1.8084,-1.8084,-1.8084,-1.8084,-1.8084,-1.8084,-1.8084,-1.8084,-1.8084,-1.8084,-1.8139,-1.864,-1.9001,-1.9305,-1.9734,-1.9978,-2.0118,-2.0359,-2.051,-2.066,-2.1118,-2.1307,-2.1513,-2.2045,-2.2613,-2.323,-2.3898,-2.4521,-2.5119,-2.5598,-2.5809,-2.5893,-2.5893,-2.5893,-2.5893,-2.5893,-2.5893,-2.5893,-2.5893,-2.5893,-2.5893,-2.5893,-2.5893,-2.5893,-2.5893,-2.5992,-2.602,-2.5907,-2.6076,-2.661,-2.7679,-2.8077,-2.8733,-2.9936,-3.0244,-3.0346,-3.0268,-3.06,-3.1069,-3.1593,-3.2269,-3.2945,-3.3649,-3.4138,-3.4414,-3.4414,-3.4414,-3.4414,-3.4414,-3.4414,-3.4414,-3.4414,-3.4414,-3.4414,-3.4414,-3.4414,-3.4721,-3.5252,-3.5252,-3.5561,-3.6072,-3.6197,-3.6228,-3.6259,-3.6353,-3.6322,-3.6228,-1.4804,-1.5371,-1.5798,-1.5798,-1.5798,-1.5798,-1.5798,-1.5798,-1.5943,-1.6355,-1.6413,-1.6402,-1.6459,-1.6648,-1.7043,-1.7656,-1.7739,-1.7849,-1.8084,-1.8084,-1.8084,-1.8084,-1.8084,-1.8084,-1.8084,-1.8084,-1.8084,-1.8084,-1.8084,-1.8084,-1.8084,-1.8084,-1.8084,-1.8084,-1.8084,-1.8084,-1.8084,-1.8084,-1.8084,-1.8111,-1.8193,-1.8425,-1.8682,-1.8652,-1.8721,-1.8922,-1.9526,-2.0105,-2.061,-2.0684,-2.1012,-2.1485,-2.2089,-2.2644,-2.3213,-2.3838,-2.4485,-2.5021,-2.5105,-2.5486,-2.5893,-2.5893,-2.5893,-2.5893,-2.5893,-2.5893,-2.5893,-2.5893,-2.5893,-2.5893,-2.5893,-2.5893,-2.5893,-2.5893,-2.6343,-2.6512,-2.5964,-2.6863,-2.7622,-2.7791,-2.8748,-2.9499,-2.9808,-3.0381,-3.0785,-3.088,-3.1411,-3.2094,-3.2904,-3.3052,-3.345,-3.4254,-3.437,-3.4414,-3.4414,-3.4414,-3.4414,-3.4414,-3.4414,-3.4414,-3.4414,-3.4414,-3.4414,-3.4414,-3.4414,-3.4433,-3.4534,-3.4534,-3.4601,-3.4721,-3.5302,-3.5546,-3.561,-3.6197,-3.604,-3.5546,-1.4458,-1.4902,-1.5254,-1.5254,-1.5498,-1.5701,-1.5701,-1.5904,-1.6173,-1.6384,-1.6413,-1.6413,-1.6413,-1.6648,-1.6976,-1.7396,-1.759,-1.781,-1.8084,-1.8084,-1.8084,-1.8084,-1.8084,-1.8084,-1.8084,-1.8084,-1.8084,-1.8084,-1.8084,-1.8084,-1.8084,-1.8084,-1.8084,-1.8084,-1.8084,-1.8084,-1.8084,-1.8084,-1.8084,-1.8111,-1.8302,-1.8464,-1.8587,-1.8625,-1.8598,-1.864,-1.8934,-1.9344,-1.9747,-2.0055,-2.0501,-2.1014,-2.1264,-2.1904,-2.2671,-2.2949,-2.3473,-2.4,-2.4365,-2.4914,-2.5397,-2.5397,-2.5647,-2.5893,-2.5893,-2.5893,-2.5893,-2.5893,-2.5893,-2.5893,-2.5893,-2.5893,-2.5893,-2.5893,-2.6118,-2.6315,-2.6399,-2.6891,-2.7495,-2.8227,-2.9069,-2.9634,-2.9682,-3.034,-3.0786,-3.0722,-3.145,-3.2188,-3.2877,-3.3092,-3.3513,-3.4216,-3.4346,-3.4414,-3.4414,-3.4414,-3.4414,-3.4414,-3.4414,-3.4414,-3.4414,-3.4414,-3.4414,-3.4414,-3.4414,-3.4414,-3.4414,-3.4414,-3.4414,-3.4448,-3.4721,-3.4839,-3.4872,-3.5172,-3.5088,-3.4839]}]]